Date StartTime U_cm/s V_cm/s W_cm/s Ustd_cm/s Vstd_cm/s Wstd_cm/s Uvar_(cm/s)^2 Vvar_(cm/s)^2 Wvar_(cm/s)^2 KE_(m/s)^2 TurbulentKE_(m/s)^2 HorizWindSpeed_cm/s FrictionSpeec_cm/s DragCoef SpeedOfSound_m/s SonicTemperature_C Pressure_mb 
06/06/2013  00:00:00     -146.699      -88.704      -10.582       41.251       36.278       18.947     1701.632     1316.090      359.001        1.644        0.169      171.432       15.076        0.008      347.090       25.808      861.552
06/06/2013  00:01:00     -117.092     -103.383       -5.465       78.244       28.807       27.953     6122.150      829.832      781.382        1.608        0.387      156.201       36.430        0.054      347.183       25.968      861.556
06/06/2013  00:02:00     -146.918      -33.362       -3.474       43.018       44.376       30.269     1850.582     1969.268      916.195        1.372        0.237      150.659       23.279        0.024      346.992       25.638      861.573
06/06/2013  00:03:00     -130.604      -93.949       -8.720       56.936       44.262       26.513     3241.697     1959.097      702.926        1.593        0.295      160.885       25.809        0.026      347.049       25.736      861.566
06/06/2013  00:04:00     -185.681     -119.626       -3.225       64.289       59.748       37.087     4133.062     3569.859     1375.452        2.894        0.454      220.880       36.840        0.028      347.044       25.724      861.549
06/06/2013  00:05:00     -186.983      -79.892       -7.624       75.174       48.482       30.817     5651.177     2350.479      949.715        2.518        0.448      203.336       37.483        0.034      347.019       25.684      861.536
06/06/2013  00:06:00     -136.168      -52.277        6.597       72.853       74.132       37.258     5307.537     5495.613     1388.160        1.675        0.610      145.859       44.405        0.093      346.936       25.542      861.538
06/06/2013  00:07:00     -141.979      -77.185       -3.544       51.872       41.931       28.322     2690.713     1758.179      802.125        1.569        0.263      161.603       25.159        0.024      346.975       25.610      861.541
06/06/2013  00:08:00     -182.186      -71.613       -6.012       77.142       64.446       29.618     5950.944     4153.273      877.208        2.467        0.549      195.755       26.438        0.018      346.997       25.647      861.532
06/06/2013  00:09:00     -157.752      -67.936       10.769      101.730       75.945       46.512    10349.007     5767.664     2163.397        2.394        0.914      171.759       55.722        0.105      347.067       25.766      861.521
06/06/2013  00:10:00     -222.717      -74.982       -7.894       65.514       60.455       38.467     4292.103     3654.769     1479.708        3.236        0.471      235.000       32.641        0.019      346.963       25.584      861.525
06/06/2013  00:11:00     -224.693      -53.132       -4.764       82.551       58.041       38.293     6814.730     3368.771     1466.349        3.249        0.582      230.890       42.103        0.033      346.865       25.417      861.536
06/06/2013  00:12:00     -216.619     -102.557        3.537       81.839       51.984       40.181     6697.690     2702.311     1614.502        3.423        0.551      239.670       37.050        0.024      346.912       25.498      861.555
06/06/2013  00:13:00     -187.673     -109.664      -10.216      104.283       82.151       42.401    10874.919     6748.759     1797.809        3.338        0.971      217.364       47.643        0.048      347.010       25.666      861.542
06/06/2013  00:14:00     -183.534      -54.794        6.229       75.707       72.377       44.124     5731.621     5238.479     1946.959        2.482        0.646      191.539       44.486        0.054      346.958       25.578      861.536
06/06/2013  00:15:00     -230.283      -66.904       -6.765       64.637       51.391       33.226     4177.929     2641.005     1103.977        3.274        0.396      239.805       32.061        0.018      347.002       25.652      861.533
06/06/2013  00:16:00     -175.149      -35.607       -1.355      112.197       71.589       45.291    12588.279     5124.945     2051.244        2.585        0.988      178.731       51.564        0.083      346.883       25.448      861.538
06/06/2013  00:17:00     -233.031      -11.012      -25.426       64.077       59.224       35.987     4105.862     3507.538     1295.028        3.199        0.445      233.291       35.799        0.024      346.951       25.563      861.545
06/06/2013  00:18:00     -158.152      -33.441        0.279       79.118       52.493       40.419     6259.642     2755.467     1633.659        1.839        0.532      161.649       42.948        0.071      346.840       25.376      861.544
06/06/2013  00:19:00     -219.884      -59.059       -4.084       68.659       55.433       32.045     4714.023     3072.808     1026.872        3.033        0.441      227.678       30.396        0.018      346.899       25.474      861.534
06/06/2013  00:20:00     -249.696      -18.666      -29.696       38.904       45.276       29.355     1513.492     2049.902      861.720        3.400        0.221      250.392       20.325        0.007      346.911       25.492      861.536
06/06/2013  00:21:00     -217.289      -24.049       -8.701       67.676       60.605       43.223     4580.053     3673.024     1868.245        2.899        0.506      218.615       43.866        0.040      346.929       25.528      861.537
06/06/2013  00:22:00     -198.139        5.435      -23.618       56.754       58.925       32.879     3221.001     3472.172     1081.054        2.381        0.389      198.213       23.750        0.014      347.005       25.659      861.530
06/06/2013  00:23:00     -135.170      -76.034       -9.072       53.804       54.065       30.381     2894.842     2923.026      922.986        1.544        0.337      155.088       12.517        0.007      346.907       25.493      861.534
06/06/2013  00:24:00     -145.198      -58.342       -7.401       73.574       60.469       32.398     5413.067     3656.464     1049.626        1.733        0.506      156.480       29.643        0.036      346.833       25.362      861.541
06/06/2013  00:25:00     -214.545      -21.281      -16.555       68.162       61.873       41.451     4646.098     3828.305     1718.202        2.847        0.510      215.598       42.133        0.038      346.924       25.518      861.537
06/06/2013  00:26:00     -249.950      -23.010      -22.204       73.843       70.261       34.226     5452.761     4936.568     1171.395        3.753        0.578      251.007       39.407        0.025      347.194       25.982      861.537
06/06/2013  00:27:00     -219.975      -41.430      -17.374       78.998       78.811       35.342     6240.700     6211.213     1249.074        3.205        0.685      223.842       35.952        0.026      347.022       25.689      861.545
06/06/2013  00:28:00     -209.187       13.989      -20.054       62.969       56.617       31.062     3965.069     3205.532      964.831        2.624        0.407      209.654       18.765        0.008      347.132       25.878      861.539
06/06/2013  00:29:00     -103.636      -43.575       -7.540       52.396       40.648       28.401     2745.351     1652.285      806.629        0.895        0.260      112.424       26.472        0.055      346.972       25.604      861.527
06/06/2013  00:30:00      -97.062       -9.515       -3.518       39.494       36.119       22.319     1559.787     1304.558      498.120        0.644        0.168       97.527       20.499        0.044      346.734       25.195      861.527
06/06/2013  00:31:00     -127.745      -22.461       -9.329       68.482       41.220       23.968     4689.761     1699.054      574.446        1.194        0.348      129.705       29.067        0.050      346.637       25.026      861.524
06/06/2013  00:32:00     -143.535        2.047      -19.751       51.293       36.999       23.700     2630.956     1368.928      561.695        1.278        0.228      143.549       25.599        0.032      346.633       25.020      861.523
06/06/2013  00:33:00     -120.658        4.134      -17.152       35.226       29.152       20.152     1240.888      849.833      406.093        0.868        0.125      120.729       20.359        0.028      346.663       25.072      861.514
06/06/2013  00:34:00     -181.141        7.425      -14.435       88.490       60.025       33.461     7830.481     3602.984     1119.610        2.281        0.628      181.294       40.587        0.050      346.710       25.150      861.514
06/06/2013  00:35:00     -121.249       -0.458       -1.040       60.047       49.118       33.890     3605.620     2412.602     1148.539        1.093        0.358      121.249       33.424        0.076      346.585       24.937      861.514
06/06/2013  00:36:00     -103.828      -25.898       -7.080       30.945       27.008       22.449      957.578      729.457      503.938        0.685        0.110      107.009       20.917        0.038      346.411       24.639      861.515
06/06/2013  00:37:00      -73.417      -33.734       -6.405       36.849       25.325       15.761     1357.853      641.370      248.395        0.441        0.112       80.796        9.835        0.015      346.383       24.590      861.516
06/06/2013  00:38:00      -29.626        7.938       -2.412       23.414       24.700       11.775      548.236      610.096      138.656        0.112        0.065       30.671        8.734        0.081      346.382       24.589      861.526
06/06/2013  00:39:00      -27.800      -32.125       -7.009       28.189       17.586       11.709      794.634      309.283      137.107        0.155        0.062       42.484        9.043        0.045      346.381       24.588      861.533
06/06/2013  00:40:00        9.674      -35.483       -0.405       20.135       23.873       23.860      405.416      569.935      569.322        0.145        0.077       36.778       18.244        0.246      346.221       24.313      861.535
06/06/2013  00:41:00       -6.089      -25.169       -9.519        8.715       19.621        7.766       75.944      384.994       60.310        0.064        0.026       25.895        6.000        0.054      346.124       24.147      861.533
06/06/2013  00:42:00       24.578       12.563        3.151       13.601       11.651       12.351      184.999      135.739      152.550        0.062        0.024       27.602       10.340        0.140      346.145       24.183      861.541
06/06/2013  00:43:00       10.858       27.109       15.344       20.108       18.638       29.973      404.323      347.367      898.410        0.137        0.083       29.203       20.032        0.471      346.297       24.443      861.530
06/06/2013  00:44:00       53.119       26.156       14.868       26.973       24.379       20.655      727.568      594.332      426.648        0.274        0.087       59.209       16.240        0.075      346.029       23.984      861.543
06/06/2013  00:45:00       69.054       38.398       49.056       48.507       37.904       40.866     2352.909     1436.683     1670.056        0.705        0.273       79.012       29.631        0.141      345.961       23.866      861.532
06/06/2013  00:46:00       38.543       37.617       50.934       34.330       35.289       28.468     1178.554     1245.301      810.445        0.436        0.162       53.858       14.807        0.076      345.978       23.894      861.533
06/06/2013  00:47:00       71.501       -5.510       10.048       46.605       33.745       27.284     2172.055     1138.731      744.425        0.465        0.203       71.713       21.489        0.090      346.115       24.128      861.537
06/06/2013  00:48:00       96.717       18.945       19.917       40.039       33.868       35.926     1603.086     1147.036     1290.673        0.707        0.202       98.555       22.222        0.051      346.003       23.939      861.522
06/06/2013  00:49:00       20.512       64.754       63.023       38.960       32.662       28.701     1517.907     1066.837      823.758        0.600        0.170       67.926       26.076        0.147      345.930       23.813      861.515
06/06/2013  00:50:00       23.058       50.989       57.357       33.927       36.048       21.591     1151.024     1299.473      466.171        0.467        0.146       55.960       20.189        0.130      345.908       23.775      861.512
06/06/2013  00:51:00       54.943       44.081       38.497       29.086       28.778       23.579      845.986      828.171      555.981        0.434        0.112       70.440       16.073        0.052      345.889       23.742      861.513
06/06/2013  00:52:00       32.314       -0.361       15.204       35.176       24.040       21.434     1237.384      577.910      459.398        0.177        0.114       32.316       11.884        0.135      345.980       23.898      861.516
06/06/2013  00:53:00        4.328       -3.477       20.336       20.445       18.022       10.976      417.988      324.808      120.467        0.065        0.043        5.552        6.016        1.174      345.879       23.726      861.502
06/06/2013  00:54:00        4.730        0.938        3.002       20.161       29.238        9.683      406.452      854.837       93.751        0.069        0.068        4.822        9.139        3.592      345.901       23.765      861.498
06/06/2013  00:55:00       -5.858       63.641       -3.663       25.966       17.008       12.671      674.250      289.268      160.548        0.261        0.056       63.910        6.449        0.010      345.769       23.537      861.492
06/06/2013  00:56:00       12.447       17.146       -0.793       13.668       14.746       11.196      186.817      217.432      125.341        0.049        0.026       21.188        6.154        0.084      345.800       23.589      861.483
06/06/2013  00:57:00      -40.285      -10.870       -9.501       31.158        9.218        5.751      970.808       84.964       33.078        0.146        0.054       41.725        9.724        0.054      345.420       22.937      861.482
06/06/2013  00:58:00      -52.711        6.197       -9.219       11.580       12.711        7.850      134.105      161.564       61.624        0.163        0.018       53.074        6.929        0.017      345.409       22.920      861.478
06/06/2013  00:59:00      -57.589       18.818       -8.902       11.768        6.788        4.824      138.495       46.083       23.270        0.198        0.010       60.586        2.067        0.001      345.751       23.504      861.488
06/06/2013  01:00:00      -40.819        7.852       -3.455       30.286       38.793       23.945      917.255     1504.894      573.383        0.237        0.150       41.567       19.264        0.215      345.385       22.877      861.501
06/06/2013  01:01:00        2.080       -2.754        9.089       19.346       11.086       19.778      374.263      122.889      391.170        0.049        0.044        3.451       17.866       26.805      345.348       22.813      861.496
06/06/2013  01:02:00      -34.421      -12.746       -5.132       13.358       12.101       10.128      178.446      146.425      102.574        0.090        0.021       36.705        7.701        0.044      345.554       23.167      861.489
06/06/2013  01:03:00      -71.150        0.645       -7.836       10.485       15.483        9.791      109.943      239.712       95.860        0.278        0.022       71.153        7.395        0.011      345.344       22.808      861.501
06/06/2013  01:04:00      -51.535      -14.992      -10.293       17.400       13.880        7.765      302.756      192.641       60.292        0.177        0.028       53.671        8.179        0.023      345.226       22.606      861.497
06/06/2013  01:05:00      -80.452      -23.617      -13.385       23.241       14.320        8.496      540.164      205.056       72.188        0.401        0.041       83.846        7.508        0.008      345.138       22.455      861.488
06/06/2013  01:06:00      -98.351      -23.038       -6.055       39.993       31.096       19.707     1599.425      966.956      388.384        0.660        0.148      101.013       19.333        0.037      344.952       22.137      861.505
06/06/2013  01:07:00      -82.143       20.352      -12.030       45.752       36.992       24.974     2093.269     1368.377      623.692        0.570        0.204       84.627       28.964        0.117      344.993       22.205      861.511
06/06/2013  01:08:00      -92.333       40.436      -10.630       40.390       29.778       25.969     1631.343      886.704      674.373        0.673        0.160      100.799       19.018        0.036      345.422       22.942      861.505
06/06/2013  01:09:00     -106.665       -2.980      -15.914       30.921       26.697       16.991      956.120      712.728      288.680        0.680        0.098      106.707       16.071        0.023      345.211       22.580      861.505
06/06/2013  01:10:00      -90.899      -16.376      -10.246       28.755       25.111       15.410      826.847      630.555      237.474        0.516        0.085       92.362       13.584        0.022      344.934       22.105      861.503
06/06/2013  01:11:00      -90.581       18.671      -19.386       39.897       32.793       24.527     1591.794     1075.384      601.563        0.610        0.163       92.485       16.435        0.032      345.117       22.418      861.500
06/06/2013  01:12:00      -89.855       32.132      -25.186       43.426       35.714       21.409     1885.842     1275.514      458.330        0.668        0.181       95.427       13.915        0.021      345.279       22.697      861.506
06/06/2013  01:13:00      -84.639       35.339      -11.057       30.314       26.025       18.400      918.915      677.278      338.556        0.523        0.097       91.720       14.430        0.025      345.593       23.234      861.492
06/06/2013  01:14:00      -90.755       -2.216      -11.590       23.949       28.418       15.727      573.562      807.567      247.330        0.500        0.081       90.782        7.132        0.006      345.208       22.575      861.486
06/06/2013  01:15:00     -163.964      -24.706      -14.002       36.048       29.605       22.686     1299.451      876.474      514.637        1.519        0.135      165.815       18.422        0.012      344.785       21.850      861.501
06/06/2013  01:16:00     -139.279      -28.706       -6.832       39.622       26.878       21.388     1569.912      722.442      457.462        1.151        0.137      142.206       21.700        0.023      344.752       21.792      861.501
06/06/2013  01:17:00     -102.567      -31.313       -0.295       24.223       20.224       17.684      586.744      409.028      312.721        0.640        0.065      107.240       15.764        0.022      344.787       21.853      861.499
06/06/2013  01:18:00     -115.539      -39.799       -6.758       21.293       18.132       11.552      453.388      328.753      133.457        0.795        0.046      122.201       10.791        0.008      344.831       21.928      861.504
06/06/2013  01:19:00      -96.187      -48.716       -2.194       16.512       13.581       13.202      272.646      184.448      174.281        0.613        0.032      107.820        7.193        0.004      344.892       22.033      861.496
06/06/2013  01:20:00     -116.194      -42.025       -5.709       20.766       19.033       11.925      431.223      362.239      142.201        0.812        0.047      123.561        6.969        0.003      344.872       21.999      861.514
06/06/2013  01:21:00      -99.034      -59.854        1.988       42.738       22.852       20.631     1826.509      522.225      425.626        0.808        0.139      115.716       16.834        0.021      344.871       21.999      861.511
06/06/2013  01:22:00      -48.927      -52.348        4.489       29.505       27.778       19.030      870.538      771.616      362.139        0.358        0.100       71.653       17.751        0.061      344.964       22.156      861.507
06/06/2013  01:23:00      -47.762      -46.228        6.627       48.035       33.140       22.294     2307.359     1098.263      497.005        0.418        0.195       66.469       24.431        0.135      344.854       21.967      861.509
06/06/2013  01:24:00     -103.167      -72.541       -5.317       23.749       22.361       18.631      564.024      499.992      347.131        0.867        0.071      126.118       13.925        0.012      345.047       22.300      861.495
06/06/2013  01:25:00      -47.483      -32.423        3.991       51.697       33.256       27.280     2672.603     1105.942      744.222        0.392        0.226       57.497       18.929        0.108      344.839       21.942      861.496
06/06/2013  01:26:00      -53.240      -29.167       11.204       46.250       31.482       24.168     2139.088      991.108      584.098        0.376        0.186       60.706       25.212        0.172      344.771       21.827      861.502
06/06/2013  01:27:00      -90.629      -66.201       -0.425       31.500       24.266       18.586      992.270      588.857      345.432        0.726        0.096      112.233       16.609        0.022      344.848       21.959      861.499
06/06/2013  01:28:00      -99.372      -49.120       -1.148       22.692       18.827       11.879      514.948      354.444      141.120        0.665        0.051      110.850        7.893        0.005      344.961       22.151      861.499
06/06/2013  01:29:00     -115.187      -36.069       -6.322       22.920       13.480       10.667      525.333      181.717      113.794        0.771        0.041      120.703       10.338        0.007      344.933       22.106      861.491
06/06/2013  01:30:00     -105.210      -36.855       -2.990       25.891       17.807       10.997      670.328      317.084      120.941        0.677        0.055      111.478        6.138        0.003      344.925       22.090      861.493
06/06/2013  01:31:00      -86.113      -22.708      -10.224       22.114       12.747        9.188      489.040      162.477       84.428        0.439        0.037       89.056       10.843        0.015      344.927       22.093      861.478
06/06/2013  01:32:00     -116.206      -30.634       -9.132       19.675       15.044       11.886      387.103      226.320      141.273        0.764        0.038      120.176        9.194        0.006      344.968       22.165      861.474
06/06/2013  01:33:00     -110.139      -25.256      -10.341       27.820       20.637       11.643      773.949      425.881      135.557        0.711        0.067      112.997       11.641        0.011      344.848       21.958      861.470
06/06/2013  01:34:00      -95.183      -15.021       -5.928       22.920       14.593       10.084      525.344      212.966      101.678        0.508        0.042       96.361       10.401        0.012      344.800       21.874      861.471
06/06/2013  01:35:00     -123.938       -5.142      -11.734       12.059        6.589        6.621      145.415       43.418       43.834        0.788        0.012      124.044        4.710        0.001      344.872       22.002      861.473
06/06/2013  01:36:00     -135.038       -4.712      -11.397       19.350       10.260       12.397      374.424      105.275      153.697        0.951        0.032      135.120        9.947        0.005      344.832       21.930      861.465
06/06/2013  01:37:00     -134.633       11.653       -7.629       26.127       16.566       16.347      682.613      274.445      267.210        0.977        0.061      135.137       15.545        0.013      344.879       22.010      861.452
06/06/2013  01:38:00     -132.288       -2.946       -9.472       25.442       24.042       13.700      647.311      578.032      187.694        0.951        0.071      132.321        9.416        0.005      344.895       22.038      861.445
06/06/2013  01:39:00     -130.164      -20.980       -6.122       28.464       22.865       14.208      810.202      522.797      201.869        0.948        0.077      131.844       13.411        0.010      344.886       22.024      861.420
06/06/2013  01:40:00      -92.736      -31.218        2.000       40.371       28.418       19.551     1629.784      807.600      382.239        0.620        0.141       97.850       17.797        0.033      344.814       21.899      861.407
06/06/2013  01:41:00     -135.874        0.700      -12.258       22.774       16.955       13.738      518.659      287.481      188.742        0.980        0.050      135.876        7.830        0.003      344.879       22.011      861.406
06/06/2013  01:42:00     -114.473       20.960       -7.308       28.542       18.305       14.677      814.623      335.069      215.402        0.748        0.068      116.376        9.599        0.007      344.908       22.060      861.393
06/06/2013  01:43:00     -138.470      -28.591      -17.423       26.387       22.520       18.653      696.283      507.130      347.946        1.092        0.078      141.391       15.941        0.013      344.889       22.027      861.384
06/06/2013  01:44:00     -107.430      -10.920       -4.557       35.189       20.118       19.331     1238.291      404.729      373.676        0.685        0.101      107.984       18.635        0.030      344.689       21.685      861.378
06/06/2013  01:45:00     -149.092        2.465      -17.827       28.860       20.714       18.370      832.901      429.050      337.447        1.208        0.080      149.112       16.197        0.012      344.634       21.593      861.372
06/06/2013  01:46:00     -162.554      -22.988      -26.030       27.827       29.661       17.794      774.364      879.773      316.636        1.480        0.099      164.171       15.082        0.008      344.550       21.448      861.375
06/06/2013  01:47:00     -153.237      -16.636      -20.973       29.505       26.017       19.029      870.566      676.866      362.093        1.305        0.095      154.138       10.387        0.005      344.406       21.203      861.376
06/06/2013  01:48:00     -149.322      -34.020      -19.611       32.286       28.931       19.505     1042.401      837.006      380.462        1.305        0.113      153.148       16.702        0.012      344.382       21.161      861.369
06/06/2013  01:49:00     -152.202       -9.851      -17.170       43.043       37.082       27.152     1852.682     1375.060      737.229        1.376        0.198      152.520       20.027        0.017      344.412       21.212      861.376
06/06/2013  01:50:00     -192.326        5.977      -20.793       29.950       39.827       18.308      897.004     1586.151      335.198        2.014        0.141      192.419       19.529        0.010      344.473       21.316      861.376
06/06/2013  01:51:00     -132.821      -92.301       -5.490       44.994       38.512       26.876     2024.418     1483.161      722.312        1.521        0.211      161.743       20.010        0.015      344.395       21.182      861.377
06/06/2013  01:52:00     -138.423     -121.085        3.151       75.595       78.328       43.458     5714.648     6135.343     1888.623        2.378        0.687      183.909       45.261        0.061      344.383       21.160      861.389
06/06/2013  01:53:00     -165.676      -81.874        4.338       71.798       53.427       33.862     5154.898     2854.395     1146.632        2.166        0.458      184.802       31.041        0.028      344.459       21.290      861.375
06/06/2013  01:54:00     -127.591      -52.504       -2.418       49.326       57.590       33.738     2433.023     3316.606     1138.249        1.296        0.344      137.971       33.461        0.059      344.518       21.393      861.374
06/06/2013  01:55:00     -120.242      -26.222       -2.305       49.109       34.728       27.766     2411.709     1206.039      770.949        0.977        0.219      123.068       25.416        0.043      344.579       21.498      861.357
06/06/2013  01:56:00      -98.264      -20.938       -5.576       28.931       20.050       15.954      837.009      401.988      254.529        0.581        0.075      100.469       12.958        0.017      344.427       21.237      861.345
06/06/2013  01:57:00      -55.735      -31.942        5.860       39.127       27.707       17.487     1530.903      767.654      305.784        0.338        0.130       64.239       20.184        0.099      344.452       21.282      861.344
06/06/2013  01:58:00      -75.220      -70.667        2.002       44.925       28.799       26.339     2018.216      829.385      693.734        0.710        0.177      103.207       29.847        0.084      344.591       21.518      861.354
06/06/2013  01:59:00     -129.975      -60.794       -3.890       44.044       28.023       17.525     1939.904      785.313      307.138        1.182        0.152      143.490       20.135        0.020      344.480       21.327      861.373
06/06/2013  02:00:00     -136.065      -44.436       -1.030       26.544       21.628       16.094      704.582      467.779      259.029        1.096        0.072      143.137       14.949        0.011      344.377       21.154      861.384
06/06/2013  02:01:00      -64.955      -59.588        9.488       59.789       34.392       25.596     3574.675     1182.778      655.159        0.664        0.271       88.147       32.872        0.139      344.309       21.036      861.372
06/06/2013  02:02:00     -110.547     -108.613        5.503       50.409       47.640       31.085     2541.018     2269.559      966.290        1.491        0.289      154.976       28.221        0.033      344.399       21.191      861.356
06/06/2013  02:03:00     -148.443      -95.439       -2.992       45.307       31.482       26.905     2052.735      991.089      723.881        1.746        0.188      176.476       27.474        0.024      344.495       21.353      861.350
06/06/2013  02:04:00     -159.875      -56.387        2.647       39.300       35.837       20.321     1544.473     1284.325      412.961        1.599        0.162      169.528       20.557        0.015      344.409       21.207      861.371
06/06/2013  02:05:00     -159.805       -6.650      -13.150       49.085       39.337       23.407     2409.319     1547.426      547.902        1.513        0.225      159.943       26.744        0.028      344.119       20.712      861.381
06/06/2013  02:06:00     -117.846      -53.339      -21.899       41.057       36.441       20.511     1685.637     1327.934      420.683        1.032        0.172      129.355       14.209        0.012      344.134       20.738      861.380
06/06/2013  02:07:00      -14.856      -37.244        7.104       33.036       29.639       21.691     1091.397      878.491      470.483        0.205        0.122       40.098       14.851        0.137      344.187       20.828      861.365
06/06/2013  02:08:00     -100.614      -83.096       -0.231       54.465       34.549       24.171     2966.403     1193.652      584.245        1.089        0.237      130.492       25.680        0.039      344.665       21.646      861.355
06/06/2013  02:09:00     -100.494      -19.075       -2.112       39.496       37.896       24.731     1559.944     1436.141      611.602        0.704        0.180      102.289       19.821        0.038      344.310       21.038      861.366
06/06/2013  02:10:00     -113.156       -1.720      -11.193       35.215       33.178       25.381     1240.082     1100.776      644.210        0.796        0.149      113.170       22.042        0.038      343.895       20.330      861.362
06/06/2013  02:11:00      -46.687      -34.416        1.017       20.026       24.158       13.754      401.051      583.601      189.176        0.227        0.059       58.001        9.522        0.027      344.028       20.556      861.361
06/06/2013  02:12:00      -10.645      -21.472       14.602       24.056       17.116       11.848      578.672      292.949      140.371        0.090        0.051       23.966       10.818        0.204      344.070       20.627      861.364
06/06/2013  02:13:00       21.266       19.721       21.046       24.676       18.682       16.826      608.923      349.013      283.127        0.126        0.062       29.002       12.716        0.192      344.053       20.600      861.369
06/06/2013  02:14:00       25.828       70.132       84.970       48.553       43.663       25.513     2357.349     1906.435      650.901        0.886        0.246       74.737       22.410        0.090      344.116       20.706      861.376
06/06/2013  02:15:00       72.102       78.261       77.125       53.188       33.107       28.000     2828.988     1096.098      783.983        1.099        0.235      106.412       21.534        0.041      344.068       20.625      861.369
06/06/2013  02:16:00       68.438       40.962       38.599       44.935       51.203       34.198     2019.187     2621.710     1169.509        0.683        0.291       79.760       34.346        0.185      344.094       20.669      861.371
06/06/2013  02:17:00       39.801       12.301        3.998       51.520       22.483       16.811     2654.310      505.501      282.601        0.260        0.172       41.659       13.523        0.105      344.182       20.818      861.376
06/06/2013  02:18:00      -40.769       21.498       -8.256       19.321       15.785       13.293      373.285      249.175      176.705        0.150        0.040       46.089        7.889        0.029      343.945       20.415      861.400
06/06/2013  02:19:00      -39.391       60.500      -13.808       21.732       15.995       11.856      472.301      255.842      140.561        0.314        0.043       72.193       11.232        0.024      343.818       20.198      861.421
06/06/2013  02:20:00       27.488       44.834        0.925       21.043       15.474       11.663      442.793      239.441      136.034        0.179        0.041       52.590       10.196        0.038      344.056       20.605      861.411
06/06/2013  02:21:00       77.426       35.865        9.198       19.056       18.613       13.428      363.129      346.433      180.301        0.413        0.044       85.330        8.757        0.011      344.208       20.864      861.404
06/06/2013  02:22:00       42.978       -2.611       12.213       28.554       15.167       15.565      815.309      230.026      242.262        0.165        0.064       43.057        9.933        0.053      344.232       20.904      861.387
06/06/2013  02:23:00       12.295        8.220       14.815       20.368       18.111       13.478      414.841      328.007      181.669        0.068        0.046       14.790       15.821        1.144      344.178       20.814      861.375
06/06/2013  02:24:00      -22.925        1.477       13.408       24.982       11.437       15.556      624.094      130.798      241.992        0.085        0.050       22.973       18.349        0.638      344.158       20.778      861.388
06/06/2013  02:25:00      -77.401       26.482       -9.836       12.182        8.404        6.566      148.403       70.633       43.108        0.353        0.013       81.806        3.999        0.002      344.138       20.743      861.414
06/06/2013  02:26:00      -35.300        6.547      -10.305       19.018        9.917        7.938      361.695       98.341       63.016        0.096        0.026       35.902        8.513        0.056      343.917       20.368      861.437
06/06/2013  02:27:00       -9.218        4.562        1.234       12.643        6.297        8.732      159.844       39.654       76.248        0.019        0.014       10.285        9.230        0.805      343.957       20.435      861.430
06/06/2013  02:28:00        8.472      -21.505       -0.571       14.381        7.564        6.552      206.809       57.221       42.934        0.042        0.015       23.114        5.974        0.067      344.253       20.939      861.425
06/06/2013  02:29:00      -16.828      -17.281        6.330       12.424        7.095        9.050      154.348       50.341       81.894        0.045        0.014       24.121        8.525        0.125      344.345       21.099      861.423
06/06/2013  02:30:00      -59.872      -15.187       -7.195       15.507       13.062        9.132      240.481      170.627       83.401        0.218        0.025       61.768        5.460        0.008      344.463       21.298      861.425
06/06/2013  02:31:00      -66.323      -12.819       -5.204       16.405       18.006       12.849      269.139      324.204      165.089        0.267        0.038       67.551        8.737        0.017      344.111       20.699      861.426
06/06/2013  02:32:00       -0.713      -42.303       -3.668       24.241       12.363       11.212      587.640      152.844      125.698        0.133        0.043       42.309       11.511        0.074      344.065       20.619      861.413
06/06/2013  02:33:00       -4.006      -31.790        4.810       19.284       15.655       13.529      371.890      245.068      183.034        0.092        0.040       32.041        7.586        0.056      344.246       20.928      861.392
06/06/2013  02:34:00      -37.462      -22.867        0.787       21.802       19.782       12.395      475.316      391.336      153.627        0.147        0.051       43.889       11.034        0.063      344.223       20.889      861.395
06/06/2013  02:35:00      -21.828      -24.903        6.641       25.242       19.345       11.685      637.172      374.240      136.538        0.114        0.057       33.115       10.012        0.091      344.156       20.776      861.411
06/06/2013  02:36:00      -49.601      -31.732        3.353       35.321       20.473       20.200     1247.604      419.142      408.043        0.278        0.104       58.883       16.540        0.079      344.026       20.554      861.422
06/06/2013  02:37:00      -65.017      -44.300        6.922       38.431       32.155       23.200     1476.936     1033.936      538.257        0.464        0.152       78.675       22.307        0.080      343.976       20.467      861.422
06/06/2013  02:38:00      -32.143      -30.813        3.777       25.819       25.679       17.928      666.626      659.393      321.431        0.182        0.082       44.526       15.156        0.116      344.014       20.533      861.427
06/06/2013  02:39:00      -52.088      -45.113        3.459       26.714       25.759       19.771      713.651      663.551      390.880        0.326        0.088       68.908       15.334        0.050      343.984       20.482      861.433
06/06/2013  02:40:00      -43.850      -36.196        2.921       32.830       29.431       22.147     1077.807      866.205      490.481        0.284        0.122       56.860       12.068        0.045      344.074       20.635      861.435
06/06/2013  02:41:00       -5.693        4.963       12.572       25.930       15.200        8.921      672.342      231.045       79.578        0.060        0.049        7.553        5.114        0.459      343.952       20.427      861.438
06/06/2013  02:42:00      -12.985      -16.576        0.750       22.096       18.937       12.561      488.237      358.618      157.770        0.072        0.050       21.057        6.586        0.098      344.107       20.690      861.448
06/06/2013  02:43:00       -5.216       11.947        6.278       14.428       18.487       12.973      208.153      341.782      168.286        0.046        0.036       13.036        8.974        0.474      344.060       20.611      861.446
06/06/2013  02:44:00       -4.433       33.167       -2.435       12.198       15.908        7.096      148.781      253.070       50.359        0.079        0.023       33.462        3.381        0.010      344.126       20.724      861.446
06/06/2013  02:45:00      -35.792      -17.663       -6.678       22.710       13.818        9.918      515.730      190.935       98.365        0.122        0.040       39.913        7.737        0.038      344.113       20.701      861.443
06/06/2013  02:46:00      -60.044      -26.647       -4.965       10.904       10.241        8.894      118.900      104.868       79.103        0.232        0.015       65.691        6.202        0.009      344.012       20.529      861.442
06/06/2013  02:47:00      -32.372      -30.219        1.927       32.298       18.283       11.033     1043.140      334.276      121.718        0.173        0.075       44.285       10.140        0.052      343.838       20.232      861.433
06/06/2013  02:48:00      -55.470      -30.325       -2.534       31.153       16.115       13.165      970.512      259.702      173.312        0.270        0.070       63.218       12.203        0.037      343.797       20.162      861.429
06/06/2013  02:49:00      -59.802      -37.497        4.623       30.830       22.463       16.957      950.513      504.570      287.555        0.337        0.087       70.586       15.465        0.048      343.802       20.171      861.435
06/06/2013  02:50:00     -109.052      -34.086       -3.830       19.064       25.588       11.962      363.441      654.769      143.082        0.711        0.058      114.255        7.307        0.004      343.907       20.350      861.435
06/06/2013  02:51:00     -117.081      -18.903       -6.501       24.418       22.314       15.294      596.215      497.919      233.897        0.772        0.066      118.597       12.952        0.012      343.789       20.148      861.434
06/06/2013  02:52:00     -113.886        1.371       -8.285       29.404       19.779       15.139      864.598      391.200      229.190        0.726        0.074      113.894       16.392        0.021      343.625       19.867      861.443
06/06/2013  02:53:00     -109.950      -37.756      -16.695       14.106       13.724        9.808      198.984      188.362       96.188        0.714        0.024      116.253        3.699        0.001      343.837       20.230      861.445
06/06/2013  02:54:00      -77.316      -45.273       -6.380       17.128       12.005       12.203      293.379      144.115      148.905        0.433        0.029       89.596       11.574        0.017      343.846       20.246      861.440
06/06/2013  02:55:00      -84.937      -51.099       -7.426       17.810       15.719        9.703      317.185      247.102       94.139        0.527        0.033       99.123        8.832        0.008      343.849       20.251      861.446
06/06/2013  02:56:00      -92.565      -31.388       -9.227        9.101        9.864        7.523       82.831       97.301       56.590        0.494        0.012       97.742        3.993        0.002      343.762       20.101      861.452
06/06/2013  02:57:00     -100.200      -26.515       -6.762       17.813       23.024       13.677      317.301      530.120      187.047        0.591        0.052      103.649        9.372        0.008      343.650       19.911      861.441
06/06/2013  02:58:00      -53.890      -35.295        4.189       31.958       19.161       14.484     1021.323      367.142      209.788        0.288        0.080       64.420       14.250        0.049      343.533       19.711      861.435
06/06/2013  02:59:00      -58.236      -52.436        4.961       29.791       28.473       18.402      887.515      810.738      338.642        0.410        0.102       78.365       13.830        0.031      343.733       20.053      861.431
06/06/2013  03:00:00     -105.782      -56.546       -4.161       41.930       53.696       22.739     1758.104     2883.210      517.042        0.978        0.258      119.947       24.600        0.042      343.830       20.220      861.426
06/06/2013  03:01:00      -51.267      -10.954        3.637       21.103       26.871       19.419      445.354      722.060      377.096        0.215        0.077       52.424       15.436        0.087      343.634       19.884      861.421
06/06/2013  03:02:00      -77.523       30.534       -4.581       26.605       20.406       11.230      707.812      416.391      126.118        0.411        0.063       83.319        3.748        0.002      343.387       19.463      861.423
06/06/2013  03:03:00      -95.937      -15.351       -3.169       31.964       24.621       12.876     1021.683      606.182      165.791        0.562        0.090       97.158       12.839        0.017      343.339       19.381      861.428
06/06/2013  03:04:00     -104.460      -50.414        1.926       33.271       31.847       17.816     1106.936     1014.247      317.414        0.795        0.122      115.989       14.692        0.016      343.275       19.271      861.429
06/06/2013  03:05:00      -97.063      -21.898       -1.317       28.846       23.964       17.014      832.113      574.263      289.482        0.580        0.085       99.503       13.225        0.018      343.327       19.362      861.430
06/06/2013  03:06:00     -102.046       18.247       -7.015       31.850       24.201       16.716     1014.433      585.701      279.412        0.634        0.094      103.664       16.963        0.027      343.121       19.011      861.442
06/06/2013  03:07:00     -101.114        5.729      -10.763       29.232       19.725       13.683      854.487      389.061      187.218        0.590        0.072      101.277       10.948        0.012      343.159       19.075      861.457
06/06/2013  03:08:00      -81.461      -17.260        0.617       29.411       26.368       20.663      864.979      695.277      426.968        0.446        0.099       83.269       17.159        0.042      343.122       19.012      861.458
06/06/2013  03:09:00      -95.920      -18.978        2.738       31.183       27.543       22.168      972.400      758.600      491.441        0.589        0.111       97.779       18.345        0.035      343.134       19.033      861.463
06/06/2013  03:10:00      -42.275      -10.270        6.285       34.325       24.962       14.761     1178.177      623.107      217.875        0.198        0.101       43.504       14.097        0.105      343.106       18.983      861.465
06/06/2013  03:11:00      -52.485        4.615        2.005       31.736       24.107       17.318     1007.172      581.129      299.908        0.233        0.094       52.687       17.542        0.111      343.133       19.031      861.470
06/06/2013  03:12:00      -65.971      -15.256       -4.964       16.399       24.737       13.659      268.924      611.921      186.557        0.284        0.053       67.712       10.876        0.026      343.177       19.105      861.459
06/06/2013  03:13:00      -71.742      -35.310       -2.620       27.046       26.461       14.831      731.494      700.204      219.965        0.403        0.083       79.961       14.961        0.035      343.223       19.184      861.449
06/06/2013  03:14:00     -115.094      -53.642        2.081       25.117       18.080       15.356      630.861      326.896      235.814        0.866        0.060      126.980       13.277        0.011      343.226       19.189      861.449
06/06/2013  03:15:00     -143.172      -58.280        0.284       26.972       24.499       14.804      727.491      600.214      219.169        1.272        0.077      154.579       13.575        0.008      343.263       19.252      861.441
06/06/2013  03:16:00     -143.072      -64.554       -0.538       25.757       20.255       13.024      663.403      410.284      169.626        1.294        0.062      156.962        9.997        0.004      343.284       19.286      861.420
06/06/2013  03:17:00     -144.558      -37.499       -3.492       19.953       29.019       12.680      398.141      842.127      160.790        1.186        0.070      149.342       10.810        0.005      343.193       19.132      861.423
06/06/2013  03:18:00      -81.700      -10.907        2.451       38.858       36.339       20.495     1509.977     1320.489      420.047        0.502        0.163       82.425       18.668        0.051      343.082       18.944      861.420
06/06/2013  03:19:00      -75.404      -16.533        5.250       35.346       25.916       19.924     1249.305      671.615      396.957        0.415        0.116       77.195       18.943        0.060      343.055       18.898      861.408
06/06/2013  03:20:00      -70.211      -18.696        5.758       36.366       21.775       15.427     1322.465      474.153      237.998        0.367        0.102       72.657       15.904        0.048      343.098       18.970      861.426
06/06/2013  03:21:00      -93.234      -30.396        4.175       36.443       31.606       16.503     1328.113      998.926      272.357        0.612        0.130       98.064       17.738        0.033      343.092       18.960      861.430
06/06/2013  03:22:00     -128.998      -55.578       -6.452       20.617       12.567        9.874      425.044      157.926       97.501        1.023        0.034      140.461       10.344        0.005      343.055       18.896      861.430
06/06/2013  03:23:00     -115.604      -70.535       -4.147       24.345       17.718       13.525      592.686      313.916      182.915        0.972        0.054      135.423       10.250        0.006      343.077       18.936      861.425
06/06/2013  03:24:00      -84.835      -49.710        4.075       35.564       23.118       19.536     1264.819      534.430      381.667        0.593        0.109       98.327       16.702        0.029      343.125       19.017      861.435
06/06/2013  03:25:00     -104.484      -46.560        0.992       35.848       21.748       16.490     1285.098      472.966      271.927        0.756        0.101      114.388       18.234        0.025      343.041       18.874      861.438
06/06/2013  03:26:00     -138.882      -33.220       -5.919       23.956       18.586       20.368      573.884      345.456      414.875        1.088        0.067      142.799       16.009        0.013      343.004       18.810      861.436
06/06/2013  03:27:00     -128.405      -48.193       -4.791       16.090       18.716       12.286      258.897      350.301      150.952        0.980        0.038      137.151        7.902        0.003      343.007       18.814      861.455
06/06/2013  03:28:00      -96.868      -46.106        2.822       32.019       26.219       17.239     1025.234      687.420      297.183        0.676        0.100      107.281       10.109        0.009      342.972       18.754      861.464
06/06/2013  03:29:00      -78.289      -60.938        0.404       39.660       31.423       21.687     1572.911      987.388      470.329        0.644        0.152       99.210       23.923        0.058      342.976       18.763      861.464
06/06/2013  03:30:00     -106.024      -50.263       -0.495       43.665       23.561       21.437     1906.628      555.137      459.562        0.834        0.146      117.335       21.115        0.032      342.902       18.637      861.475
06/06/2013  03:31:00     -134.951      -50.164       -4.121       23.008       24.333       14.748      529.375      592.075      217.503        1.104        0.067      143.973       12.366        0.007      342.909       18.648      861.472
06/06/2013  03:32:00      -96.584      -55.968        2.076       38.739       28.906       22.658     1500.673      835.580      513.382        0.766        0.142      111.628       20.205        0.033      342.883       18.604      861.459
06/06/2013  03:33:00     -116.130      -64.156        1.172       36.592       26.533       20.149     1338.988      704.003      405.977        1.003        0.122      132.673       16.319        0.015      342.942       18.704      861.461
06/06/2013  03:34:00     -128.294      -63.597       -5.338       30.400       22.201       19.692      924.154      492.894      387.789        1.117        0.090      143.192       18.352        0.016      342.880       18.598      861.454
06/06/2013  03:35:00     -144.380      -65.755      -10.781       19.517       28.494       17.406      380.910      811.927      302.961        1.339        0.075      158.648       10.870        0.005      342.801       18.465      861.449
06/06/2013  03:36:00     -134.647      -39.529       -8.923       29.206       28.367       18.658      852.988      804.696      348.134        1.089        0.100      140.330       15.234        0.012      342.793       18.451      861.466
06/06/2013  03:37:00     -131.234      -37.385       -8.264       28.181       29.909       17.937      794.144      894.543      321.721        1.035        0.101      136.456       12.330        0.008      342.774       18.420      861.459
06/06/2013  03:38:00     -141.739      -29.985       -4.899       19.516       25.821       16.034      380.876      666.746      257.104        1.116        0.065      144.876       11.271        0.006      342.693       18.280      861.459
06/06/2013  03:39:00     -114.839      -34.168       -4.087       25.998       18.498       19.833      675.883      342.178      393.340        0.789        0.071      119.814       17.572        0.022      342.605       18.131      861.462
06/06/2013  03:40:00      -99.005      -16.412       -6.341       37.175       26.981       20.053     1381.968      727.974      402.107        0.631        0.126      100.356       15.535        0.024      342.562       18.059      861.453
06/06/2013  03:41:00     -169.119       16.010      -14.837       43.111       23.126       19.999     1858.551      534.810      399.967        1.593        0.140      169.875       23.700        0.019      342.835       18.522      861.458
06/06/2013  03:42:00     -200.320       19.634      -12.793       24.308       24.024       17.689      590.889      577.145      312.897        2.108        0.074      201.280       14.717        0.005      342.969       18.750      861.469
06/06/2013  03:43:00     -208.691       -4.876      -17.625       31.276       35.017       25.635      978.171     1226.203      657.146        2.337        0.143      208.748       21.014        0.010      342.902       18.635      861.461
06/06/2013  03:44:00     -189.961      -15.081      -11.172       65.282       42.929       35.857     4261.747     1842.916     1285.758        2.191        0.370      190.559       37.340        0.038      342.850       18.544      861.463
06/06/2013  03:45:00     -237.283      -16.000      -25.500       40.063       31.419       25.007     1605.034      987.137      625.333        3.021        0.161      237.822       22.029        0.009      342.970       18.749      861.464
06/06/2013  03:46:00     -207.172      -19.087      -24.165       34.894       34.605       22.888     1217.569     1197.504      523.844        2.340        0.147      208.049       19.442        0.009      342.936       18.691      861.448
06/06/2013  03:47:00     -214.454       12.200      -20.104       32.677       25.990       21.897     1067.772      675.484      479.458        2.438        0.111      214.801       19.453        0.008      342.944       18.705      861.450
06/06/2013  03:48:00     -226.565       14.135      -24.890       47.655       40.696       22.954     2271.027     1656.175      526.908        2.830        0.223      227.005       20.840        0.008      343.024       18.842      861.444
06/06/2013  03:49:00     -229.837      -33.364      -29.030       55.815       41.039       29.508     3115.268     1684.215      870.740        3.022        0.284      232.246       31.772        0.019      343.083       18.941      861.436
06/06/2013  03:50:00     -229.829      -16.397      -28.339       52.183       42.452       32.917     2723.101     1802.196     1083.509        2.975        0.280      230.413       31.198        0.018      343.018       18.831      861.440
06/06/2013  03:51:00     -221.621      -18.420      -29.356       56.842       43.383       26.104     3231.035     1882.079      681.399        2.805        0.290      222.385       25.946        0.014      343.041       18.870      861.432
06/06/2013  03:52:00     -210.225        2.836      -24.062       47.318       41.953       23.411     2238.977     1760.054      548.078        2.466        0.227      210.245       17.626        0.007      343.182       19.110      861.445
06/06/2013  03:53:00     -181.712       23.240      -20.426       45.916       62.196       30.922     2108.307     3868.358      956.180        2.045        0.347      183.192       25.409        0.019      343.260       19.245      861.452
06/06/2013  03:54:00     -152.861       -2.066      -10.536       43.219       66.207       37.433     1867.909     4383.309     1401.257        1.557        0.383      152.875       28.277        0.034      343.344       19.389      861.462
06/06/2013  03:55:00     -176.702      -17.382      -12.070       51.565       47.909       29.411     2658.910     2295.319      865.019        1.874        0.291      177.555       27.242        0.024      343.466       19.595      861.462
06/06/2013  03:56:00     -162.367      -12.155       -7.208       65.151       58.506       35.067     4244.657     3422.904     1229.726        1.773        0.445      162.822       34.182        0.044      343.437       19.546      861.469
06/06/2013  03:57:00     -162.556      -22.233       -9.544       68.771       51.325       38.655     4729.455     2634.280     1494.227        1.793        0.443      164.070       33.940        0.043      343.422       19.520      861.472
06/06/2013  03:58:00     -199.566      -33.143      -22.546       42.418       37.788       27.753     1799.248     1427.921      770.252        2.271        0.200      202.299       21.044        0.011      343.481       19.621      861.480
06/06/2013  03:59:00     -176.926      -26.463      -13.635       68.164       60.082       42.638     4646.338     3609.874     1818.023        2.113        0.504      178.894       38.932        0.047      343.502       19.656      861.491
06/06/2013  04:00:00     -147.490      -53.155       -5.051       52.143       35.637       26.221     2718.891     1270.005      687.532        1.464        0.234      156.776       19.108        0.015      343.440       19.554      861.492
06/06/2013  04:01:00     -212.283      -23.293      -25.832       54.820       48.918       32.442     3005.234     2393.014     1052.515        2.636        0.323      213.558       31.818        0.022      343.479       19.618      861.500
06/06/2013  04:02:00     -186.873       19.575      -25.327       39.088       43.275       30.358     1527.843     1872.705      921.617        2.013        0.216      187.896       23.995        0.016      343.594       19.814      861.497
06/06/2013  04:03:00     -115.402      -20.317      -11.380       26.260       32.439       15.338      689.603     1052.308      235.262        0.792        0.099      117.177       14.545        0.015      343.538       19.719      861.508
06/06/2013  04:04:00     -125.992      -40.464       -9.502       35.959       25.960       18.059     1293.078      673.947      326.119        0.995        0.115      132.330       12.131        0.008      343.476       19.613      861.508
06/06/2013  04:05:00     -132.258      -38.136       -8.563       35.336       33.144       22.528     1248.621     1098.557      507.506        1.094        0.143      137.646       13.899        0.010      343.545       19.733      861.521
06/06/2013  04:06:00     -160.140      -30.229      -14.431       52.064       32.511       22.447     2710.610     1056.946      503.885        1.552        0.214      162.968       18.925        0.013      343.438       19.549      861.529
06/06/2013  04:07:00     -175.796      -63.774      -16.514       45.907       31.448       28.510     2107.430      988.960      812.806        1.958        0.195      187.006       21.799        0.014      343.351       19.400      861.536
06/06/2013  04:08:00     -146.381      -38.401       -9.711       33.623       41.832       26.539     1130.484     1749.893      704.323        1.329        0.179      151.334       15.901        0.011      343.298       19.311      861.547
06/06/2013  04:09:00     -173.856      -56.533      -24.041       68.354       40.464       37.794     4672.246     1637.315     1428.375        2.087        0.387      182.817       37.146        0.041      343.258       19.239      861.544
06/06/2013  04:10:00     -164.978      -48.657       -0.431       65.128       50.854       33.194     4241.702     2586.143     1101.818        1.876        0.396      172.003       36.414        0.045      343.237       19.206      861.558
06/06/2013  04:11:00     -205.509      -28.401      -22.674       68.416       39.028       32.747     4680.796     1523.156     1072.366        2.541        0.364      207.463       32.417        0.024      343.300       19.311      861.556
06/06/2013  04:12:00     -195.146       -3.165      -22.224       63.925       48.819       33.977     4086.388     2383.250     1154.406        2.310        0.381      195.171       27.081        0.019      343.443       19.557      861.566
06/06/2013  04:13:00     -144.661       34.933      -11.033       50.671       39.798       24.331     2567.517     1583.871      592.010        1.351        0.237      148.819       11.227        0.006      343.412       19.503      861.579
06/06/2013  04:14:00     -148.125       38.524      -15.380       42.657       29.961       26.460     1819.579      897.675      700.113        1.354        0.171      153.053       25.118        0.027      343.387       19.462      861.577
06/06/2013  04:15:00     -166.394      -31.619      -20.241       41.870       28.725       23.210     1753.099      825.110      538.709        1.611        0.156      169.371       21.435        0.016      343.301       19.317      861.571
06/06/2013  04:16:00     -110.629      -27.138       -8.043       35.499       34.092       24.049     1260.176     1162.277      578.352        0.802        0.150      113.909       15.545        0.019      343.121       19.011      861.579
06/06/2013  04:17:00      -64.791      -26.625       -4.651       40.170       29.519       18.079     1613.665      871.394      326.855        0.387        0.141       70.049       15.485        0.049      343.098       18.971      861.573
06/06/2013  04:18:00      -71.283      -45.663        4.073       45.521       31.307       23.146     2072.201      980.143      535.734        0.538        0.179       84.654       18.789        0.049      343.048       18.886      861.576
06/06/2013  04:19:00      -77.622      -37.770       -2.071       42.901       36.418       20.083     1840.460     1326.274      403.322        0.551        0.179       86.324       16.973        0.039      343.031       18.857      861.581
06/06/2013  04:20:00      -52.939       34.524       -6.744       27.979       26.116       14.073      782.816      682.046      198.054        0.285        0.083       63.202       15.132        0.057      342.962       18.741      861.588
06/06/2013  04:21:00      -81.940       21.706       -4.962       26.105       17.908       12.762      681.481      320.711      162.875        0.419        0.058       84.766        7.593        0.008      342.897       18.627      861.578
06/06/2013  04:22:00      -88.518        9.428      -14.837       29.095       23.971       18.881      846.499      574.592      356.477        0.496        0.089       89.018       18.527        0.043      342.864       18.572      861.573
06/06/2013  04:23:00      -86.865      -35.306       -9.828       46.861       31.679       19.206     2195.991     1003.536      368.868        0.623        0.178       93.766       11.064        0.014      342.974       18.758      861.595
06/06/2013  04:24:00      -36.097      -33.927        7.241       42.543       27.522       25.842     1809.869      757.446      667.810        0.287        0.162       49.538       23.424        0.224      342.857       18.560      861.620
06/06/2013  04:25:00      -76.173      -69.892       -4.231       43.266       32.944       22.594     1871.964     1085.340      510.481        0.709        0.173      103.379       24.427        0.056      343.060       18.906      861.619
06/06/2013  04:26:00      -76.458      -44.427       -4.126       27.651       21.954       14.173      764.593      481.985      200.873        0.464        0.072       88.428       10.257        0.013      343.086       18.948      861.607
06/06/2013  04:27:00      -72.512      -38.385        1.926       30.649       24.929       14.214      939.359      621.434      202.049        0.425        0.088       82.045       14.257        0.030      342.943       18.706      861.604
06/06/2013  04:28:00      -57.254      -31.806        0.235       23.825       14.555       12.985      567.629      211.854      168.614        0.262        0.047       65.496        4.211        0.004      342.929       18.683      861.606
06/06/2013  04:29:00      -71.019       -7.961       -3.739       30.918       21.801       13.500      955.915      475.263      182.246        0.337        0.081       71.464       14.387        0.041      342.940       18.701      861.600
06/06/2013  04:30:00      -80.932        3.054       -4.732       29.085       20.225       14.339      845.943      409.065      205.603        0.402        0.073       80.989       13.341        0.027      342.686       18.268      861.599
06/06/2013  04:31:00      -93.634       -7.145       -2.204       27.275       20.893       14.121      743.936      436.504      199.391        0.510        0.069       93.907       12.856        0.019      342.667       18.237      861.606
06/06/2013  04:32:00     -111.224        2.064       -9.660       20.420       20.205       11.244      416.979      408.251      126.422        0.671        0.048      111.243       10.281        0.009      342.794       18.452      861.615
06/06/2013  04:33:00      -62.026       -2.881       -2.734       27.883       18.289       14.255      777.481      334.504      203.211        0.259        0.066       62.093        9.186        0.022      342.743       18.366      861.622
06/06/2013  04:34:00      -73.342      -38.663       -1.422       19.594       22.011       15.829      383.937      484.484      250.555        0.400        0.056       82.909       12.635        0.023      342.708       18.306      861.631
06/06/2013  04:35:00      -81.669      -28.137       -7.136       20.294       14.536       11.868      411.839      211.295      140.843        0.414        0.038       86.380        7.015        0.007      342.698       18.289      861.631
06/06/2013  04:36:00      -97.250      -32.439       -7.544       12.298       15.727        7.704      151.246      247.337       59.358        0.551        0.023      102.517        7.163        0.005      342.636       18.185      861.633
06/06/2013  04:37:00      -93.569      -38.106       -7.139       19.784       21.037       12.390      391.411      442.538      153.514        0.562        0.049      101.031        8.708        0.007      342.560       18.053      861.638
06/06/2013  04:38:00      -68.778      -40.599       -4.177       17.060       16.908       12.223      291.036      285.887      149.404        0.356        0.036       79.866        5.410        0.005      342.502       17.956      861.642
06/06/2013  04:39:00      -11.120      -19.901       16.805       18.935       18.524       17.508      358.526      343.156      306.536        0.090        0.050       22.797       10.893        0.228      342.513       17.974      861.654
06/06/2013  04:40:00      -62.384      -36.189       -1.469       24.318       20.108       15.968      591.373      404.338      254.976        0.323        0.063       72.120       14.557        0.041      342.477       17.914      861.666
06/06/2013  04:41:00     -124.190      -13.756      -11.001       18.055       16.651       11.926      325.981      277.269      142.230        0.824        0.037      124.950        6.441        0.003      342.465       17.894      861.671
06/06/2013  04:42:00     -104.825      -29.048       -8.939       25.018       18.956       14.047      625.883      359.312      197.317        0.655        0.059      108.775       12.901        0.014      342.380       17.749      861.685
06/06/2013  04:43:00      -90.343      -35.425       -3.483       30.486       22.136       12.982      929.368      489.992      168.522        0.551        0.079       97.041       10.645        0.012      342.379       17.747      861.698
06/06/2013  04:44:00      -89.116      -23.290        0.193       24.845       18.102       14.569      617.270      327.694      212.269        0.482        0.058       92.109       14.144        0.024      342.414       17.805      861.703
06/06/2013  04:45:00      -62.701      -39.109        6.194       27.085       20.801       19.047      733.608      432.689      362.770        0.351        0.076       73.899       16.820        0.052      342.571       18.073      861.706
06/06/2013  04:46:00      -75.942      -60.390       -0.494       23.435       18.296       11.921      549.218      334.750      142.120        0.522        0.051       97.026        9.981        0.011      342.565       18.065      861.714
06/06/2013  04:47:00      -40.101      -34.515        3.092       42.069       23.034       17.735     1769.781      530.543      314.535        0.271        0.131       52.909       13.775        0.068      342.541       18.024      861.715
06/06/2013  04:48:00      -73.991      -48.299        8.034       46.590       36.784       24.592     2170.585     1353.059      604.763        0.600        0.206       88.360       26.304        0.089      342.576       18.083      861.706
06/06/2013  04:49:00     -103.809      -61.186        4.701       52.811       37.775       24.684     2788.970     1426.949      609.291        0.968        0.241      120.499       29.461        0.060      342.634       18.181      861.706
06/06/2013  04:50:00     -106.337      -87.073       -0.556       41.848       31.850       23.888     1751.270     1014.402      570.624        1.111        0.167      137.438       24.799        0.033      342.677       18.254      861.709
06/06/2013  04:51:00     -103.079      -84.450       -8.813       37.591       35.633       17.320     1413.075     1269.683      299.990        1.041        0.149      133.255       14.852        0.012      342.704       18.299      861.711
06/06/2013  04:52:00     -105.512      -59.527       -1.690       32.402       32.476       18.012     1049.897     1054.721      324.443        0.855        0.121      121.146       18.275        0.023      342.696       18.286      861.712
06/06/2013  04:53:00      -84.323      -66.421        2.061       37.747       29.404       17.890     1424.852      864.611      320.054        0.707        0.130      107.342       15.802        0.022      342.642       18.195      861.707
06/06/2013  04:54:00      -73.058      -55.682        0.439       35.945       31.795       21.123     1292.020     1010.952      446.177        0.559        0.137       91.858       11.679        0.016      342.665       18.233      861.702
06/06/2013  04:55:00      -83.868      -52.474       -3.236       24.917       23.526       18.452      620.866      553.481      340.486        0.566        0.076       98.931       11.244        0.013      342.613       18.143      861.708
06/06/2013  04:56:00      -70.704      -76.068        4.088       37.420       32.276       20.805     1400.242     1041.729      432.862        0.684        0.144      103.853       16.597        0.026      342.622       18.160      861.718
06/06/2013  04:57:00     -112.712      -72.525       -3.749       28.681       22.038       16.940      822.572      485.687      286.974        0.979        0.080      134.029       15.998        0.014      342.596       18.116      861.723
06/06/2013  04:58:00     -106.882      -46.810        0.769       45.564       20.391       15.372     2076.046      415.793      236.291        0.817        0.136      116.683       20.489        0.031      342.562       18.059      861.724
06/06/2013  04:59:00     -149.457      -56.063       -5.127       21.053       27.403       13.426      443.240      750.924      180.247        1.344        0.069      159.626        9.307        0.003      342.511       17.973      861.724
06/06/2013  05:00:00     -136.464      -49.213      -10.033       26.794       25.074       18.610      717.918      628.681      346.324        1.142        0.085      145.067       15.942        0.012      342.331       17.665      861.738
06/06/2013  05:01:00     -125.520      -60.014        1.329       29.308       29.778       15.925      858.957      886.723      253.596        1.068        0.100      139.130       16.243        0.014      342.341       17.684      861.741
06/06/2013  05:02:00     -140.643      -60.414       -2.066       29.835       21.979       15.870      890.146      483.062      251.856        1.253        0.081      153.070       12.551        0.007      342.413       17.805      861.730
06/06/2013  05:03:00     -119.459      -37.275       -0.160       37.657       30.065       19.838     1418.015      903.921      393.539        0.919        0.136      125.139       22.756        0.033      342.325       17.655      861.716
06/06/2013  05:04:00     -108.583      -58.847       -3.194       25.500       30.747       17.818      650.247      945.393      317.492        0.859        0.096      123.504       15.303        0.015      342.358       17.713      861.718
06/06/2013  05:05:00      -83.235      -66.431       -0.900       53.244       45.124       27.515     2834.913     2036.138      757.050        0.848        0.281      106.495       24.122        0.051      342.390       17.765      861.718
06/06/2013  05:06:00     -104.312      -64.403        4.092       66.151       57.093       32.437     4375.978     3259.586     1052.144        1.186        0.434      122.592       34.891        0.081      342.391       17.766      861.725
06/06/2013  05:07:00     -122.670     -102.982        1.406       55.911       47.689       27.786     3126.054     2274.281      772.039        1.591        0.309      160.166       25.526        0.025      342.430       17.832      861.728
06/06/2013  05:08:00     -114.017      -87.419       -2.949       52.917       35.831       25.749     2800.231     1283.869      663.023        1.270        0.237      143.673       26.420        0.034      342.437       17.846      861.740
06/06/2013  05:09:00      -58.575      -51.027        3.974       44.253       41.568       22.588     1958.293     1727.867      510.210        0.512        0.210       77.684       20.618        0.070      342.419       17.816      861.761
06/06/2013  05:10:00      -70.813      -66.325       -4.175       40.094       44.291       25.193     1607.508     1961.670      634.702        0.682        0.210       97.023       19.092        0.039      342.419       17.815      861.770
06/06/2013  05:11:00     -108.426      -70.347       -7.816       27.729       35.852       24.180      768.906     1285.352      584.685        0.970        0.132      129.247       13.570        0.011      342.406       17.793      861.776
06/06/2013  05:12:00      -61.196      -43.600        4.657       40.332       35.484       24.687     1626.697     1259.112      609.431        0.458        0.175       75.140       23.739        0.100      342.332       17.668      861.784
06/06/2013  05:13:00      -82.183      -49.246        4.242       33.602       26.060       24.941     1129.082      679.120      622.032        0.581        0.122       95.808       20.573        0.046      342.354       17.706      861.797
06/06/2013  05:14:00      -76.317      -78.273       -1.989       33.041       40.015       25.730     1091.704     1601.193      662.007        0.765        0.168      109.320       15.537        0.020      342.329       17.661      861.798
06/06/2013  05:15:00     -116.166     -101.792       -8.974       34.882       38.158       26.736     1216.723     1455.996      714.791        1.366        0.169      154.454       22.430        0.021      342.258       17.543      861.801
06/06/2013  05:16:00      -26.416      -55.230       11.914       49.658       37.493       29.794     2465.869     1405.696      887.707        0.432        0.238       61.222       27.158        0.197      342.249       17.527      861.816
06/06/2013  05:17:00      -48.383      -48.044       -2.304       53.249       46.369       30.975     2835.436     2150.098      959.438        0.530        0.297       68.184       14.687        0.046      342.304       17.620      861.834
06/06/2013  05:18:00      -50.614      -47.375        6.190       65.028       50.375       30.272     4228.578     2537.645      916.367        0.626        0.384       69.327       24.968        0.130      342.277       17.574      861.846
06/06/2013  05:19:00      -32.936      -39.356       16.050       69.629       41.715       29.458     4848.191     1740.179      867.800        0.517        0.373       51.320       35.021        0.466      342.244       17.517      861.858
06/06/2013  05:20:00      -46.617      -75.605       12.223       60.938       40.065       30.348     3713.444     1605.243      921.012        0.714        0.312       88.822       25.567        0.083      342.232       17.498      861.870
06/06/2013  05:21:00      -36.206      -39.858       17.589       51.813       42.482       30.234     2684.586     1804.690      914.122        0.431        0.270       53.847       20.705        0.148      342.207       17.456      861.868
06/06/2013  05:22:00      -86.180      -45.958        3.316       62.396       50.006       28.405     3893.229     2500.618      806.861        0.837        0.360       97.668       25.662        0.069      342.197       17.437      861.863
06/06/2013  05:23:00     -127.675      -75.212       -0.949       60.155       41.169       33.569     3618.653     1694.852     1126.891        1.420        0.322      148.181       31.921        0.046      342.208       17.457      861.880
06/06/2013  05:24:00     -117.640      -73.415       -4.580       51.347       51.418       28.484     2636.549     2643.862      811.348        1.267        0.305      138.669       27.783        0.040      342.202       17.449      861.879
06/06/2013  05:25:00     -105.908      -61.604       -0.385       49.035       44.886       27.019     2404.413     2014.762      730.041        1.008        0.257      122.522       28.850        0.055      342.177       17.404      861.871
06/06/2013  05:26:00      -50.706      -45.323       14.880       48.498       38.304       28.951     2352.008     1467.234      838.168        0.475        0.233       68.009       26.096        0.147      342.165       17.383      861.873
06/06/2013  05:27:00      -53.517      -48.182       16.885       63.026       46.580       31.677     3972.216     2169.703     1003.440        0.631        0.357       72.011       28.741        0.159      342.186       17.420      861.883
06/06/2013  05:28:00      -41.543      -46.310       10.231       50.684       43.613       28.744     2568.900     1902.118      826.191        0.464        0.265       62.213       25.994        0.175      342.162       17.378      861.880
06/06/2013  05:29:00      -67.198      -51.696        3.394       66.273       35.924       30.229     4392.166     1290.530      913.791        0.690        0.330       84.783       28.951        0.117      342.144       17.347      861.884
06/06/2013  05:30:00      -62.145      -68.932        9.481       74.111       62.860       30.631     5492.373     3951.382      938.271        0.954        0.519       92.810       33.694        0.132      342.187       17.421      861.899
06/06/2013  05:31:00     -105.178      -83.390        0.978       68.480       50.291       29.585     4689.520     2529.196      875.245        1.305        0.405      134.225       24.727        0.034      342.156       17.368      861.892
06/06/2013  05:32:00      -92.349      -57.266        3.525       59.813       48.722       24.718     3577.583     2373.851      610.974        0.919        0.328      108.664       28.541        0.069      342.124       17.314      861.893
06/06/2013  05:33:00     -123.178      -93.454       -6.081       45.540       41.173       29.876     2073.904     1695.224      892.559        1.430        0.233      154.617       18.215        0.014      342.171       17.394      861.898
06/06/2013  05:34:00     -101.067      -61.939        7.609       93.212       52.983       34.260     8688.438     2807.242     1173.762        1.339        0.633      118.536       41.336        0.122      342.161       17.376      861.892
06/06/2013  05:35:00     -133.786      -90.711        1.752       67.520       56.944       35.696     4558.981     3242.593     1274.196        1.760        0.454      161.639       30.857        0.036      342.136       17.332      861.892
06/06/2013  05:36:00     -142.544     -105.971       -5.636       65.172       61.680       39.678     4247.378     3804.362     1574.372        2.060        0.481      177.619       34.742        0.038      342.127       17.317      861.898
06/06/2013  05:37:00     -113.075      -99.408       14.657      100.151       59.514       46.553    10030.163     3541.860     2167.142        1.931        0.787      150.558       53.742        0.127      342.073       17.226      861.894
06/06/2013  05:38:00     -174.401     -142.512        0.915       65.299       55.014       39.840     4263.957     3026.510     1587.208        2.980        0.444      225.223       38.683        0.029      342.078       17.231      861.890
06/06/2013  05:39:00     -166.613     -103.231       -2.314       70.630       58.984       41.285     4988.665     3479.061     1704.464        2.430        0.509      196.002       38.628        0.039      342.054       17.192      861.904
06/06/2013  05:40:00     -142.389      -79.753        7.245       84.426       63.274       42.432     7127.734     4003.593     1800.453        1.981        0.647      163.203       46.697        0.082      342.008       17.115      861.911
06/06/2013  05:41:00     -160.617      -56.328        2.358       78.089       58.940       35.507     6097.905     3473.943     1260.770        1.990        0.542      170.208       41.338        0.059      342.009       17.118      861.909
06/06/2013  05:42:00     -132.676      -38.111       -8.111       48.741       42.316       26.965     2375.717     1790.672      727.127        1.201        0.245      138.041       27.788        0.041      342.007       17.115      861.912
06/06/2013  05:43:00      -84.439      -29.058        7.134       46.978       50.451       35.289     2206.963     2545.330     1245.298        0.701        0.300       89.299       38.023        0.181      341.929       16.983      861.912
06/06/2013  05:44:00     -102.716      -27.408        4.394       49.781       37.539       27.159     2478.167     1409.154      737.625        0.797        0.231      106.310       28.644        0.073      341.885       16.908      861.922
06/06/2013  05:45:00     -158.723      -30.781       -1.628       45.677       43.918       26.061     2086.399     1928.817      679.174        1.542        0.235      161.680       23.429        0.021      341.800       16.762      861.925
06/06/2013  05:46:00     -140.366      -20.840        1.537       50.472       36.354       29.290     2547.404     1321.633      857.916        1.243        0.236      141.905       29.445        0.043      341.834       16.821      861.928
06/06/2013  05:47:00     -154.494      -27.080       -9.858       49.977       37.588       24.289     2497.692     1412.856      589.954        1.460        0.225      156.849       17.192        0.012      341.819       16.796      861.927
06/06/2013  05:48:00     -128.078      -27.387        3.507       54.418       41.564       29.451     2961.370     1727.555      867.332        1.136        0.278      130.974       29.938        0.052      341.832       16.817      861.928
06/06/2013  05:49:00     -135.161      -48.927       -5.311       44.568       38.115       25.439     1986.283     1452.719      647.134        1.239        0.204      143.744       20.739        0.021      341.739       16.660      861.939
06/06/2013  05:50:00     -147.886      -36.301       -8.097       40.382       35.991       24.798     1630.691     1295.321      614.949        1.340        0.177      152.276       20.367        0.018      341.604       16.432      861.934
06/06/2013  05:51:00     -167.865      -85.185       -3.254       35.162       31.933       26.475     1236.331     1019.699      700.941        1.920        0.148      188.242       22.628        0.014      341.703       16.598      861.937
06/06/2013  05:52:00     -159.359      -66.609       -7.060       41.714       40.051       30.799     1740.081     1604.075      948.567        1.709        0.215      172.720       25.258        0.021      341.721       16.630      861.929
06/06/2013  05:53:00     -115.951      -77.284        3.605       73.343       48.436       30.010     5379.238     2346.087      900.597        1.403        0.431      139.346       33.843        0.059      341.752       16.681      861.926
06/06/2013  05:54:00     -141.465     -101.277       -9.010       48.717       44.638       28.622     2373.382     1992.565      819.211        1.777        0.259      173.981       16.150        0.009      341.744       16.669      861.917
06/06/2013  05:55:00     -150.525      -63.348       -6.320       30.966       31.183       21.557      958.893      972.373      464.702        1.455        0.120      163.312       16.710        0.010      341.780       16.730      861.912
06/06/2013  05:56:00     -142.881      -43.443       -9.223       67.891       43.559       25.598     4609.214     1897.385      655.281        1.477        0.358      149.340       26.922        0.032      341.754       16.686      861.919
06/06/2013  05:57:00     -169.968      -22.085       -5.278       46.275       33.265       22.523     2141.369     1106.570      507.279        1.658        0.188      171.397       18.851        0.012      341.667       16.538      861.918
06/06/2013  05:58:00     -183.424      -52.012      -14.934       31.950       32.988       21.515     1020.831     1088.228      462.877        1.957        0.129      190.656       19.267        0.010      341.608       16.437      861.913
06/06/2013  05:59:00     -154.336      -41.733       -4.747       44.457       32.804       23.490     1976.397     1076.098      551.757        1.459        0.180      159.879       21.099        0.017      341.661       16.528      861.913
06/06/2013  06:00:00     -169.259      -22.687       -6.530       47.579       41.581       28.556     2263.721     1728.995      815.470        1.701        0.240      170.773       29.569        0.030      341.686       16.572      861.911
06/06/2013  06:01:00     -182.048      -35.964      -13.311       31.142       25.056       20.254      969.804      627.826      410.238        1.831        0.100      185.566       17.429        0.009      341.709       16.610      861.905
06/06/2013  06:02:00     -160.254      -39.744       -5.212       52.228       37.020       27.885     2727.725     1370.481      777.552        1.608        0.244      165.109       30.550        0.034      341.744       16.669      861.909
06/06/2013  06:03:00     -123.862      -34.968       -3.930       42.339       26.975       23.583     1792.612      727.674      556.166        0.983        0.154      128.703       24.321        0.036      341.831       16.818      861.918
06/06/2013  06:04:00      -93.045      -18.816       -4.263       34.919       28.074       21.969     1219.309      788.143      482.637        0.576        0.125       94.929       19.467        0.042      341.884       16.908      861.936
06/06/2013  06:05:00      -79.308      -19.085       -2.641       40.596       22.005       15.333     1648.047      484.240      235.092        0.451        0.118       81.572       16.601        0.041      341.955       17.028      861.968
06/06/2013  06:06:00      -77.254      -22.294        5.326       29.246       21.260       19.799      855.338      451.973      391.999        0.410        0.085       80.406       15.405        0.037      341.988       17.082      861.992
06/06/2013  06:07:00      -21.448      -24.972       -0.974       26.332       19.279       20.957      693.393      371.680      439.193        0.129        0.075       32.918       11.047        0.113      341.968       17.049      861.997
06/06/2013  06:08:00      -42.273      -60.997       -4.314       35.205       33.712       13.630     1239.365     1136.531      185.780        0.404        0.128       74.214       13.137        0.031      342.118       17.303      861.991
06/06/2013  06:09:00      -73.502      -97.723        4.140       42.588       38.942       24.457     1813.740     1516.485      598.122        0.945        0.196      122.280       22.902        0.035      342.203       17.449      861.991
06/06/2013  06:10:00     -138.399     -128.601       -6.195       35.378       33.568       26.321     1251.614     1126.824      692.798        1.940        0.154      188.925       22.104        0.014      342.233       17.499      861.991
06/06/2013  06:11:00     -131.949     -114.104       -3.907       41.448       35.625       23.904     1717.947     1269.127      571.380        1.700        0.178      174.443       20.024        0.013      342.168       17.389      861.996
06/06/2013  06:12:00     -113.169     -107.572       -2.042       48.884       61.298       31.351     2389.641     3757.419      982.894        1.576        0.356      156.138       26.944        0.030      342.166       17.384      861.988
06/06/2013  06:13:00     -146.089     -129.314       -2.294       57.922       64.565       33.423     3355.007     4168.666     1117.097        2.335        0.432      195.100       28.538        0.021      342.175       17.398      861.976
06/06/2013  06:14:00      -82.740      -60.583       -5.088       62.516       46.797       29.719     3908.217     2189.931      883.192        0.876        0.349      102.549       23.557        0.053      342.160       17.374      861.975
06/06/2013  06:15:00      -26.954      -39.248        8.442       51.022       44.989       31.134     2603.268     2024.003      969.345        0.397        0.280       47.612       24.717        0.269      342.227       17.490      861.983
06/06/2013  06:16:00      -14.240      -17.072       29.078       45.057       40.447       32.445     2030.108     1635.928     1052.695        0.303        0.236       22.232       28.059        1.593      342.254       17.534      862.004
06/06/2013  06:17:00      -31.979      -29.209       21.153       49.900       43.795       29.588     2490.032     1918.009      875.442        0.380        0.264       43.311       25.550        0.348      342.238       17.507      861.999
06/06/2013  06:18:00       -1.045      -28.425       27.723       36.872       49.818       30.354     1359.541     2481.800      921.362        0.317        0.238       28.444       27.695        0.948      342.353       17.702      862.000
06/06/2013  06:19:00      -20.753      -47.798       13.951       42.042       45.108       28.610     1767.568     2034.729      818.540        0.376        0.231       52.109       23.722        0.207      342.274       17.568      862.004
06/06/2013  06:20:00      -24.414      -31.567       14.913       30.864       59.181       27.963      952.595     3502.426      781.936        0.352        0.262       39.906       29.342        0.541      342.325       17.655      862.020
06/06/2013  06:21:00      -43.411      -66.511       -7.531       38.625       46.957       31.833     1491.874     2204.945     1013.316        0.554        0.236       79.425       26.598        0.112      342.282       17.582      862.016
06/06/2013  06:22:00      -62.856      -61.461        4.034       43.706       44.776       25.493     1910.246     2004.930      649.889        0.615        0.228       87.910       15.964        0.033      342.310       17.629      862.015
06/06/2013  06:23:00      -59.078      -66.186        5.752       32.991       40.988       20.682     1088.433     1680.013      427.765        0.555        0.160       88.717       19.464        0.048      342.296       17.608      862.027
06/06/2013  06:24:00      -40.724      -40.667       -2.712       36.480       27.818       20.612     1330.756      773.816      424.836        0.292        0.126       57.552       15.202        0.070      342.300       17.613      862.040
06/06/2013  06:25:00      -40.940      -25.421        4.770       23.181       30.507       19.664      537.346      930.705      386.658        0.210        0.093       48.190       10.733        0.050      342.346       17.692      862.054
06/06/2013  06:26:00       -8.376      -13.569        8.915       18.073       23.105       17.523      326.637      533.861      307.070        0.075        0.058       15.946       16.441        1.063      342.312       17.633      862.075
06/06/2013  06:27:00        5.049       14.326       12.414       14.116       12.043       11.547      199.261      145.029      133.324        0.043        0.024       15.190        7.845        0.267      342.292       17.599      862.086
06/06/2013  06:28:00       15.673       -5.189       -0.223       19.172       19.474       23.286      367.547      379.245      542.225        0.078        0.064       16.510       15.964        0.935      342.177       17.405      862.093
06/06/2013  06:29:00        6.239      -28.419       23.083       30.133       36.991       28.111      907.995     1368.309      790.229        0.222        0.153       29.096       15.778        0.294      342.058       17.203      862.100
06/06/2013  06:30:00        1.707      -42.378       15.371       22.230       35.674       15.776      494.181     1272.646      248.888        0.203        0.101       42.413        4.709        0.012      342.034       17.162      862.111
06/06/2013  06:31:00       14.154        2.802       20.561       33.369       30.627       19.245     1113.476      937.987      370.388        0.153        0.121       14.429       15.654        1.177      342.202       17.445      862.114
06/06/2013  06:32:00       31.607      -31.337       -3.323       40.138       24.229       24.676     1611.019      587.039      608.914        0.240        0.140       44.508        3.946        0.008      342.078       17.235      862.112
06/06/2013  06:33:00       31.756       -3.358        7.377       46.415       20.238       20.705     2154.394      409.564      428.688        0.203        0.150       31.933       23.063        0.522      342.294       17.603      862.108
06/06/2013  06:34:00        9.187      -24.245       13.822       20.556       29.819       23.510      422.540      889.169      552.704        0.136        0.093       25.927       20.968        0.654      342.602       18.126      862.116
06/06/2013  06:35:00        7.110       -8.195        6.071       23.094       16.963       20.895      533.347      287.750      436.599        0.071        0.063       10.849       14.156        1.702      342.620       18.157      862.119
06/06/2013  06:36:00      -14.314      -10.022       -5.533       24.067       30.553       24.274      579.207      933.464      589.230        0.122        0.105       17.474       11.663        0.445      342.645       18.200      862.121
06/06/2013  06:37:00      -25.642      -12.922        0.031       18.595       19.542       12.108      345.778      381.907      146.595        0.085        0.044       28.714       10.257        0.128      342.657       18.219      862.133
06/06/2013  06:38:00      -34.640      -17.907       -0.714       30.768       17.905       14.756      946.661      320.577      217.746        0.150        0.074       38.994       17.676        0.205      342.602       18.125      862.147
06/06/2013  06:39:00      -32.471      -26.222        3.895       30.243       16.174       16.722      914.651      261.588      279.611        0.161        0.073       41.737       19.836        0.226      342.690       18.276      862.165
06/06/2013  06:40:00      -36.186      -42.386        3.626       32.485       20.324       15.173     1055.267      413.065      230.234        0.241        0.085       55.732       17.397        0.097      342.587       18.102      862.171
06/06/2013  06:41:00        4.712      -23.517       -3.994       21.567       15.645       18.722      465.115      244.777      350.502        0.083        0.053       23.984       14.539        0.367      342.649       18.206      862.183
06/06/2013  06:42:00       -7.946      -33.749       -0.105       19.052       18.003       12.876      362.989      324.125      165.795        0.103        0.043       34.672       11.806        0.116      342.652       18.211      862.197
06/06/2013  06:43:00      -35.137      -36.616       -3.887       17.233        9.086        8.849      296.993       82.559       78.311        0.152        0.023       50.748        9.703        0.037      342.619       18.155      862.222
06/06/2013  06:44:00       -7.335      -11.141        1.632       10.680       13.827       11.357      114.054      191.188      128.974        0.031        0.022       13.338        9.666        0.525      342.925       18.677      862.231
06/06/2013  06:45:00       -3.185      -10.225        4.368       17.654       15.905       16.812      311.678      252.976      282.636        0.049        0.042       10.710       14.483        1.829      342.857       18.561      862.248
06/06/2013  06:46:00       -4.045       14.353       -1.968       11.479       19.789       11.560      131.763      391.606      133.641        0.044        0.033       14.912        6.932        0.216      342.638       18.188      862.250
06/06/2013  06:47:00       -7.112        7.932       10.004        8.579       25.791       13.994       73.601      665.176      195.824        0.057        0.047       10.654       12.796        1.443      342.938       18.699      862.262
06/06/2013  06:48:00       38.264      -28.788        6.237       25.829       18.414       21.017      667.159      339.093      441.705        0.189        0.072       47.884        7.375        0.024      342.461       17.885      862.264
06/06/2013  06:49:00       20.434      -27.706        3.701       25.526       20.057       21.773      651.597      402.297      474.063        0.136        0.076       34.426       10.680        0.096      342.549       18.036      862.250
06/06/2013  06:50:00       -2.175      -14.464       17.473       25.481       14.415       18.352      649.282      207.789      336.797        0.086        0.060       14.627       11.168        0.583      342.784       18.435      862.251
06/06/2013  06:51:00       63.248      -42.435       -8.140       26.415       29.078       27.777      697.735      845.531      771.585        0.409        0.116       76.164       11.767        0.024      342.417       17.811      862.249
06/06/2013  06:52:00      -18.614      -24.521       -1.620       27.097       21.641       18.938      734.251      468.320      358.652        0.126        0.078       30.785       12.597        0.167      342.724       18.335      862.244
06/06/2013  06:53:00      -36.268      -25.275       -7.920        8.661        7.406        7.069       75.007       54.852       49.965        0.110        0.009       44.206        3.528        0.006      342.797       18.459      862.243
06/06/2013  06:54:00      -41.642      -22.875        2.336       18.915       18.678       14.310      357.766      348.876      204.764        0.159        0.046       47.511       13.431        0.080      342.938       18.699      862.238
06/06/2013  06:55:00      -46.753      -32.998       -3.672        7.100        9.971        6.403       50.404       99.420       40.993        0.174        0.010       57.225        2.622        0.002      342.855       18.557      862.240
06/06/2013  06:56:00      -26.239      -32.820        1.466       22.278       11.736        8.872      496.329      137.726       78.718        0.124        0.036       42.020        3.801        0.008      342.980       18.771      862.252
06/06/2013  06:57:00      -33.347      -18.734        2.159       25.119       26.003       14.898      630.966      676.152      221.951        0.150        0.076       38.249       13.255        0.120      343.109       18.989      862.257
06/06/2013  06:58:00      -31.111      -22.498       11.721       29.326       23.670       21.276      860.028      560.285      452.684        0.174        0.094       38.393       13.409        0.122      343.144       19.050      862.268
06/06/2013  06:59:00      -13.570      -18.137       10.919       19.762       19.404       18.261      390.527      376.507      333.473        0.087        0.055       22.652       10.195        0.203      343.292       19.301      862.282
06/06/2013  07:00:00      -20.331      -16.110       -0.845       18.740       12.163       11.723      351.190      147.949      137.421        0.065        0.032       25.940        8.544        0.108      343.107       18.985      862.286
06/06/2013  07:01:00      -20.997        0.516       11.344       12.446       14.939       12.825      154.904      223.182      164.477        0.056        0.027       21.003        9.379        0.199      343.353       19.405      862.298
06/06/2013  07:02:00      -20.584       -5.674        2.527       20.744       26.409       14.296      430.306      697.409      204.383        0.090        0.067       21.352       10.997        0.265      343.160       19.077      862.303
06/06/2013  07:03:00      -55.360      -24.944       -3.523       15.526        7.746        6.709      241.070       59.998       45.004        0.202        0.017       60.720        7.724        0.016      342.959       18.734      862.305
06/06/2013  07:04:00      -65.091      -24.734       -4.711       24.675       14.909        9.282      608.838      222.280       86.150        0.289        0.046       69.632        5.593        0.006      342.964       18.742      862.304
06/06/2013  07:05:00      -44.359      -33.645        8.505       35.090       18.862       14.989     1231.287      355.788      224.666        0.249        0.091       55.675       18.251        0.107      343.070       18.922      862.303
06/06/2013  07:06:00      -48.501       -7.657        3.332       22.414       16.122       15.232      502.371      259.915      232.003        0.171        0.050       49.102       14.421        0.086      343.080       18.939      862.309
06/06/2013  07:07:00      -57.004      -56.461        0.202       38.308       38.555       19.449     1467.477     1486.474      378.273        0.488        0.167       80.233       26.869        0.112      343.152       19.063      862.315
06/06/2013  07:08:00      -64.226      -72.479       -7.495       22.016       16.682       13.546      484.721      278.293      183.483        0.519        0.047       96.841        8.253        0.007      343.028       18.850      862.318
06/06/2013  07:09:00      -51.501      -55.524       -4.891       16.883       18.874       12.462      285.020      356.224      155.299        0.328        0.040       75.732       11.501        0.023      343.109       18.988      862.320
06/06/2013  07:10:00      -82.395      -57.560        2.687       33.114       35.263       17.067     1096.543     1243.475      291.280        0.637        0.132      100.509       15.197        0.023      343.119       19.006      862.330
06/06/2013  07:11:00      -52.710      -30.539        4.461       28.786       28.501       15.845      828.643      812.313      251.075        0.281        0.095       60.917       15.991        0.069      343.285       19.289      862.346
06/06/2013  07:12:00      -82.290      -51.408       -3.547       25.074       31.396       14.624      628.686      985.726      213.849        0.563        0.091       97.028        8.844        0.008      343.153       19.064      862.359
06/06/2013  07:13:00      -76.385      -30.846        1.465       30.138       23.014       14.674      908.317      529.629      215.322        0.422        0.083       82.378       13.693        0.028      343.190       19.127      862.382
06/06/2013  07:14:00      -44.812      -70.700        1.732       26.946       16.909       11.948      726.098      285.924      142.751        0.408        0.058       83.706        9.631        0.013      343.176       19.101      862.385
06/06/2013  07:15:00      -27.592      -84.451        5.256       13.371       19.652       13.781      178.780      386.195      189.903        0.434        0.038       88.844        4.614        0.003      343.232       19.201      862.400
06/06/2013  07:16:00      -25.964      -12.981       12.091       14.808       18.441       13.805      219.283      340.081      190.574        0.087        0.037       29.028       13.447        0.215      343.521       19.693      862.410
06/06/2013  07:17:00      -18.840        7.950        4.935       21.912       13.532       14.703      480.137      183.109      216.177        0.066        0.044       20.449       14.298        0.489      343.637       19.891      862.411
06/06/2013  07:18:00      -29.382        5.384       10.141       17.544        9.221       18.310      307.779       85.034      335.251        0.086        0.036       29.871       13.510        0.205      343.643       19.901      862.415
06/06/2013  07:19:00      -22.632      -11.611       -5.819        8.969        9.141        7.294       80.451       83.563       53.195        0.045        0.011       25.437        4.155        0.027      343.422       19.521      862.408
06/06/2013  07:20:00      -15.126       -5.511       -2.957       10.900       11.809        8.492      118.820      139.445       72.109        0.030        0.017       16.098        7.145        0.197      343.597       19.820      862.403
06/06/2013  07:21:00      -18.821       -0.051       -0.272        7.634        5.347        3.532       58.284       28.591       12.475        0.023        0.005       18.821        2.785        0.022      343.514       19.678      862.401
06/06/2013  07:22:00      -18.652       -3.314        0.028        7.705        6.652       10.222       59.366       44.252      104.483        0.028        0.010       18.944        2.247        0.014      343.678       19.958      862.396
06/06/2013  07:23:00      -17.398      -10.924       -9.610        6.968       10.717        5.285       48.556      114.853       27.926        0.035        0.010       20.544        4.974        0.059      343.561       19.761      862.391
06/06/2013  07:24:00      -12.814       -2.734       10.724       11.082        8.541       19.013      122.821       72.945      361.478        0.042        0.028       13.102        8.369        0.408      344.350       21.108      862.393
06/06/2013  07:25:00      -18.830        4.657       10.015        8.097        8.495        8.460       65.569       72.157       71.570        0.034        0.010       19.398        4.493        0.054      343.980       20.476      862.392
06/06/2013  07:26:00      -28.146      -15.426        9.145       20.749       19.632       13.578      430.537      385.397      184.374        0.106        0.050       32.096        7.943        0.061      343.858       20.266      862.389
06/06/2013  07:27:00       22.996      -62.881       -2.176       30.076       22.499       25.483      904.569      506.222      649.377        0.327        0.103       66.954       18.880        0.080      343.974       20.466      862.391
06/06/2013  07:28:00        8.195      -41.002       10.925       18.653       24.169       22.910      347.941      584.144      524.885        0.166        0.073       41.813       14.444        0.119      344.116       20.707      862.393
06/06/2013  07:29:00      -19.523       -0.393       20.443       13.469       14.880       19.192      181.401      221.406      368.334        0.079        0.039       19.526       12.232        0.392      344.547       21.444      862.407
06/06/2013  07:30:00       -8.652        5.072       20.106       16.238       11.122       16.996      263.687      123.688      288.877        0.059        0.034       10.029        9.288        0.858      344.542       21.435      862.416
06/06/2013  07:31:00        2.889        1.905       27.549       22.039       13.293       12.033      485.727      176.694      144.782        0.079        0.040        3.460        8.877        6.581      344.877       22.008      862.420
06/06/2013  07:32:00      -13.594        3.960       20.680       10.589        9.768       14.767      112.136       95.416      218.067        0.053        0.021       14.159        7.822        0.305      344.658       21.634      862.424
06/06/2013  07:33:00      -11.583        9.895       30.334        9.794       13.931       18.251       95.928      194.073      333.104        0.089        0.031       15.234       11.962        0.617      344.749       21.789      862.429
06/06/2013  07:34:00       -4.552        3.635       35.126        9.609       11.976        8.675       92.335      143.432       75.258        0.079        0.016        5.826        6.103        1.097      345.062       22.324      862.433
06/06/2013  07:35:00       -7.065       12.530       40.874       10.513       17.637       14.012      110.514      311.078      196.324        0.125        0.031       14.384       12.269        0.728      345.117       22.418      862.435
06/06/2013  07:36:00      -16.445       -7.863       10.528       12.716        9.875       12.396      161.687       97.510      153.654        0.043        0.021       18.228        5.466        0.090      344.313       21.042      862.442
06/06/2013  07:37:00      -23.734       14.555       21.928       17.093       20.849       18.821      292.184      434.686      354.222        0.117        0.054       27.842       15.053        0.292      344.395       21.183      862.439
06/06/2013  07:38:00       -7.129       16.080       41.140        8.416       18.137       11.203       70.825      328.950      125.506        0.126        0.026       17.589        7.156        0.166      345.151       22.479      862.439
06/06/2013  07:39:00      -23.434       23.551       12.330       14.218       24.409       18.290      202.141      595.809      334.507        0.119        0.057       33.223       11.868        0.128      344.228       20.899      862.437
06/06/2013  07:40:00      -12.154      -11.062        3.742       17.597       16.782       18.650      309.651      281.619      347.807        0.061        0.047       16.434       10.345        0.396      344.522       21.401      862.438
06/06/2013  07:41:00      -19.330       -3.196       12.079       22.365       21.085       18.459      500.193      444.593      340.748        0.091        0.064       19.592       11.115        0.322      344.598       21.530      862.438
06/06/2013  07:42:00      -14.325       -1.206       23.113       16.760       18.255       18.150      280.897      333.231      329.426        0.084        0.047       14.376       13.415        0.871      344.906       22.058      862.443
06/06/2013  07:43:00      -41.481      -14.438        7.963       20.985       23.905       18.622      440.352      571.472      346.782        0.168        0.068       43.922       17.223        0.154      344.305       21.031      862.439
06/06/2013  07:44:00      -22.418      -11.026       15.758       27.223       20.127       16.219      741.066      405.086      263.047        0.114        0.070       24.983       14.871        0.354      344.628       21.584      862.442
06/06/2013  07:45:00      -25.137       -5.732        8.269       21.122       17.068       11.887      446.150      291.310      141.309        0.081        0.044       25.782        9.353        0.132      344.526       21.408      862.452
06/06/2013  07:46:00      -36.413        5.534        4.813       27.313       14.853       15.503      745.993      220.614      240.330        0.129        0.060       36.831        8.601        0.055      344.515       21.390      862.450
06/06/2013  07:47:00      -27.378      -11.604       14.648       23.546       20.095       17.904      554.426      403.820      320.559        0.119        0.064       29.736       15.284        0.264      345.043       22.293      862.455
06/06/2013  07:48:00      -23.954       -0.707       14.600       20.590       12.743       16.051      423.950      162.376      257.619        0.082        0.042       23.965       13.768        0.330      344.747       21.786      862.461
06/06/2013  07:49:00      -18.252        1.083       18.770       17.612       18.724       20.496      310.168      350.595      420.100        0.088        0.054       18.284       14.775        0.653      345.169       22.510      862.461
06/06/2013  07:50:00      -28.505       15.178       32.511       19.327       23.415       27.133      373.515      548.266      736.223        0.188        0.083       32.294       19.618        0.369      344.869       21.996      862.462
06/06/2013  07:51:00      -36.302       -8.564       -0.226       30.559       14.289       18.906      933.846      204.169      357.422        0.144        0.075       37.298       17.378        0.217      344.575       21.491      862.469
06/06/2013  07:52:00      -16.548      -16.106        3.160       19.249       17.141       18.789      370.506      293.806      353.012        0.078        0.051       23.092       13.254        0.329      344.544       21.437      862.467
06/06/2013  07:53:00       -9.578       -9.254       13.008       17.770       13.525       20.921      315.756      182.930      437.685        0.064        0.047       13.318       16.994        1.628      344.999       22.218      862.473
06/06/2013  07:54:00      -28.857      -29.933        3.373       22.492       20.666       10.839      505.877      427.064      117.484        0.140        0.053       41.577       11.578        0.078      344.581       21.502      862.470
06/06/2013  07:55:00      -56.649      -26.131        4.602       35.026       17.480       13.651     1226.828      305.549      186.351        0.282        0.086       62.385       12.843        0.042      344.566       21.476      862.468
06/06/2013  07:56:00      -63.037      -17.875       -3.471       20.498       18.892       11.609      420.181      356.924      134.778        0.261        0.046       65.523       11.579        0.031      344.355       21.115      862.466
06/06/2013  07:57:00      -70.354       18.118        7.294       14.341       21.664       19.885      205.668      469.342      395.433        0.320        0.054       72.650       16.047        0.049      344.430       21.243      862.467
06/06/2013  07:58:00      -36.512        1.921       10.785       22.611       21.951       18.012      511.275      481.841      324.449        0.139        0.066       36.563       13.299        0.132      344.686       21.680      862.470
06/06/2013  07:59:00      -36.978       -7.960       -4.775       16.461       12.743       12.981      270.954      162.388      168.495        0.103        0.030       37.825        6.695        0.031      344.591       21.518      862.482
06/06/2013  08:00:00      -32.224      -19.232        1.689       20.778       17.300       15.080      431.718      299.297      227.392        0.118        0.048       37.526        6.851        0.033      344.785       21.851      862.481
06/06/2013  08:01:00      -38.365      -27.049        5.619       14.552        8.053       12.685      211.775       64.856      160.899        0.134        0.022       46.942        9.577        0.042      344.617       21.563      862.484
06/06/2013  08:02:00       -9.958      -21.017        2.538        7.009       12.423        6.951       49.131      154.322       48.317        0.040        0.013       23.257        4.053        0.030      344.667       21.647      862.491
06/06/2013  08:03:00      -39.861      -48.338       -0.767       18.749       18.390       15.109      351.524      338.199      228.283        0.242        0.046       62.653       11.168        0.032      344.557       21.461      862.495
06/06/2013  08:04:00      -30.821      -28.856       -8.507       13.612       10.864        9.902      185.281      118.031       98.056        0.113        0.020       42.220        5.494        0.017      344.639       21.599      862.498
06/06/2013  08:05:00      -21.457      -48.891        3.488       11.655       17.332       16.123      135.842      300.391      259.955        0.178        0.035       53.392        8.260        0.024      344.663       21.642      862.501
06/06/2013  08:06:00      -24.489      -23.766       11.008       18.652       26.233       19.086      347.905      688.192      364.286        0.134        0.070       34.125       16.727        0.240      345.219       22.595      862.500
06/06/2013  08:07:00      -24.030      -19.839       -1.944       14.045       19.419       20.336      197.271      377.100      413.542        0.098        0.049       31.161       13.568        0.190      345.012       22.240      862.497
06/06/2013  08:08:00      -12.679      -36.737       11.506       20.315       21.598       17.807      412.680      466.464      317.094        0.142        0.060       38.864       14.298        0.135      344.961       22.151      862.497
06/06/2013  08:09:00      -22.054      -43.985        5.666       35.551       19.031       18.478     1263.870      362.169      341.425        0.221        0.098       49.204       13.367        0.074      344.838       21.943      862.493
06/06/2013  08:10:00      -16.682      -13.148       17.523       20.081       42.880       20.939      403.233     1838.680      438.443        0.172        0.134       21.241       19.313        0.827      345.460       23.007      862.482
06/06/2013  08:11:00      -57.087       17.901        1.639       19.150       16.726       15.137      366.736      279.747      229.128        0.223        0.044       59.827        9.965        0.028      344.813       21.897      862.475
06/06/2013  08:12:00      -41.275       13.602        9.772       24.375       20.087       20.770      594.126      403.501      431.378        0.171        0.071       43.459       17.445        0.161      345.345       22.810      862.464
06/06/2013  08:13:00      -45.626      -12.287        8.178       27.043       22.601       18.012      731.333      510.802      324.429        0.193        0.078       47.251       15.262        0.104      345.151       22.478      862.454
06/06/2013  08:14:00      -62.942      -55.904        1.798       30.729       38.401       16.051      944.300     1474.647      257.645        0.488        0.134       84.184       18.070        0.046      344.891       22.031      862.450
06/06/2013  08:15:00      -43.140      -77.326        6.328       27.824       30.312       17.060      774.183      918.811      291.049        0.493        0.099       88.546       12.899        0.021      344.927       22.092      862.454
06/06/2013  08:16:00      -45.452      -82.908       -8.279       40.531       43.866       15.247     1642.795     1924.213      232.466        0.640        0.190       94.550       13.010        0.019      345.065       22.329      862.449
06/06/2013  08:17:00      -22.026      -29.074       12.230       51.536       24.413       23.833     2656.010      596.011      568.003        0.265        0.191       36.475       27.423        0.565      345.337       22.796      862.458
06/06/2013  08:18:00      -39.404      -53.544       11.054       41.578       37.092       27.079     1728.714     1375.785      733.281        0.419        0.192       66.480       28.390        0.182      345.217       22.591      862.462
06/06/2013  08:19:00      -14.142      -17.806        6.634       24.618       33.493       21.993      606.070     1121.777      483.686        0.139        0.111       22.739       20.080        0.780      345.646       23.327      862.464
06/06/2013  08:20:00       -8.579        5.082        3.245       25.052       18.388       24.592      627.618      338.111      604.782        0.084        0.079        9.971       12.802        1.648      345.748       23.502      862.469
06/06/2013  08:21:00      -39.275        7.946       15.937       25.685       29.053       25.730      659.735      844.056      662.051        0.201        0.108       40.071       25.138        0.394      345.408       22.917      862.474
06/06/2013  08:22:00      -77.863      -34.037      -12.590       12.287       17.289       18.096      150.977      298.908      327.482        0.408        0.039       84.977        2.190        0.001      345.144       22.466      862.476
06/06/2013  08:23:00      -23.928        7.071        6.150       18.620       20.422       24.539      346.707      417.057      602.173        0.101        0.068       24.951       15.694        0.396      345.876       23.721      862.487
06/06/2013  08:24:00      -28.050       15.484        3.769        8.922       13.531       14.288       79.607      183.077      204.159        0.075        0.023       32.039        2.841        0.008      345.419       22.937      862.488
06/06/2013  08:25:00        4.428       42.932       34.070       31.851       29.611       20.007     1014.482      876.826      400.293        0.266        0.115       43.160       13.591        0.099      346.253       24.369      862.494
06/06/2013  08:26:00       15.227       37.493        8.816       25.615       19.783       20.639      656.107      391.383      425.950        0.159        0.074       40.467        8.829        0.048      345.562       23.181      862.496
06/06/2013  08:27:00      -15.361       24.322       22.650       22.812       20.339       19.234      520.375      413.662      369.952        0.132        0.065       28.767       11.805        0.168      346.188       24.256      862.495
06/06/2013  08:28:00      -11.977       30.564       35.338       17.092       21.520       14.969      292.147      463.103      224.078        0.165        0.049       32.827       10.888        0.110      346.665       25.076      862.491
06/06/2013  08:29:00      -33.945       10.463       16.702       20.011       11.546       26.135      400.422      133.302      683.027        0.138        0.061       35.521       18.239        0.264      345.849       23.675      862.490
06/06/2013  08:30:00      -24.245        0.152       15.561       19.713       11.176       14.462      388.591      124.909      209.143        0.078        0.036       24.246       15.465        0.407      345.907       23.773      862.490
06/06/2013  08:31:00       22.762       19.005       17.133       27.623       25.266       21.046      763.028      638.383      442.932        0.151        0.092       29.653       12.862        0.188      346.315       24.474      862.486
06/06/2013  08:32:00       19.992       25.450       27.359       43.735       28.859       20.975     1912.745      832.817      439.956        0.249        0.159       32.363       23.952        0.548      346.522       24.831      862.488
06/06/2013  08:33:00       42.397       32.733        4.631       26.138       23.912       24.322      683.201      571.785      591.545        0.237        0.092       53.563       17.806        0.111      345.971       23.884      862.489
06/06/2013  08:34:00       46.116       56.270       10.293       27.523       23.254       29.381      757.536      540.733      863.251        0.378        0.108       72.753        8.423        0.013      345.950       23.847      862.493
06/06/2013  08:35:00       44.733       36.287        9.110       19.290       32.519       20.582      372.095     1057.486      423.637        0.263        0.093       57.600       13.849        0.058      345.841       23.660      862.499
06/06/2013  08:36:00        1.811       -2.849       33.407       21.458       27.092       16.323      460.448      733.966      266.437        0.129        0.073        3.375       11.362       11.331      346.771       25.259      862.507
06/06/2013  08:37:00       12.860        7.763       47.741       23.547       37.837       29.023      554.462     1431.609      842.363        0.267        0.141       15.021       18.947        1.591      346.637       25.028      862.514
06/06/2013  08:38:00      -14.433       37.097       59.113       28.586       29.278       26.030      817.139      857.207      677.546        0.371        0.118       39.806       23.154        0.338      346.624       25.007      862.527
06/06/2013  08:39:00       -8.044        5.316       38.650       12.139       11.871       10.497      147.359      140.926      110.196        0.099        0.020        9.641        7.488        0.603      347.356       26.267      862.530
06/06/2013  08:40:00      -55.511       -4.497       14.048       52.913       32.590       21.101     2799.757     1062.099      445.244        0.380        0.215       55.693       24.568        0.195      346.186       24.252      862.528
06/06/2013  08:41:00      -26.507       -5.783        8.609       39.881       26.854       18.642     1590.521      721.144      347.529        0.173        0.133       27.130        9.841        0.132      346.144       24.181      862.528
06/06/2013  08:42:00      -28.512      -29.554        2.831       32.149       35.355       22.597     1033.550     1249.979      510.623        0.224        0.140       41.066       25.170        0.376      346.311       24.468      862.523
06/06/2013  08:43:00      -14.832      -27.987       11.641       33.801       40.904       32.008     1142.522     1673.108     1024.495        0.249        0.192       31.674       28.878        0.831      346.596       24.958      862.523
06/06/2013  08:44:00       -8.943      -10.067       16.961       24.093       42.849       26.832      580.469     1836.011      719.979        0.180        0.157       13.465       25.567        3.605      346.611       24.984      862.525
06/06/2013  08:45:00       -6.955       -7.358       33.857       16.703       21.423       12.092      278.980      458.960      146.222        0.107        0.044       10.125        9.141        0.815      347.207       26.010      862.516
06/06/2013  08:46:00      -12.069      -19.234       24.057       53.071       35.110       30.061     2816.481     1232.699      903.686        0.302        0.248       22.707       29.747        1.716      346.316       24.476      862.514
06/06/2013  08:47:00       40.086       35.360       49.031       42.470       30.566       33.700     1803.736      934.303     1135.677        0.457        0.194       53.453       25.841        0.234      346.330       24.500      862.512
06/06/2013  08:48:00       -8.017      -12.009       42.023       33.087       43.111       25.966     1094.723     1858.576      674.249        0.280        0.181       14.439       20.755        2.066      346.548       24.875      862.504
06/06/2013  08:49:00        5.937      -60.974       38.820       37.289       55.286       32.524     1390.435     3056.515     1057.797        0.538        0.275       61.262       22.482        0.135      346.453       24.710      862.496
06/06/2013  08:50:00       24.583       21.859       57.899       35.644       41.771       22.610     1270.510     1744.790      511.196        0.398        0.176       32.896       19.036        0.335      346.525       24.836      862.492
06/06/2013  08:51:00       14.754       39.995       42.119       22.875       20.827       19.043      523.270      433.765      362.622        0.246        0.066       42.630       12.023        0.080      346.173       24.230      862.484
06/06/2013  08:52:00       -5.862      -41.809       13.254       22.995       23.992       24.255      528.782      575.600      588.324        0.183        0.085       42.218       14.933        0.125      346.224       24.318      862.475
06/06/2013  08:53:00      -47.723      -47.875        3.092       16.205       24.678       12.301      262.590      608.993      151.302        0.280        0.051       67.598        8.811        0.017      346.003       23.939      862.476
06/06/2013  08:54:00      -27.132      -10.459        9.469       13.318       22.431       16.552      177.380      503.149      273.972        0.094        0.048       29.078       16.829        0.335      346.366       24.563      862.460
06/06/2013  08:55:00        6.232       23.821       23.053       14.124       25.001       19.309      199.489      625.061      372.824        0.117        0.060       24.623       13.609        0.305      347.020       25.687      862.446
06/06/2013  08:56:00       15.347        9.671       34.154       29.302       28.661       31.453      858.608      821.457      989.311        0.208        0.133       18.140       26.822        2.186      346.579       24.929      862.439
06/06/2013  08:57:00        1.405      -18.226       30.357       17.156       26.181       29.422      294.315      685.447      865.636        0.155        0.092       18.280       19.899        1.185      346.824       25.351      862.434
06/06/2013  08:58:00      -19.080      -19.825       21.226       22.148       31.776       22.819      490.553     1009.701      520.705        0.161        0.101       27.515       18.011        0.429      346.617       24.994      862.434
06/06/2013  08:59:00      -20.802       -4.839        3.730       14.552        9.611       10.868      211.761       92.371      118.120        0.045        0.021       21.357        8.141        0.145      346.450       24.706      862.427
06/06/2013  09:00:00      -13.656       -2.250       17.100       23.822       34.027       25.617      567.511     1157.832      656.236        0.143        0.119       13.840       17.743        1.644      346.921       25.518      862.422
06/06/2013  09:01:00        3.317      -32.154       23.433       29.918       47.245       32.898      895.076     2232.074     1082.298        0.290        0.210       32.324       21.361        0.437      346.958       25.581      862.410
06/06/2013  09:02:00      -22.677      -32.988        5.860       29.696       31.310       24.153      881.845      980.340      583.360        0.204        0.122       40.031       14.372        0.129      346.573       24.917      862.406
06/06/2013  09:03:00        3.808      -53.457       19.695       29.745       47.003       36.677      884.773     2209.293     1345.223        0.385        0.222       53.592       19.742        0.136      346.950       25.568      862.405
06/06/2013  09:04:00       20.636       -3.062       44.291       34.817       44.321       37.780     1212.246     1964.351     1427.317        0.350        0.230       20.862       27.504        1.738      347.081       25.792      862.399
06/06/2013  09:05:00       -1.413       37.542       60.053       26.316       39.189       38.285      692.534     1535.776     1465.739        0.436        0.185       37.568       26.352        0.492      346.949       25.565      862.397
06/06/2013  09:06:00        9.167       13.554       49.937       33.333       60.489       41.508     1111.112     3658.942     1722.876        0.463        0.325       16.363       41.493        6.430      346.774       25.264      862.390
06/06/2013  09:07:00       -0.887       62.291       88.300       32.680       52.319       34.296     1067.977     2737.307     1176.205        0.833        0.249       62.298       34.969        0.315      346.970       25.602      862.383
06/06/2013  09:08:00      -16.653      -17.931       46.136       30.990       37.779       35.086      960.373     1427.221     1231.020        0.317        0.181       24.472       25.241        1.064      346.847       25.391      862.378
06/06/2013  09:09:00      -38.253       19.409        4.183       17.030       32.946       18.683      290.024     1085.470      349.045        0.179        0.086       42.895       10.481        0.060      346.543       24.867      862.383
06/06/2013  09:10:00      -21.882       16.754       20.051       24.404       26.077       26.133      595.539      679.999      682.917        0.156        0.098       27.559       18.132        0.433      347.305       26.179      862.376
06/06/2013  09:11:00      -17.380        5.522       19.992       15.388       22.022       21.977      236.790      484.983      482.977        0.097        0.060       18.236       12.133        0.443      347.305       26.178      862.379
06/06/2013  09:12:00        7.500      -32.790       15.164       34.375       35.142       30.720     1181.646     1234.942      943.702        0.236        0.168       33.637       23.526        0.489      347.114       25.849      862.375
06/06/2013  09:13:00       35.080      -66.730        5.046       35.346       54.220       39.475     1249.313     2939.857     1558.267        0.573        0.287       75.389       13.276        0.031      346.750       25.222      862.374
06/06/2013  09:14:00       40.054      -50.063        3.934       45.637       62.147       34.790     2082.717     3862.246     1210.365        0.564        0.358       64.114       34.831        0.295      346.917       25.512      862.371
06/06/2013  09:15:00        9.286       17.875       58.868       40.085       56.460       33.348     1606.827     3187.681     1112.082        0.489        0.295       20.143       37.506        3.467      347.190       25.980      862.364
06/06/2013  09:16:00       19.533       10.732       57.513       38.166       61.206       31.037     1456.649     3746.224      963.309        0.498        0.308       22.288       32.821        2.169      347.167       25.941      862.367
06/06/2013  09:17:00       23.841       71.396       47.444       31.501       28.967       25.320      992.314      839.080      641.100        0.519        0.124       75.272       14.403        0.037      346.746       25.215      862.342
06/06/2013  09:18:00        5.271       23.918       67.492       40.593       62.694       45.276     1647.765     3930.592     2049.872        0.639        0.381       24.492       39.140        2.554      347.145       25.904      862.330
06/06/2013  09:19:00      -25.057      -62.338        1.541       32.877       32.646       25.709     1080.870     1065.789      660.958        0.366        0.140       67.186       20.816        0.096      346.884       25.453      862.329
06/06/2013  09:20:00      -26.983      -40.028        7.045       34.684       29.861       22.861     1202.980      891.699      522.604        0.250        0.131       48.273       19.976        0.171      346.998       25.649      862.332
06/06/2013  09:21:00      -39.188      -27.119       -5.462       53.432       27.292       24.946     2854.978      744.878      622.317        0.326        0.211       47.657       18.044        0.143      346.866       25.421      862.328
06/06/2013  09:22:00      -18.138       -5.401       15.776       42.266       36.568       29.788     1786.393     1337.239      887.296        0.231        0.201       18.925       22.301        1.389      347.418       26.374      862.331
06/06/2013  09:23:00      -27.333      -32.614       -7.104       48.350       35.152       21.893     2337.692     1235.656      479.285        0.296        0.203       42.553       21.859        0.264      346.809       25.324      862.325
06/06/2013  09:24:00      -49.478       12.266       19.015       56.905       28.442       25.046     3238.139      808.964      627.319        0.382        0.234       50.976       24.562        0.232      346.794       25.298      862.326
06/06/2013  09:25:00       33.339       29.347       22.651       40.287       17.359       23.640     1623.062      301.330      558.857        0.248        0.124       44.415       21.318        0.230      347.047       25.733      862.318
06/06/2013  09:26:00        7.485        0.459       18.349       20.828       18.093       18.948      433.824      327.349      359.021        0.076        0.056        7.499       12.209        2.650      347.188       25.977      862.311
06/06/2013  09:27:00      -14.338      -13.465       16.807       12.411       18.617       14.895      154.021      346.607      221.861        0.070        0.036       19.670       12.046        0.375      347.462       26.448      862.298
06/06/2013  09:28:00       78.710       51.123       22.936       74.181       35.623       41.245     5502.861     1269.028     1701.188        0.890        0.424       93.855       41.748        0.198      347.295       26.164      862.289
06/06/2013  09:29:00       63.329       44.702       35.867       41.326       41.155       40.815     1707.798     1693.761     1665.902        0.618        0.253       77.517       21.129        0.074      347.179       25.962      862.287
06/06/2013  09:30:00      102.034       82.501       26.567       40.161       32.972       33.965     1612.928     1087.142     1153.623        1.089        0.193      131.215       26.508        0.041      346.804       25.315      862.270
06/06/2013  09:31:00       56.138       60.483      -10.039       28.782       30.977       26.725      828.400      959.601      714.245        0.471        0.125       82.520       20.877        0.064      346.763       25.245      862.262
06/06/2013  09:32:00       79.064       53.640       12.600       58.058       33.614       30.122     3370.767     1129.931      907.321        0.735        0.270       95.543        7.229        0.006      347.082       25.795      862.255
06/06/2013  09:33:00       88.045       61.363       -5.600       53.679       36.912       30.018     2881.457     1362.506      901.109        0.835        0.257      107.319       14.514        0.018      346.878       25.442      862.240
06/06/2013  09:34:00       46.016       52.381       14.889       37.125       34.582       31.421     1378.253     1195.934      987.276        0.432        0.178       69.722       10.249        0.022      347.403       26.346      862.240
06/06/2013  09:35:00        9.611       23.109       11.025       37.034       48.387       27.305     1371.544     2341.256      745.566        0.260        0.223       25.028       21.452        0.735      347.561       26.621      862.227
06/06/2013  09:36:00       22.345      -22.624       30.188       46.996       46.183       40.594     2208.659     2132.898     1647.898        0.395        0.299       31.798       26.489        0.694      347.769       26.978      862.225
06/06/2013  09:37:00       29.896      -17.171       16.236       56.125       45.249       41.232     3149.987     2047.430     1700.043        0.417        0.345       34.477       34.096        0.978      347.460       26.446      862.215
06/06/2013  09:38:00       15.248       59.743       85.877       43.692       38.107       24.386     1909.021     1452.128      594.677        0.757        0.198       61.658       15.402        0.062      347.432       26.398      862.213
06/06/2013  09:39:00       -6.932       15.334       54.744       22.463       29.835       25.071      504.606      890.105      628.576        0.265        0.101       16.828       22.649        1.811      347.958       27.305      862.213
06/06/2013  09:40:00       24.912       25.719       27.838       33.492       38.123       26.573     1121.708     1453.358      706.122        0.267        0.164       35.806       26.476        0.547      347.098       25.821      862.204
06/06/2013  09:41:00       10.552       -2.753       17.887       26.293       32.598       25.497      691.305     1062.600      650.107        0.142        0.120       10.905       10.607        0.946      347.351       26.258      862.203
06/06/2013  09:42:00       11.178       12.096       36.685       31.296       27.144       22.884      979.452      736.818      523.677        0.193        0.112       16.470       11.344        0.474      347.833       27.090      862.190
06/06/2013  09:43:00       43.995       24.562       49.411       57.521       43.964       33.416     3308.701     1932.841     1116.660        0.567        0.318       50.387       15.969        0.100      347.449       26.426      862.195
06/06/2013  09:44:00        8.138      -12.580       15.879       38.491       43.751       27.007     1481.547     1914.170      729.394        0.230        0.206       14.983       23.097        2.376      347.566       26.629      862.183
06/06/2013  09:45:00       32.129       20.098       49.893       28.596       38.817       28.838      817.737     1506.729      831.622        0.354        0.158       37.897       25.720        0.461      347.760       26.963      862.186
06/06/2013  09:46:00       56.943       28.575       25.040       38.023       25.593       29.000     1445.754      654.991      841.004        0.381        0.147       63.711       17.935        0.079      347.213       26.019      862.166
06/06/2013  09:47:00       59.757      -17.121       19.504       32.713       38.698       36.098     1070.125     1497.518     1303.041        0.406        0.194       62.161       27.271        0.192      347.150       25.911      862.158
06/06/2013  09:48:00       45.643      -18.054       -7.203       45.985       36.963       29.796     2114.665     1366.293      887.817        0.341        0.218       49.084       24.796        0.255      347.018       25.684      862.151
06/06/2013  09:49:00       -5.216       -4.688        9.014       23.805       28.900       29.484      566.688      835.210      869.320        0.120        0.114        7.013       20.896        8.879      347.559       26.617      862.149
06/06/2013  09:50:00       -0.867      -20.087       24.900       37.611       72.761       41.360     1414.564     5294.227     1710.657        0.472        0.421       20.106       32.764        2.656      348.009       27.392      862.138
06/06/2013  09:51:00       42.659      -82.970        7.059       50.513       84.938       52.072     2551.555     7214.467     2711.505        1.061        0.624       93.295       60.997        0.427      347.735       26.920      862.142
06/06/2013  09:52:00       64.926      -37.377       11.435       35.394       76.446       51.063     1252.712     5843.943     2607.441        0.772        0.485       74.917       51.761        0.477      347.359       26.270      862.149
06/06/2013  09:53:00       51.667       66.700       43.752       33.757       34.299       35.982     1139.557     1176.446     1294.716        0.632        0.181       84.370       16.468        0.038      347.072       25.775      862.128
06/06/2013  09:54:00       47.880       63.563        3.860       34.575       31.879       27.284     1195.438     1016.243      744.394        0.465        0.148       79.579       22.697        0.081      347.582       26.656      862.125
06/06/2013  09:55:00       62.003       41.789       23.720       44.316       29.203       37.052     1963.884      852.814     1372.821        0.517        0.209       74.771       14.598        0.038      347.711       26.880      862.111
06/06/2013  09:56:00       56.124       42.935       31.569       48.540       29.040       21.868     2356.108      843.338      478.218        0.483        0.184       70.663       12.771        0.033      347.649       26.770      862.109
06/06/2013  09:57:00       11.298        7.381       47.579       23.974       46.768       24.030      574.747     2187.283      577.465        0.289        0.167       13.495       25.277        3.508      348.071       27.499      862.093
06/06/2013  09:58:00       21.526        4.670       40.840       26.610       42.125       33.833      708.097     1774.539     1144.693        0.289        0.181       22.027       26.416        1.438      348.293       27.885      862.083
06/06/2013  09:59:00       33.855       -4.836       51.309       31.156       55.288       29.950      970.698     3056.739      897.003        0.436        0.246       34.199       27.423        0.643      348.058       27.478      862.071
06/06/2013  10:00:00       42.963       10.865       28.930       33.378       36.699       29.496     1114.074     1346.823      870.017        0.307        0.167       44.315       22.159        0.250      347.691       26.845      862.059
06/06/2013  10:01:00       17.882       -9.517       29.966       24.037       27.427       25.682      577.785      752.215      659.567        0.165        0.099       20.257       16.374        0.653      347.849       27.117      862.054
06/06/2013  10:02:00       12.475       -3.300       42.375       32.674       68.699       37.539     1067.607     4719.597     1409.195        0.458        0.360       12.904       32.494        6.341      348.319       27.930      862.034
06/06/2013  10:03:00       28.126       -9.055       59.715       70.489      109.814       58.600     4968.682    12059.005     3433.931        1.245        1.023       29.548       71.621        5.875      347.967       27.320      862.026
06/06/2013  10:04:00        8.727       26.505       37.342       28.564       43.192       35.405      815.892     1865.506     1253.508        0.305        0.197       27.905       35.204        1.591      347.869       27.152      862.023
06/06/2013  10:05:00        5.218      -11.653        0.490       19.164       21.634       23.150      367.268      468.043      535.923        0.077        0.069       12.768       15.027        1.385      347.827       27.078      862.016
06/06/2013  10:06:00       10.185       17.179       47.544       25.090       29.466       22.591      629.507      868.265      510.373        0.233        0.100       19.971       11.709        0.344      348.678       28.551      862.001
06/06/2013  10:07:00       29.964       18.840       46.642       28.256       25.874       22.409      798.376      669.447      502.160        0.270        0.098       35.395       15.549        0.193      348.144       27.627      861.974
06/06/2013  10:08:00       23.381       28.167       34.393       35.251       25.134       30.405     1242.611      631.723      924.463        0.266        0.140       36.607       23.373        0.408      347.790       27.015      861.962
06/06/2013  10:09:00       27.012       12.869       28.322       47.710       43.872       38.746     2276.256     1924.788     1501.217        0.370        0.285       29.921       26.751        0.799      348.113       27.574      861.953
06/06/2013  10:10:00       22.116       32.114        3.960       40.226       20.309       34.256     1618.097      412.458     1173.497        0.237        0.160       38.993       14.651        0.141      347.828       27.081      861.956
06/06/2013  10:11:00        1.856       10.371       30.131       28.130       25.540       25.758      791.318      652.287      663.482        0.156        0.105       10.535       16.099        2.335      348.439       28.136      861.948
06/06/2013  10:12:00       50.785       15.037       50.178       38.099       39.009       28.689     1451.503     1521.671      823.032        0.456        0.190       52.964       25.770        0.237      347.739       26.926      861.936
06/06/2013  10:13:00       40.261      -19.355       21.501       48.368       54.923       26.763     2339.447     3016.567      716.238        0.426        0.304       44.672       15.284        0.117      347.569       26.634      861.937
06/06/2013  10:14:00      -36.877      -63.424       14.021       29.864       37.677       20.820      891.842     1419.541      433.489        0.416        0.137       73.366       22.392        0.093      347.863       27.141      861.930
06/06/2013  10:15:00      -73.958      -51.290        9.261       33.240       33.749       22.299     1104.882     1139.014      497.229        0.546        0.137       90.002       26.841        0.089      347.762       26.967      861.931
06/06/2013  10:16:00       15.429      -48.152       19.929       29.473       32.791       29.459      868.660     1075.244      867.818        0.288        0.141       50.564       17.152        0.115      347.761       26.964      861.938
06/06/2013  10:17:00       54.140       40.389       40.625       40.411       38.207       31.705     1633.078     1459.761     1005.212        0.515        0.205       67.545       10.814        0.026      348.009       27.394      861.934
06/06/2013  10:18:00       -6.304      -21.326       32.812       31.251       32.384       33.504      976.596     1048.754     1122.496        0.236        0.157       22.239       20.065        0.814      348.482       28.210      861.936
06/06/2013  10:19:00       15.565       25.833       62.845       37.105       37.389       30.382     1376.803     1397.938      923.082        0.428        0.185       30.160       17.296        0.329      348.613       28.438      861.934
06/06/2013  10:20:00       67.728       -6.488       21.021       36.525       28.142       29.929     1334.058      792.000      895.766        0.405        0.151       68.038       26.423        0.151      347.526       26.559      861.939
06/06/2013  10:21:00       42.429       56.103        8.548       30.518       31.743       29.362      931.360     1007.631      862.136        0.391        0.140       70.340       24.478        0.121      347.822       27.070      861.936
06/06/2013  10:22:00       23.012       -9.604       10.151       31.317       47.891       31.866      980.742     2293.503     1015.450        0.251        0.214       24.936       15.584        0.391      348.105       27.560      861.934
06/06/2013  10:23:00       36.663       55.707       22.919       32.977       30.939       31.391     1087.496      957.221      985.391        0.400        0.152       66.689       16.601        0.062      347.805       27.041      861.924
06/06/2013  10:24:00       41.836       66.474       -8.904       29.576       43.022       31.096      874.725     1850.857      966.984        0.497        0.185       78.543        9.725        0.015      347.974       27.334      861.915
06/06/2013  10:25:00       49.784       33.948        7.271       41.104       24.757       27.963     1689.547      612.900      781.954        0.338        0.154       60.257       21.111        0.123      348.167       27.666      861.915
06/06/2013  10:26:00       97.536       47.634        3.058       77.409       35.489       37.909     5992.104     1259.484     1437.105        1.024        0.434      108.546       34.151        0.099      348.278       27.858      861.910
06/06/2013  10:27:00       92.076       40.304       24.506       53.385       29.699       33.676     2849.932      882.042     1134.101        0.778        0.243      100.511       24.050        0.057      348.176       27.682      861.917
06/06/2013  10:28:00        8.386      -30.385       33.569       30.972       65.257       31.643      959.248     4258.418     1001.278        0.417        0.311       31.521       36.963        1.375      348.618       28.447      861.914
06/06/2013  10:29:00        8.265       -2.672        1.405       16.367       21.229       20.274      267.864      450.678      411.047        0.060        0.056        8.686       15.165        3.048      348.262       27.831      861.916
06/06/2013  10:30:00       30.975       22.136       27.760       47.133       35.546       35.715     2221.516     1263.510     1275.577        0.349        0.238       38.072       26.425        0.482      348.288       27.875      861.904
06/06/2013  10:31:00        0.876       -4.842       39.889       33.993       55.133       35.883     1155.558     3039.610     1287.555        0.355        0.274        4.920       34.780       49.967      348.491       28.227      861.909
06/06/2013  10:32:00        4.031       40.942       71.099       37.714       36.523       21.781     1422.339     1333.919      474.393        0.499        0.162       41.140       16.832        0.167      348.527       28.290      861.912
06/06/2013  10:33:00       -6.973        7.857       23.239       25.024       24.346       16.141      626.192      592.731      260.533        0.106        0.074       10.505       13.903        1.752      348.637       28.479      861.909
06/06/2013  10:34:00        8.228       -2.627       30.956       23.727       26.786       22.816      562.993      717.507      520.556        0.142        0.090        8.637        9.607        1.237      349.099       29.280      861.906
06/06/2013  10:35:00       16.475        7.063       27.294       29.684       33.420       30.115      881.117     1116.900      906.912        0.199        0.145       17.925       22.714        1.606      348.436       28.132      861.897
06/06/2013  10:36:00       16.680       -6.155       18.827       37.437       35.351       32.206     1401.536     1249.694     1037.208        0.218        0.184       17.780       23.831        1.797      348.497       28.238      861.894
06/06/2013  10:37:00        3.174        0.558       41.899       28.600       30.547       27.076      817.974      933.110      733.131        0.212        0.124        3.222       20.738       41.419      349.036       29.170      861.881
06/06/2013  10:38:00      -15.541       17.392       48.663       22.546       45.194       32.878      508.323     2042.515     1080.990        0.327        0.182       23.324       10.189        0.191      348.950       29.020      861.875
06/06/2013  10:39:00       58.163       65.568       55.590       79.426       50.683       39.721     6308.451     2568.786     1577.783        1.061        0.523       87.648       33.202        0.143      348.929       28.984      861.874
06/06/2013  10:40:00       29.471       59.105       62.557       49.224       40.089       29.461     2422.982     1607.113      867.921        0.659        0.245       66.045       26.487        0.161      349.052       29.197      861.877
06/06/2013  10:41:00       82.266       38.888       24.964       50.119       47.921       40.133     2511.909     2296.464     1610.667        0.766        0.321       90.995       20.455        0.051      348.457       28.167      861.863
06/06/2013  10:42:00       48.907       31.963       12.185       27.402       24.285       32.081      750.844      589.783     1029.213        0.297        0.118       58.425       18.445        0.100      348.742       28.661      861.863
06/06/2013  10:43:00       14.038       23.526       19.243       28.482       45.723       27.525      811.241     2090.557      757.600        0.239        0.183       27.396       31.341        1.309      349.041       29.180      861.849
06/06/2013  10:44:00       10.437       25.416       45.242       19.377       38.411       23.404      375.463     1475.416      547.727        0.260        0.120       27.476       25.447        0.858      348.933       28.992      861.851
06/06/2013  10:45:00       16.780        9.263       26.835       23.232       26.092       25.108      539.742      680.772      630.422        0.147        0.093       19.167       15.553        0.658      348.657       28.513      861.844
06/06/2013  10:46:00        2.338      -43.584       21.835       32.707       50.509       42.951     1069.764     2551.207     1844.812        0.392        0.273       43.647       28.389        0.423      348.807       28.774      861.840
06/06/2013  10:47:00       16.314      -34.948       40.576       38.770       52.698       41.069     1503.131     2777.084     1686.643        0.455        0.298       38.569       33.700        0.763      349.087       29.258      861.834
06/06/2013  10:48:00       42.907      -15.040       46.591       47.623       53.284       41.587     2267.963     2839.204     1729.444        0.554        0.342       45.467       36.545        0.646      349.155       29.377      861.835
06/06/2013  10:49:00       -9.224      -27.840       32.022       33.627       63.261       37.081     1130.752     4001.934     1374.985        0.420        0.325       29.329       13.522        0.213      348.940       29.004      861.828
06/06/2013  10:50:00       12.037      -57.996       12.822       40.828       52.902       34.373     1666.931     2798.626     1181.507        0.466        0.282       59.232       22.576        0.145      348.755       28.684      861.830
06/06/2013  10:51:00       30.378      -13.619       39.052       43.748       50.398       30.074     1913.853     2539.918      904.418        0.399        0.268       33.291       18.137        0.297      348.570       28.364      861.833
06/06/2013  10:52:00       30.980      -13.993       -6.082       23.784       23.954       22.516      565.690      573.812      506.950        0.142        0.082       33.994        4.906        0.021      347.931       27.257      861.826
06/06/2013  10:53:00        5.039      -23.577       11.069       22.719       36.612       33.875      516.173     1340.429     1147.493        0.185        0.150       24.110       20.050        0.692      348.741       28.659      861.822
06/06/2013  10:54:00       31.951      -25.240       22.391       30.910       67.565       31.874      955.401     4564.988     1015.982        0.435        0.327       40.718       36.091        0.786      348.751       28.675      861.820
06/06/2013  10:55:00       42.869      -57.926        8.598       52.807       87.577       50.085     2788.538     7669.654     2508.550        0.911        0.648       72.064       59.353        0.678      348.838       28.827      861.820
06/06/2013  10:56:00       -2.672      -38.591        9.639       43.445       41.633       30.709     1887.472     1733.319      943.045        0.308        0.228       38.684       26.383        0.465      348.569       28.360      861.812
06/06/2013  10:57:00      -54.181      -47.821        8.032       53.895       43.343       21.818     2904.687     1878.623      476.034        0.527        0.263       72.266       27.680        0.147      348.861       28.868      861.806
06/06/2013  10:58:00      -73.675      -72.110       12.644       42.737       27.973       29.123     1826.446      782.498      848.136        0.712        0.173      103.092       27.519        0.071      348.679       28.551      861.790
06/06/2013  10:59:00     -118.010      -60.805      -12.350       16.967       25.805       12.605      287.889      665.885      158.883        0.944        0.056      132.754        6.273        0.002      348.372       28.020      861.782
06/06/2013  11:00:00      -96.713       -9.834      -12.850       34.146       32.306       15.989     1165.966     1043.654      255.662        0.604        0.123       97.211       13.788        0.020      348.438       28.135      861.784
06/06/2013  11:01:00      -54.945      -32.530       -9.305       28.806       33.666       19.662      829.768     1133.426      386.607        0.326        0.117       63.853       16.842        0.070      348.518       28.274      861.781
06/06/2013  11:02:00      -39.433       15.102       16.017       34.835       14.765       23.131     1213.471      218.009      535.045        0.200        0.098       42.226       19.589        0.215      349.083       29.253      861.780
06/06/2013  11:03:00       29.099       25.545       35.561       38.261       27.359       24.396     1463.903      748.497      595.179        0.279        0.140       38.721       22.008        0.323      349.277       29.589      861.777
06/06/2013  11:04:00       39.997       28.339       26.771       32.378       25.015       36.993     1048.348      625.728     1368.508        0.308        0.152       49.019       25.793        0.277      348.826       28.807      861.777
06/06/2013  11:05:00      -23.351        9.966       -7.296       41.733       24.487       14.873     1741.613      599.637      221.221        0.163        0.128       25.389       10.459        0.170      348.722       28.626      861.773
06/06/2013  11:06:00      -79.683      -26.992       16.844       40.658       39.393       30.071     1653.101     1551.784      904.281        0.573        0.205       84.131       23.978        0.081      348.954       29.026      861.765
06/06/2013  11:07:00       48.271      -37.148       24.512       59.114       57.935       32.250     3494.440     3356.441     1040.063        0.610        0.395       60.910       34.642        0.323      349.332       29.681      861.759
06/06/2013  11:08:00       20.810     -150.151       -3.963       48.124       52.483       40.982     2315.920     2754.517     1679.493        1.487        0.337      151.586       38.312        0.064      348.957       29.032      861.755
06/06/2013  11:09:00       35.833     -120.209      -14.933       39.561       51.905       29.684     1565.046     2694.101      881.124        1.055        0.257      125.436       18.801        0.022      348.979       29.071      861.753
06/06/2013  11:10:00       40.779      -71.025       10.516       22.531       59.205       29.935      507.655     3505.183      896.080        0.586        0.245       81.899       23.235        0.080      348.887       28.914      861.739
06/06/2013  11:11:00       30.558       11.843       37.118       36.842       30.570       27.368     1357.297      934.531      749.027        0.275        0.152       32.773       25.383        0.600      349.457       29.900      861.726
06/06/2013  11:12:00       53.002       -8.128       22.057       35.379       52.736       32.545     1251.656     2781.121     1059.152        0.423        0.255       53.622       27.831        0.269      348.860       28.866      861.713
06/06/2013  11:13:00      101.954       19.719        7.587       73.272       83.730       39.864     5368.837     7010.722     1589.146        1.240        0.698      103.844       35.507        0.117      348.694       28.576      861.714
06/06/2013  11:14:00      168.527       71.653       19.004      114.132       71.484       49.917    13026.196     5109.917     2491.671        2.726        1.031      183.127       41.612        0.052      349.147       29.360      861.688
06/06/2013  11:15:00      174.292       99.453       20.665       70.380       38.491       42.892     4953.310     1481.552     1839.720        2.448        0.414      200.670       22.047        0.012      349.153       29.369      861.701
06/06/2013  11:16:00       54.342       61.306       -4.426       31.887       38.977       26.010     1016.756     1519.230      676.496        0.497        0.161       81.923       19.346        0.056      349.100       29.280      861.698
06/06/2013  11:17:00       51.227       17.901        7.313       33.091       18.965       30.643     1095.034      359.677      938.964        0.270        0.120       54.264       17.515        0.104      349.165       29.393      861.689
06/06/2013  11:18:00      -41.488       64.441       -7.345       32.472       56.636       32.368     1054.402     3207.586     1047.718        0.562        0.265       76.641       32.925        0.185      349.335       29.688      861.689
06/06/2013  11:19:00      -42.920       85.256       17.617       39.057       49.879       38.609     1525.458     2487.885     1490.648        0.746        0.275       95.450       31.623        0.110      349.698       30.317      861.662
06/06/2013  11:20:00        9.564       18.200       36.538       37.795       29.157       33.719     1428.485      850.138     1136.984        0.259        0.171       20.560       28.785        1.960      349.923       30.707      861.657
06/06/2013  11:21:00       29.986       29.409       24.644       40.513       30.058       23.160     1641.263      903.466      536.370        0.273        0.154       42.000       21.754        0.268      349.981       30.809      861.656
06/06/2013  11:22:00       63.956       -4.229        2.238       36.522       78.609       35.014     1333.877     6179.320     1225.999        0.642        0.437       64.096       14.760        0.053      349.049       29.191      861.651
06/06/2013  11:23:00       96.973      -48.314       16.296       71.922       61.657       45.975     5172.705     3801.537     2113.721        1.154        0.554      108.342       32.548        0.090      349.074       29.235      861.650
06/06/2013  11:24:00       97.491      -56.994       42.938       66.622       94.344       60.590     4438.533     8900.734     3671.100        1.580        0.851      112.929       63.522        0.316      349.607       30.159      861.633
06/06/2013  11:25:00       97.026     -146.276      -20.641       54.505       58.178       39.560     2970.747     3384.650     1565.018        1.958        0.396      175.530       32.663        0.035      349.274       29.580      861.642
06/06/2013  11:26:00        8.400      -19.576       21.589       31.446       47.172       32.992      988.836     2225.209     1088.479        0.261        0.215       21.302       28.934        1.845      349.571       30.098      861.634
06/06/2013  11:27:00       26.916      -45.264       23.306       56.067       68.570       50.768     3143.552     4701.786     2577.429        0.687        0.521       52.662       30.152        0.328      349.478       29.936      861.635
06/06/2013  11:28:00       31.260       24.818       67.363       40.722       46.025       48.099     1658.292     2118.276     2313.527        0.611        0.305       39.914       30.252        0.574      349.747       30.403      861.638
06/06/2013  11:29:00       83.777       33.895       54.124       54.864       46.159       46.059     3010.010     2130.670     2121.467        0.918        0.363       90.374       40.602        0.202      348.749       28.673      861.643
06/06/2013  11:30:00       18.811       21.534       -4.222       43.915       23.629       22.255     1928.535      558.318      495.303        0.191        0.149       28.593       15.188        0.282      349.154       29.374      861.646
06/06/2013  11:31:00      -19.470       27.729       28.502       41.911       24.913       32.129     1756.544      620.633     1032.261        0.268        0.170       33.882       20.008        0.349      349.773       30.448      861.624
06/06/2013  11:32:00       16.166       -4.259       13.392       54.645       30.995       32.358     2986.103      960.713     1047.037        0.273        0.250       16.718       30.413        3.309      348.910       28.952      861.619
06/06/2013  11:33:00       82.255        1.144       18.762       68.832       25.235       30.014     4737.840      636.808      900.826        0.670        0.314       82.263       26.795        0.106      349.370       29.749      861.623
06/06/2013  11:34:00       84.223       52.891       17.196       84.531       59.817       36.006     7145.488     3578.069     1296.405        1.110        0.601       99.453       19.899        0.040      349.523       30.012      861.601
06/06/2013  11:35:00       74.314       75.544       10.843       53.625       35.589       39.684     2875.654     1266.573     1574.844        0.853        0.286      105.970       23.683        0.050      349.721       30.358      861.604
06/06/2013  11:36:00       88.217       64.625       28.314       57.356       39.327       40.540     3289.706     1546.590     1643.508        0.962        0.324      109.356       29.991        0.075      349.594       30.136      861.597
06/06/2013  11:37:00       46.353       -5.143       11.598       26.109       40.434       25.912      681.688     1634.928      671.437        0.265        0.149       46.638       21.323        0.209      349.574       30.102      861.598
06/06/2013  11:38:00      113.286      -43.297       16.089       38.913       38.558       29.792     1514.225     1486.730      887.578        0.943        0.194      121.278       20.723        0.029      348.880       28.899      861.602
06/06/2013  11:39:00       81.990       92.026       65.696       63.086       58.944       42.970     3979.808     3474.437     1846.425        1.440        0.465      123.252       32.603        0.070      349.157       29.378      861.574
06/06/2013  11:40:00       25.604      -78.546       40.434      104.163       99.958       58.975    10850.033     9991.593     3478.094        1.638        1.216       82.614       54.900        0.442      349.742       30.393      861.555
06/06/2013  11:41:00        7.636      -97.116       -1.636       65.254       54.558       46.149     4258.131     2976.607     2129.737        0.943        0.468       97.416       35.451        0.132      349.753       30.413      861.583
06/06/2013  11:42:00       62.143       14.313       43.601       54.779       53.306       37.614     3000.717     2841.551     1414.807        0.661        0.363       63.770       40.859        0.411      349.761       30.426      861.568
06/06/2013  11:43:00       35.792      -44.719       12.747       33.623       42.930       31.291     1130.533     1842.962      979.144        0.370        0.198       57.279       27.157        0.225      349.675       30.277      861.564
06/06/2013  11:44:00       -6.907      -53.443       -3.342       57.115       36.332       32.259     3262.119     1320.034     1040.631        0.427        0.281       53.887       25.702        0.227      350.066       30.956      861.561
06/06/2013  11:45:00      -30.247      -58.884        4.725       48.880       40.292       32.459     2389.262     1623.439     1053.577        0.473        0.253       66.198       27.064        0.167      349.909       30.684      861.561
06/06/2013  11:46:00      -71.758      -38.743        7.508       42.331       41.724       23.912     1791.892     1740.908      571.797        0.540        0.205       81.549       15.725        0.037      349.766       30.435      861.565
06/06/2013  11:47:00      -81.825      -37.559        0.512       41.159       32.264       23.686     1694.087     1040.985      561.043        0.570        0.165       90.033       29.854        0.110      349.685       30.296      861.551
06/06/2013  11:48:00      -33.095      -18.814        3.109       42.221       31.372       26.810     1782.590      984.189      718.768        0.247        0.174       38.070       17.052        0.201      350.061       30.949      861.551
06/06/2013  11:49:00       -0.551      -17.874       14.542       41.639       43.144       33.509     1733.796     1861.410     1122.842        0.262        0.236       17.882       24.588        1.891      350.061       30.949      861.546
06/06/2013  11:50:00      -90.164      -25.234        7.192       86.308       59.121       35.680     7449.089     3495.326     1273.053        1.052        0.611       93.629       44.162        0.222      349.884       30.641      861.515
06/06/2013  11:51:00      -76.387       -3.740       15.619       52.019       59.558       31.569     2706.024     3547.168      996.573        0.667        0.362       76.479       20.946        0.075      350.015       30.867      861.506
06/06/2013  11:52:00      -93.111       25.873       -5.795       30.283       39.302       24.625      917.032     1544.683      606.391        0.622        0.153       96.639       14.737        0.023      349.533       30.030      861.500
06/06/2013  11:53:00      -22.119       35.531       26.943       18.296       25.148       26.249      334.760      632.432      689.017        0.207        0.083       41.853       11.977        0.082      350.491       31.695      861.484
06/06/2013  11:54:00      -53.564       26.905        9.680       27.124       23.108       24.055      735.705      533.979      578.654        0.277        0.092       59.941       18.874        0.099      349.963       30.777      861.477
06/06/2013  11:55:00      -18.532       -0.375       22.532       19.641       13.130       21.134      385.776      172.406      446.649        0.093        0.050       18.536       14.734        0.632      350.379       31.501      861.452
06/06/2013  11:56:00      -19.038      -33.015       -2.157       45.680       34.227       32.211     2086.700     1171.467     1037.523        0.288        0.215       38.110       21.286        0.312      349.898       30.666      861.445
06/06/2013  11:57:00       19.663      -70.245      -14.812       78.293       91.074       44.392     6129.726     8294.551     1970.680        1.096        0.820       72.945       47.887        0.431      349.868       30.614      861.433
06/06/2013  11:58:00       18.620     -115.150       -9.359       90.503       62.558       57.412     8190.806     3913.446     3296.131        1.454        0.770      116.646       47.118        0.163      350.014       30.867      861.421
06/06/2013  11:59:00       77.191     -162.357       -8.934       66.945       67.383       41.156     4481.619     4540.520     1693.779        2.155        0.536      179.773       38.225        0.045      349.705       30.326      861.444
06/06/2013  12:00:00      -61.900      -60.693        6.140       60.175       77.394       37.302     3621.080     5989.774     1391.411        0.928        0.550       86.691       25.118        0.084      349.771       30.445      861.444
06/06/2013  12:01:00      -42.956     -137.966       -9.210       60.712       67.327       38.384     3685.976     4532.898     1473.352        1.533        0.485      144.499       36.228        0.063      349.746       30.400      861.440
06/06/2013  12:02:00     -116.520      -96.451       -1.765       98.449       60.892       40.068     9692.156     3707.814     1605.443        1.894        0.750      151.261       34.273        0.051      349.661       30.251      861.441
06/06/2013  12:03:00     -109.058      -38.268      -19.569       17.775       18.932       16.807      315.963      358.406      282.461        0.735        0.048      115.577        3.812        0.001      349.452       29.891      861.428
06/06/2013  12:04:00     -135.876      -13.967       -7.917       23.360       29.739       24.989      545.708      884.402      624.440        1.039        0.103      136.592       10.790        0.006      349.546       30.053      861.420
06/06/2013  12:05:00     -162.020       17.963      -16.577       38.467       25.435       17.049     1479.730      646.964      290.656        1.463        0.121      163.013       18.001        0.012      349.426       29.846      861.391
06/06/2013  12:06:00     -112.209       34.623       -5.806       56.194       38.366       26.132     3157.745     1471.928      682.863        0.957        0.266      117.429       29.543        0.063      349.841       30.566      861.380
06/06/2013  12:07:00        5.108       11.832       22.791       31.520       37.919       24.077      993.506     1437.873      579.706        0.185        0.151       12.888       15.642        1.473      350.596       31.878      861.362
06/06/2013  12:08:00      -27.675        3.450       13.352       36.131       39.151       34.210     1305.449     1532.782     1170.313        0.248        0.200       27.889       29.812        1.143      350.499       31.709      861.350
06/06/2013  12:09:00      -44.968       41.520        6.799       46.880       29.152       27.178     2197.779      849.827      738.654        0.379        0.189       61.205       21.779        0.127      350.326       31.408      861.338
06/06/2013  12:10:00       13.827       40.489       20.791       79.955       67.400       41.995     6392.747     4542.816     1763.613        0.748        0.635       42.785       35.609        0.693      350.745       32.137      861.308
06/06/2013  12:11:00       19.313      -29.328       16.077       52.714       63.117       32.154     2778.796     3983.744     1033.874        0.464        0.390       35.116       15.259        0.189      350.435       31.597      861.310
06/06/2013  12:12:00       12.522      -61.338       29.881       49.567       78.257       43.264     2456.896     6124.186     1871.746        0.763        0.523       62.603       39.639        0.401      350.440       31.607      861.289
06/06/2013  12:13:00      -82.185     -135.170       16.083       69.222       94.607       47.391     4791.699     8950.440     2245.893        2.063        0.799      158.194       51.167        0.105      350.354       31.455      861.286
06/06/2013  12:14:00       48.994      -46.050       36.512       65.444      104.020       58.330     4282.865    10820.176     3402.414        1.218        0.925       67.238       67.343        1.003      350.297       31.356      861.289
06/06/2013  12:15:00       52.531     -102.857       20.162       62.615       95.989       47.683     3920.636     9213.958     2273.685        1.457        0.770      115.495       57.923        0.252      350.186       31.164      861.282
06/06/2013  12:16:00       70.487      -41.383       19.827       55.316       55.837       43.661     3059.805     3117.818     1906.279        0.758        0.404       81.737       34.788        0.181      349.872       30.620      861.289
06/06/2013  12:17:00       93.009      -54.986       16.505       66.387       68.687       43.496     4407.240     4717.880     1891.861        1.148        0.551      108.047       48.286        0.200      349.919       30.700      861.288
06/06/2013  12:18:00       11.467       34.502       59.207       37.812       38.850       24.696     1429.716     1509.353      609.898        0.419        0.177       36.358       22.991        0.400      350.122       31.054      861.295
06/06/2013  12:19:00       21.280       16.472       28.680       27.774       38.129       22.184      771.408     1453.818      492.148        0.213        0.136       26.910       11.965        0.198      349.724       30.363      861.283
06/06/2013  12:20:00       33.549        2.358       17.690       30.055       48.295       27.286      903.291     2332.430      744.503        0.271        0.199       33.632        4.052        0.015      350.067       30.958      861.273
06/06/2013  12:21:00       32.070       22.859       34.091       29.032       23.819       23.071      842.872      567.343      532.274        0.233        0.097       39.384       21.305        0.293      350.365       31.475      861.272
06/06/2013  12:22:00      -10.379       23.832       39.197       18.729       32.396       28.465      350.771     1049.506      810.274        0.221        0.111       25.994       26.439        1.035      350.289       31.342      861.245
06/06/2013  12:23:00       25.987       11.127       18.530       33.095       37.007       32.024     1095.266     1369.550     1025.534        0.232        0.175       28.269       27.561        0.951      349.741       30.392      861.228
06/06/2013  12:24:00      -39.981       59.555      -18.622       39.377       38.875       22.151     1550.566     1511.249      490.674        0.452        0.178       71.730       12.566        0.031      349.971       30.791      861.219
06/06/2013  12:25:00     -190.013      -98.583       -6.814      105.923       98.766       44.899    11219.718     9754.782     2015.934        3.443        1.150      214.064       51.355        0.058      350.229       31.238      861.206
06/06/2013  12:26:00     -261.733     -197.523       -4.098      138.827       95.772       57.233    19272.853     9172.227     3275.614        6.962        1.586      327.902       61.206        0.035      350.056       30.935      861.194
06/06/2013  12:27:00     -223.425     -213.286       -6.643      138.466       83.744       64.106    19172.727     7013.006     4109.525        6.287        1.515      308.884       74.858        0.059      349.868       30.608      861.188
06/06/2013  12:28:00     -219.515     -179.164        1.260       91.511       82.511       49.925     8374.320     6808.070     2492.487        4.898        0.884      283.349       49.298        0.030      349.861       30.596      861.196
06/06/2013  12:29:00     -211.361     -180.151        3.708      114.194      106.760       60.180    13040.334    11397.614     3621.578        5.259        1.403      277.719       61.605        0.049      349.986       30.815      861.188
06/06/2013  12:30:00     -259.996     -234.901      -10.665      102.438       86.327       58.686    10493.475     7452.430     3444.045        7.214        1.069      350.394       52.567        0.023      349.780       30.456      861.184
06/06/2013  12:31:00     -249.553      -81.084      -24.707       79.817       73.881       34.707     6370.719     5458.403     1204.582        4.125        0.652      262.395       27.425        0.011      349.837       30.553      861.212
06/06/2013  12:32:00     -150.656      -98.783        2.189       74.548       67.901       36.431     5557.472     4610.609     1327.221        2.198        0.575      180.154       46.104        0.065      350.078       30.974      861.206
06/06/2013  12:33:00     -159.992      -86.062       -9.009       61.212       48.492       32.730     3746.901     2351.521     1071.246        2.013        0.358      181.670       32.087        0.031      349.779       30.456      861.196
06/06/2013  12:34:00      -51.791      -24.548        1.499       44.491       21.784       21.605     1979.463      474.541      466.777        0.310        0.146       57.314       14.387        0.063      350.038       30.908      861.182
06/06/2013  12:35:00      -41.667      -29.456        0.523       72.364       42.965       24.634     5236.497     1845.974      606.852        0.515        0.384       51.027       27.464        0.290      349.974       30.796      861.168
06/06/2013  12:36:00      -23.829        2.759       -4.086       13.112       13.064       13.921      171.915      170.665      193.806        0.056        0.027       23.989       10.162        0.179      350.189       31.169      861.138
06/06/2013  12:37:00      -95.805       23.489       -4.475       39.319       27.437       22.019     1546.011      752.777      484.823        0.627        0.139       98.642       16.461        0.028      350.006       30.852      861.120
06/06/2013  12:38:00      -60.819       60.943       -3.792       42.821       41.812       41.661     1833.636     1748.279     1735.622        0.637        0.266       86.098       37.506        0.190      350.227       31.238      861.099
06/06/2013  12:39:00       63.399       78.174       -5.730       57.306       33.713       35.266     3283.943     1136.548     1243.700        0.791        0.283      100.651       28.723        0.081      350.055       30.936      861.055
06/06/2013  12:40:00       28.245      -86.348        4.587       48.527       46.470       33.968     2354.900     2159.444     1153.820        0.697        0.283       90.850       28.234        0.097      350.071       30.965      861.074
06/06/2013  12:41:00       -0.030      -38.881       32.351       76.174       78.202       50.988     5802.484     6115.581     2599.727        0.854        0.726       38.881       48.783        1.574      350.542       31.784      861.059
06/06/2013  12:42:00      -93.169     -124.811       12.584       98.854       90.561       51.672     9772.035     8201.315     2670.006        2.253        1.032      155.751       42.289        0.074      350.472       31.660      861.078
06/06/2013  12:43:00     -141.019     -128.911       -0.270       85.301       98.930       42.749     7276.270     9787.151     1827.514        2.769        0.945      191.061       46.951        0.060      350.373       31.487      861.069
06/06/2013  12:44:00     -123.693      -82.402       12.803      118.272       82.226       43.739    13988.246     6761.162     1913.078        2.245        1.133      148.627       54.604        0.135      350.585       31.856      861.077
06/06/2013  12:45:00     -106.016     -108.036       12.490      117.934       82.296       50.062    13908.446     6772.619     2506.198        2.312        1.159      151.364       58.681        0.150      350.659       31.985      861.070
06/06/2013  12:46:00     -225.303     -128.182      -10.270      122.960       92.066       56.342    15119.115     8476.200     3174.430        4.703        1.338      259.215       63.706        0.060      350.266       31.299      861.056
06/06/2013  12:47:00     -126.071      -54.687       11.923       87.263       61.475       39.607     7614.803     3779.136     1568.751        1.599        0.648      137.421       47.995        0.122      350.640       31.953      861.063
06/06/2013  12:48:00      -49.719      -41.168       11.038       40.598       43.411       28.246     1648.172     1884.552      797.809        0.431        0.217       64.550       13.855        0.046      350.540       31.779      861.064
06/06/2013  12:49:00      -24.363       17.481        7.246       28.376       45.899       20.064      805.183     2106.680      402.556        0.213        0.166       29.986       16.796        0.314      350.818       32.264      861.057
06/06/2013  12:50:00       21.595       21.395       31.859       40.800       35.197       36.357     1664.656     1238.799     1321.836        0.308        0.211       30.399       22.168        0.532      350.834       32.294      861.053
06/06/2013  12:51:00       14.067       37.053       24.146       45.792       44.650       31.250     2096.942     1993.660      976.553        0.361        0.253       39.634       17.043        0.185      350.554       31.806      861.039
06/06/2013  12:52:00      -52.128       -1.615        3.321       25.755       28.223       21.927      663.295      796.519      480.791        0.234        0.097       52.153       16.408        0.099      350.761       32.164      861.037
06/06/2013  12:53:00      -15.108      -64.122       10.046       68.490       72.512       44.799     4690.880     5258.048     2006.924        0.820        0.598       65.878       36.824        0.312      350.675       32.014      861.022
06/06/2013  12:54:00      -64.113     -142.460        4.149       84.310      117.215       34.887     7108.096    13739.298     1217.075        2.324        1.103      156.222       34.346        0.048      350.222       31.224      861.024
06/06/2013  12:55:00      -29.900      -36.424        6.859       77.442       89.331       36.230     5997.207     7980.072     1312.580        0.878        0.764       47.124       45.171        0.919      351.012       32.602      861.007
06/06/2013  12:56:00     -170.711     -129.169        0.047      119.926       77.685       55.034    14382.328     6034.935     3028.732        3.463        1.172      214.072       54.781        0.065      350.250       31.272      860.987
06/06/2013  12:57:00     -252.948     -102.580       -0.424       97.949       98.153       54.456     9593.991     9633.928     2965.417        4.835        1.110      272.957       52.439        0.037      350.237       31.251      860.990
06/06/2013  12:58:00     -167.816      -78.623        9.053       94.460       90.820       53.244     8922.776     8248.252     2834.878        2.721        1.000      185.321       57.573        0.097      350.365       31.473      860.983
06/06/2013  12:59:00     -218.843      -57.620       -5.921       60.253       67.397       35.515     3630.377     4542.397     1261.320        3.034        0.472      226.301       28.688        0.016      350.137       31.076      860.974
06/06/2013  13:00:00     -111.050       10.132        0.278       47.846       60.699       31.684     2289.258     3684.358     1003.848        0.970        0.349      111.511       29.256        0.069      350.181       31.156      860.975
06/06/2013  13:01:00       12.295       40.754       42.075       41.949       55.032       35.587     1759.745     3028.494     1266.425        0.482        0.303       42.569       23.521        0.305      351.184       32.900      860.942
06/06/2013  13:02:00      -10.490      -21.687       49.861       37.023       38.855       24.935     1370.687     1509.731      621.768        0.328        0.175       24.090       19.861        0.680      350.943       32.481      860.923
06/06/2013  13:03:00      -17.045        1.332       44.111       30.719       55.513       29.552      943.651     3081.654      873.340        0.357        0.245       17.097       24.796        2.103      350.580       31.850      860.923
06/06/2013  13:04:00        0.364      -25.276       17.548       43.182       72.194       32.204     1864.648     5212.020     1037.120        0.453        0.406       25.279       26.690        1.115      350.706       32.068      860.905
06/06/2013  13:05:00     -160.776      -37.899       -3.662       81.816       55.309       37.533     6693.841     3059.038     1408.738        1.923        0.558      165.182       45.703        0.077      350.644       31.960      860.894
06/06/2013  13:06:00     -134.125      -25.989      -10.450       93.138       66.557       37.979     8674.638     4429.830     1442.384        1.666        0.727      136.620       37.256        0.074      350.646       31.964      860.899
06/06/2013  13:07:00     -140.251      -30.863       10.170       72.527       59.098       37.242     5260.104     3492.623     1387.000        1.543        0.507      143.607       37.271        0.067      350.553       31.802      860.897
06/06/2013  13:08:00     -168.685      -87.850        5.923      124.394       61.006       48.463    15473.937     3721.735     2348.676        2.887        1.077      190.190       57.479        0.091      350.612       31.904      860.883
06/06/2013  13:09:00     -204.192      -22.837       -4.835      109.611       63.527       44.804    12014.541     4035.731     2007.362        3.014        0.903      205.465       47.350        0.053      350.485       31.682      860.869
06/06/2013  13:10:00     -330.826     -106.600      -13.388       91.164       74.281       42.585     8310.915     5517.720     1813.488        6.831        0.782      347.577       42.226        0.015      350.152       31.103      860.831
06/06/2013  13:11:00     -173.094      -36.583       -1.364      101.373      104.231       45.088    10276.470    10864.082     2032.926        2.723        1.159      176.918       45.817        0.067      350.613       31.904      860.824
06/06/2013  13:12:00     -192.752      -93.162       -2.400       81.068       55.664       42.523     6571.950     3098.456     1808.214        2.866        0.574      214.085       39.466        0.034      350.372       31.486      860.852
06/06/2013  13:13:00     -127.797      -69.266        2.722       58.400       47.409       30.479     3410.597     2247.615      928.958        1.386        0.329      145.361       28.845        0.039      350.260       31.292      860.850
06/06/2013  13:14:00      -32.531      -67.621      -16.586       41.211       67.492       19.813     1698.360     4555.218      392.549        0.627        0.332       75.039       19.218        0.066      350.164       31.126      860.836
06/06/2013  13:15:00      -63.757       19.225      -20.122       26.168       23.233       17.298      684.748      539.769      299.206        0.318        0.076       66.593        7.747        0.014      350.333       31.421      860.819
06/06/2013  13:16:00       -9.824       58.523       10.018       26.183       47.365       31.898      685.567     2243.405     1017.513        0.378        0.197       59.342       28.557        0.232      350.862       32.343      860.820
06/06/2013  13:17:00     -188.042      193.151      -41.986       74.361       61.701       46.113     5529.620     3807.048     2126.401        4.294        0.573      269.569       48.479        0.032      350.224       31.226      860.794
06/06/2013  13:18:00      -22.569      122.073       -9.197       69.966       63.706       38.397     4895.218     4058.507     1474.335        1.296        0.521      124.141       39.341        0.100      350.525       31.755      860.778
06/06/2013  13:19:00        6.945     -184.687        6.807       45.318       96.309       29.506     2053.748     9275.443      870.623        2.320        0.610      184.817       26.502        0.021      350.084       30.985      860.804
06/06/2013  13:20:00       46.930       -1.492       12.220       27.191       47.945       32.497      739.324     2298.680     1056.024        0.322        0.205       46.954       23.950        0.260      350.198       31.186      860.780
06/06/2013  13:21:00     -163.525       46.328       -4.205      165.490       84.269       47.135    27387.069     7101.277     2221.703        3.280        1.836      169.961       58.829        0.120      350.368       31.478      860.769
06/06/2013  13:22:00     -178.141      -15.470       -9.252       98.939       71.043       46.348     9788.902     5047.052     2148.140        2.452        0.849      178.812       48.509        0.074      350.707       32.068      860.744
06/06/2013  13:23:00     -117.570      -76.825       14.135      115.385      113.840       49.906    13313.687    12959.585     2490.584        2.434        1.438      140.445       63.739        0.206      350.954       32.498      860.739
06/06/2013  13:24:00     -143.029      -60.150       12.667      116.094       92.189       49.410    13477.754     8498.815     2441.362        2.432        1.221      155.162       56.714        0.134      350.693       32.045      860.748
06/06/2013  13:25:00     -136.002      -54.140        2.282       79.556       68.361       43.257     6329.229     4673.203     1871.191        1.715        0.644      146.382       47.601        0.106      350.444       31.612      860.733
06/06/2013  13:26:00     -120.764     -137.511        0.239       70.783       42.754       29.887     5010.275     1827.870      893.226        2.061        0.387      183.012       33.765        0.034      350.246       31.267      860.724
06/06/2013  13:27:00      -19.058      -65.297       -3.085       32.442       31.495       21.822     1052.501      991.931      476.198        0.358        0.126       68.021       15.418        0.051      350.258       31.290      860.697
06/06/2013  13:28:00      -57.147      -12.142        5.285       56.863       45.407       26.021     3233.404     2061.800      677.086        0.471        0.299       58.423       24.594        0.177      350.534       31.768      860.682
06/06/2013  13:29:00     -137.296      -48.233       -9.368       74.026       66.153       30.176     5479.914     4376.203      910.577        1.601        0.538      145.522       20.250        0.019      350.745       32.137      860.691
06/06/2013  13:30:00     -214.884      -79.016       -3.304       94.074       65.620       40.648     8849.894     4306.015     1652.227        3.362        0.740      228.952       47.103        0.042      350.780       32.194      860.689
06/06/2013  13:31:00     -165.340     -171.848        0.416      116.044       92.157       63.165    13466.221     8492.905     3989.854        4.140        1.297      238.472       62.954        0.070      350.507       31.718      860.688
06/06/2013  13:32:00     -164.291     -125.145       -3.551       96.632       74.969       54.916     9337.733     5620.407     3015.799        3.032        0.899      206.525       61.237        0.088      350.557       31.806      860.678
06/06/2013  13:33:00     -191.949      -84.122      -13.536       77.512       57.033       35.626     6008.033     3252.753     1269.244        2.732        0.527      209.574       27.715        0.017      350.396       31.528      860.667
06/06/2013  13:34:00     -380.119      -87.543      -18.581      116.779       57.631       48.712    13637.224     3321.275     2372.817        8.591        0.967      390.069       41.201        0.011      350.474       31.661      860.647
06/06/2013  13:35:00     -250.340      -89.080       -4.599       97.291       64.207       41.307     9465.610     4122.555     1706.243        4.296        0.765      265.717       32.093        0.015      350.686       32.031      860.646
06/06/2013  13:36:00     -234.255     -110.895       -9.008       92.648       93.916       42.811     8583.739     8820.305     1832.813        4.324        0.962      259.178       32.818        0.016      350.848       32.314      860.630
06/06/2013  13:37:00     -262.615       12.272      -22.493       72.179       81.136       42.129     5209.842     6582.993     1774.866        4.159        0.678      262.902       35.741        0.018      350.693       32.043      860.636
06/06/2013  13:38:00     -428.207       86.332      -45.880      134.573       59.521       47.150    18109.837     3542.711     2223.132       10.839        1.194      436.824       51.165        0.014      350.345       31.438      860.606
06/06/2013  13:39:00     -251.102       40.879      -22.622       68.392       58.738       36.105     4677.485     3450.139     1303.604        3.733        0.472      254.408       37.496        0.022      350.495       31.697      860.617
06/06/2013  13:40:00     -237.203      -76.501      -15.420       79.854       77.667       34.027     6376.609     6032.117     1157.862        3.796        0.678      249.234       29.120        0.014      350.503       31.713      860.616
06/06/2013  13:41:00     -275.756     -114.854      -17.927       51.664       60.186       35.766     2669.173     3622.371     1279.182        4.856        0.379      298.719       22.832        0.006      350.314       31.383      860.621
06/06/2013  13:42:00     -176.048      -10.324      -14.010       69.711       51.172       28.877     4859.646     2618.530      833.891        1.980        0.416      176.350       18.376        0.011      350.438       31.602      860.628
06/06/2013  13:43:00     -140.000       16.351        9.990      126.026       33.952       32.942    15882.505     1152.725     1085.159        1.904        0.906      140.952       45.618        0.105      350.779       32.196      860.601
06/06/2013  13:44:00     -194.689       72.583       -7.786      100.025       83.712       45.221    10005.061     7007.709     2044.903        3.114        0.953      207.779       43.556        0.044      350.749       32.142      860.572
06/06/2013  13:45:00     -286.711      -23.493      -32.922      100.607       85.151       43.213    10121.788     7250.714     1867.323        5.154        0.962      287.672       45.763        0.025      350.621       31.918      860.561
06/06/2013  13:46:00      -91.423       -0.888       20.318      127.324       61.596       51.218    16211.338     3794.120     2623.320        1.570        1.131       91.428       64.752        0.502      351.172       32.880      860.543
06/06/2013  13:47:00     -144.191       -4.978       -8.867       56.115       50.418       31.918     3148.946     2542.017     1018.789        1.380        0.335      144.277       33.839        0.055      350.609       31.900      860.549
06/06/2013  13:48:00      -26.714       13.249       29.626       73.811       82.099       37.449     5447.995     6740.288     1402.421        0.768        0.680       29.819       37.897        1.615      350.926       32.451      860.512
06/06/2013  13:49:00      -35.243       41.202       11.888       78.498       85.586       41.307     6161.877     7324.901     1706.285        0.913        0.760       54.219       42.466        0.613      351.171       32.879      860.490
06/06/2013  13:50:00     -114.861      -19.041        7.993       80.688       63.998       46.884     6510.567     4095.695     2198.068        1.321        0.640      116.428       37.225        0.102      351.193       32.916      860.475
06/06/2013  13:51:00     -130.245       35.360      -20.388       53.924       54.471       34.444     2907.745     2967.071     1186.391        1.284        0.353      134.959        9.263        0.005      350.799       32.231      860.475
06/06/2013  13:52:00       -0.598       53.018       -2.239       39.773       47.750       42.184     1581.857     2280.061     1779.488        0.423        0.282       53.021       27.297        0.265      350.833       32.290      860.467
06/06/2013  13:53:00      -24.520       76.926       25.971       43.626       55.373       38.273     1903.207     3066.199     1464.807        0.681        0.322       80.739       33.381        0.171      351.041       32.653      860.449
06/06/2013  13:54:00      -57.890      124.927        1.178       48.015       70.719       41.884     2305.436     5001.187     1754.275        1.401        0.453      137.688       37.359        0.074      351.225       32.972      860.456
06/06/2013  13:55:00      -53.832      116.043        8.017       40.676       64.470       38.898     1654.513     4156.385     1513.074        1.187        0.366      127.922       35.556        0.077      351.175       32.887      860.448
06/06/2013  13:56:00      -41.988      155.344       -2.546       53.554       57.534       41.518     2868.017     3310.176     1723.768        1.690        0.395      160.918       32.563        0.041      350.788       32.210      860.442
06/06/2013  13:57:00      -95.967      144.811      -12.824       54.799       52.976       44.317     3002.974     2806.439     1963.986        1.906        0.389      173.723       45.002        0.067      350.734       32.118      860.436
06/06/2013  13:58:00     -115.913       42.770      -21.186       56.816       38.446       29.537     3228.036     1478.086      872.460        1.065        0.279      123.552        9.325        0.006      350.585       31.858      860.426
06/06/2013  13:59:00      -28.088       34.443       -2.862       31.162       37.962       26.047      971.072     1441.087      678.442        0.254        0.155       44.444       22.163        0.249      351.023       32.621      860.398
06/06/2013  14:00:00       13.950      -15.433      -30.059       74.703       49.509       44.478     5580.596     2451.092     1978.278        0.567        0.500       20.804       37.313        3.217      350.557       31.810      860.385
06/06/2013  14:01:00       60.550        4.758       43.511       57.589       66.341       41.282     3316.520     4401.138     1704.214        0.750        0.471       60.736       33.316        0.301      350.548       31.794      860.366
06/06/2013  14:02:00       56.788      -22.983       19.192       58.363       49.507       48.774     3406.263     2450.978     2378.933        0.618        0.412       61.262       27.052        0.195      350.690       32.040      860.369
06/06/2013  14:03:00      105.324      -12.352       48.578       85.613       72.289       56.307     7329.619     5225.737     3170.516        1.466        0.786      106.046       56.265        0.282      350.721       32.095      860.356
06/06/2013  14:04:00       44.620      -70.653       45.244       89.160      117.628       96.184     7949.557    13836.405     9251.323        2.003        1.552       83.564       93.285        1.246      351.138       32.820      860.327
06/06/2013  14:05:00       79.061      -92.557       43.121      100.112      142.991       92.579    10022.394    20446.437     8570.807        2.785        1.952      121.727       92.894        0.582      351.119       32.787      860.289
06/06/2013  14:06:00        7.861      -98.048       19.342      116.417      108.306       68.677    13552.907    11730.103     4716.502        2.002        1.500       98.363       62.198        0.400      351.074       32.709      860.318
06/06/2013  14:07:00      -97.357     -179.900       -3.975      134.688      101.786       50.444    18140.737    10360.449     2544.633        3.645        1.552      204.554       47.519        0.054      350.859       32.334      860.333
06/06/2013  14:08:00     -111.893     -174.399        9.822       94.588      109.498       62.254     8946.810    11989.877     3875.618        3.392        1.241      207.207       65.713        0.101      350.855       32.326      860.338
06/06/2013  14:09:00     -142.493     -124.864        1.047       97.954       87.932       61.903     9595.030     7732.018     3832.018        2.852        1.058      189.460       51.162        0.073      350.677       32.015      860.355
06/06/2013  14:10:00     -155.515      -29.142      -18.696       67.179       47.089       36.793     4512.962     2217.418     1353.711        1.673        0.404      158.222       36.349        0.053      350.614       31.907      860.318
06/06/2013  14:11:00     -173.966     -114.614      -11.289       48.567       64.779       34.229     2358.717     4196.272     1171.625        2.563        0.386      208.328       31.467        0.023      350.608       31.896      860.290
06/06/2013  14:12:00      -93.050      -65.986        7.224       58.623       61.004       37.716     3436.675     3721.435     1422.497        1.082        0.429      114.072       36.927        0.105      350.663       31.994      860.251
06/06/2013  14:13:00      -93.214     -108.048       -2.442       78.707       51.592       41.332     6194.781     2661.695     1708.325        1.546        0.528      142.700       42.435        0.088      350.587       31.860      860.228
06/06/2013  14:14:00        1.002       -6.162       18.398       81.599       69.360       55.183     6658.457     4810.787     3045.198        0.744        0.726        6.243       47.749       58.495      350.746       32.138      860.196
06/06/2013  14:15:00       16.665       38.234       30.294       42.026       26.802       25.393     1766.170      718.330      644.821        0.289        0.156       41.708       18.083        0.188      350.891       32.391      860.189
06/06/2013  14:16:00       49.305       19.537        9.414       53.060       88.282       53.944     2815.341     7793.672     2909.957        0.821        0.676       53.035       45.045        0.721      350.834       32.293      860.187
06/06/2013  14:17:00       11.621     -130.220      -12.725       40.668       52.635       42.948     1653.878     2770.446     1844.570        1.176        0.313      130.738       39.915        0.093      350.845       32.310      860.177
06/06/2013  14:18:00        2.065      -97.229       -8.451       69.856       67.037       33.759     4879.847     4493.970     1139.639        1.002        0.526       97.251       36.535        0.141      350.754       32.150      860.169
06/06/2013  14:19:00        3.477      -49.706      -14.256       94.229       48.362       27.716     8879.112     2338.838      768.158        0.733        0.599       49.828       36.401        0.534      350.892       32.393      860.148
06/06/2013  14:20:00     -172.901     -145.412       -1.803      149.527      118.617       51.685    22358.247    14070.003     2671.312        4.506        1.955      225.919       63.220        0.078      351.229       32.979      860.133
06/06/2013  14:21:00     -101.823     -190.543       12.125      128.640      102.338       60.378    16548.181    10473.105     3645.550        3.874        1.533      216.043       60.100        0.077      351.004       32.585      860.125
06/06/2013  14:22:00      -28.421     -121.692       -5.212       50.305      109.316       36.155     2530.584    11949.997     1307.205        1.571        0.789      124.967       44.362        0.126      350.944       32.482      860.128
06/06/2013  14:23:00     -106.839      -99.838        3.769       72.993       60.976       40.713     5328.024     3718.090     1657.564        1.605        0.535      146.226       31.441        0.046      351.266       33.044      860.108
06/06/2013  14:24:00     -157.376      -53.394       18.939      117.090       86.315       44.103    13710.164     7450.272     1945.064        2.554        1.155      166.187       47.394        0.081      351.081       32.719      860.109
06/06/2013  14:25:00     -137.351      -30.996        9.646      126.804       66.064       42.445    16079.265     4364.437     1801.546        2.108        1.112      140.805       47.859        0.116      351.100       32.756      860.096
06/06/2013  14:26:00      -72.826     -100.537      -16.770      108.078       84.542       56.960    11680.945     7147.341     3244.407        1.888        1.104      124.143       50.722        0.167      351.166       32.868      860.099
06/06/2013  14:27:00      -23.395      -59.755        1.331       91.301       75.419       53.879     8335.950     5688.019     2902.929        1.052        0.846       64.172       39.617        0.381      351.175       32.885      860.095
06/06/2013  14:28:00       54.102     -121.228        0.108       91.575       71.454       48.365     8386.053     5105.703     2339.176        1.672        0.792      132.752       52.276        0.155      350.832       32.287      860.075
06/06/2013  14:29:00        8.775      -60.786       37.097       61.883      109.422       59.138     3829.532    11973.277     3497.255        1.222        0.965       61.416       69.011        1.263      350.888       32.385      860.031
06/06/2013  14:30:00      113.950     -149.620       -8.651       56.829       53.872       38.309     3229.585     2902.187     1467.616        2.152        0.380      188.071       27.040        0.021      350.860       32.335      860.018
06/06/2013  14:31:00      -34.737      -99.024       13.230       75.042       80.871       43.205     5631.328     6540.074     1866.652        1.261        0.702      104.940       34.548        0.108      351.369       33.224      860.002
06/06/2013  14:32:00       16.947     -127.654        4.846       89.618       89.057       58.128     8031.396     7931.130     3378.813        1.797        0.967      128.774       44.985        0.122      351.495       33.443      860.001
06/06/2013  14:33:00      -61.623     -264.099       -7.589       60.593       62.825       49.177     3671.458     3947.009     2418.412        4.182        0.502      271.193       24.616        0.008      350.821       32.264      860.019
06/06/2013  14:34:00       61.783     -111.344        4.160       77.782      101.597       53.395     6049.978    10322.021     2851.061        1.772        0.961      127.337       58.495        0.211      350.832       32.286      860.003
06/06/2013  14:35:00       31.574      -78.078       12.263       52.207       83.028       43.942     2725.525     6893.730     1930.911        0.939        0.578       84.221       46.670        0.307      351.079       32.717      859.980
06/06/2013  14:36:00       54.309      -39.518       41.322       74.926      110.838       66.310     5613.923    12284.957     4396.958        1.425        1.115       67.164       82.681        1.515      351.041       32.650      859.947
06/06/2013  14:37:00        3.571     -104.014        0.953       53.882       77.807       47.644     2903.229     6053.956     2269.983        1.103        0.561      104.075       39.922        0.147      350.941       32.479      859.926
06/06/2013  14:38:00       -3.332      -83.504       17.829       85.867       60.982       47.512     7373.180     3718.836     2257.421        1.032        0.667       83.570       41.260        0.244      351.441       33.350      859.938
06/06/2013  14:39:00     -143.776     -115.421      -17.415       85.568       76.841       41.123     7321.886     5904.588     1691.088        2.460        0.746      184.373       41.268        0.050      350.774       32.185      859.941
06/06/2013  14:40:00       -5.519      -94.755        4.046       34.386       32.391       21.497     1182.415     1049.166      462.115        0.586        0.135       94.916       11.106        0.014      350.718       32.090      859.911
06/06/2013  14:41:00     -203.489        8.990       -8.029      138.691       77.884       44.529    19235.267     6065.859     1982.795        3.441        1.364      203.688       61.987        0.093      350.993       32.567      859.870
06/06/2013  14:42:00     -203.343      -13.582       -6.571       45.142       38.234       29.109     2037.841     1461.842      847.360        2.296        0.217      203.796       20.660        0.010      350.716       32.084      859.845
06/06/2013  14:43:00     -172.404      -33.844       -8.145       53.314       31.181       22.682     2842.347      972.272      514.453        1.763        0.216      175.694       14.316        0.007      350.702       32.060      859.817
06/06/2013  14:44:00       -0.726      -20.749       12.217       44.515       33.884       30.577     1981.597     1148.136      934.953        0.232        0.203       20.762       24.335        1.374      350.833       32.290      859.823
06/06/2013  14:45:00      129.572     -128.724      -14.902       86.319       72.954       54.137     7450.993     5322.232     2930.764        2.464        0.785      182.644       53.612        0.086      350.940       32.474      859.821
06/06/2013  14:46:00       -7.917      -50.769       11.333       72.757       86.898       55.407     5293.555     7551.252     3069.920        0.934        0.796       51.383       59.444        1.338      351.557       33.550      859.788
06/06/2013  14:47:00      -54.199       31.769       12.676       52.250       56.048       31.047     2730.033     3141.353      963.897        0.547        0.342       62.824       23.454        0.139      351.322       33.142      859.775
06/06/2013  14:48:00      -42.959       15.871       23.175       90.360       59.305       42.339     8164.909     3517.139     1792.624        0.805        0.674       45.797       46.709        1.040      351.264       33.042      859.756
06/06/2013  14:49:00       86.605      -90.296       13.132       79.455       99.975       49.305     6313.165     9994.959     2430.992        1.728        0.937      125.115       53.693        0.184      351.105       32.763      859.743
06/06/2013  14:50:00        6.135      -62.106       24.667      110.896       74.012       54.328    12297.905     5477.775     2951.500        1.261        1.036       62.408       49.431        0.627      351.174       32.883      859.737
06/06/2013  14:51:00      -35.423     -100.759        9.003       89.436       78.054       52.433     7998.785     6092.399     2749.265        1.416        0.842      106.804       41.319        0.150      351.196       32.922      859.752
06/06/2013  14:52:00      -81.212     -141.789      -13.404      153.734       74.945       48.784    23634.036     5616.812     2379.909        2.925        1.582      163.399       46.927        0.082      351.183       32.898      859.724
06/06/2013  14:53:00     -212.853     -122.235        8.808      124.040      101.068       64.576    15385.856    10214.775     4170.072        4.504        1.489      245.454       67.000        0.075      351.333       33.157      859.709
06/06/2013  14:54:00     -251.108     -185.667        1.205      179.883      118.157       70.420    32358.049    13961.043     4958.923        7.439        2.564      312.294       84.488        0.073      351.178       32.889      859.710
06/06/2013  14:55:00     -226.967     -210.020       -9.826      159.882       84.470       53.043    25562.320     7135.216     2813.592        6.561        1.776      309.228       38.615        0.016      350.976       32.535      859.727
06/06/2013  14:56:00     -151.441     -133.052        8.643      129.047      105.273       51.718    16653.205    11082.498     2674.713        3.556        1.521      201.587       58.962        0.086      351.299       33.099      859.734
06/06/2013  14:57:00     -212.681     -158.422       -9.591       78.858       86.209       40.895     6218.613     7431.979     1672.376        4.287        0.766      265.199       29.675        0.013      351.138       32.818      859.746
06/06/2013  14:58:00      -77.781      -26.488       -3.906       75.199       53.849       32.937     5654.888     2899.745     1084.873        0.820        0.482       82.168       41.195        0.251      351.200       32.929      859.735
06/06/2013  14:59:00       -2.654     -106.747        5.415       48.739       69.693       28.348     2375.468     4857.059      803.605        0.973        0.402      106.780       30.761        0.083      351.015       32.608      859.716
06/06/2013  15:00:00      -38.717      -53.936       25.678       79.884       69.503       46.632     6381.388     4830.639     2174.550        0.922        0.669       66.393       42.142        0.403      351.474       33.407      859.715
06/06/2013  15:01:00      -80.703      -55.663       14.650       91.203       84.528       46.972     8318.046     7145.005     2206.324        1.374        0.883       98.037       46.360        0.224      351.557       33.551      859.716
06/06/2013  15:02:00       -5.055     -106.591      -17.217       76.952       67.363       46.541     5921.605     4537.762     2166.073        1.215        0.631      106.711       29.477        0.076      351.120       32.792      859.731
06/06/2013  15:03:00       68.752     -134.681      -11.038       76.231       61.447       44.152     5811.162     3775.717     1949.416        1.726        0.577      151.214       33.696        0.050      350.792       32.218      859.715
06/06/2013  15:04:00       10.224      -60.162       21.861       41.240       62.156       39.508     1700.745     3863.391     1560.900        0.566        0.356       61.024       32.242        0.279      351.286       33.079      859.686
06/06/2013  15:05:00       58.756      -50.097       -0.583       31.472       29.105       21.976      990.518      847.110      482.962        0.414        0.116       77.214       15.723        0.041      351.045       32.660      859.668
06/06/2013  15:06:00       -2.042      -63.420      -27.042       65.844       46.990       39.842     4335.413     2208.092     1587.353        0.644        0.407       63.453       24.548        0.150      350.854       32.327      859.649
06/06/2013  15:07:00       94.659       95.654       14.767       60.253       41.218       44.374     3630.366     1698.945     1969.059        1.281        0.365      134.574       35.628        0.070      350.646       31.965      859.604
06/06/2013  15:08:00      101.322      120.393       -8.538       66.113       49.670       41.665     4370.944     2467.142     1735.978        1.670        0.429      157.355       24.453        0.024      350.807       32.243      859.561
06/06/2013  15:09:00       65.689       55.355        6.477       33.840       44.575       30.118     1145.121     1986.895      907.074        0.573        0.202       85.903       15.087        0.031      350.801       32.233      859.549
06/06/2013  15:10:00       30.421       60.609        5.702       35.332       30.695       23.137     1248.342      942.180      535.301        0.368        0.136       67.815       19.399        0.082      350.967       32.524      859.522
06/06/2013  15:11:00        0.824       74.344       -2.118       29.520       50.129       29.834      871.449     2512.892      890.080        0.490        0.214       74.348       37.647        0.256      350.997       32.576      859.497
06/06/2013  15:12:00       57.978       -8.747       20.890       35.892       35.849       29.033     1288.258     1285.165      842.895        0.364        0.171       58.634       15.227        0.067      350.688       32.037      859.497
06/06/2013  15:13:00      106.034      -79.018       11.194       86.467      123.261       59.141     7476.581    15193.251     3497.659        2.188        1.308      132.239       75.659        0.327      350.909       32.422      859.483
06/06/2013  15:14:00      153.868     -152.846      -23.894      112.100      104.934       61.483    12566.369    11011.194     3780.144        3.748        1.368      216.881       52.310        0.058      351.017       32.608      859.455
06/06/2013  15:15:00      120.915      -57.872       10.511       77.980       76.598       64.286     6080.866     5867.289     4132.659        1.708        0.804      134.051       62.445        0.217      351.158       32.855      859.441
06/06/2013  15:16:00       46.398     -136.930       -7.022       59.147       59.733       35.994     3498.333     3568.040     1295.580        1.466        0.418      144.577       31.327        0.047      351.159       32.858      859.430
06/06/2013  15:17:00       69.817       29.117       20.897       53.397       77.168       40.109     2851.244     5954.963     1608.696        0.828        0.521       75.646       32.324        0.183      351.053       32.673      859.411
06/06/2013  15:18:00       43.414       21.741       27.711       59.310       37.166       31.628     3517.647     1381.320     1000.299        0.451        0.295       48.554       35.326        0.529      351.090       32.737      859.407
06/06/2013  15:19:00       15.829      -39.044       -4.370       40.718       66.628       28.688     1657.933     4439.272      822.994        0.436        0.346       42.130       29.882        0.503      351.410       33.295      859.405
06/06/2013  15:20:00       70.633      -59.173       23.628       54.629      101.163       39.799     2984.275    10234.005     1583.955        1.192        0.740       92.144       45.003        0.239      351.483       33.423      859.404
06/06/2013  15:21:00       36.260      -57.445        1.725       51.020       36.300       25.220     2602.989     1317.716      636.028        0.459        0.228       67.931       16.573        0.060      350.759       32.162      859.411
06/06/2013  15:22:00       49.035      -35.680       33.582       87.206      113.549       93.364     7604.834    12893.356     8716.765        1.700        1.461       60.643       91.937        2.298      351.204       32.936      859.408
06/06/2013  15:23:00       87.387     -212.951        5.139       46.463       65.336       39.805     2158.822     4268.794     1584.429        3.051        0.401      230.183       30.900        0.018      351.041       32.647      859.424
06/06/2013  15:24:00       66.552     -103.881       26.832       65.880      128.916       54.314     4340.124    16619.355     2949.973        1.992        1.195      123.371       72.014        0.341      351.376       33.234      859.418
06/06/2013  15:25:00       48.119      -32.952       66.114       89.511      114.472       60.177     8012.208    13103.880     3621.261        1.625        1.237       58.320       37.072        0.404      351.291       33.087      859.391
06/06/2013  15:26:00       97.386       -9.891       48.454       98.803      147.911       78.232     9761.967    21877.704     6120.234        2.484        1.888       97.887      100.189        1.048      350.935       32.466      859.410
06/06/2013  15:27:00       40.829      -32.617       36.219       48.969      105.835       52.962     2397.966    11201.136     2804.953        1.022        0.820       52.258       60.604        1.345      351.128       32.805      859.432
06/06/2013  15:28:00       41.534      -12.442       28.079       46.946       82.279       37.987     2203.942     6769.772     1442.979        0.654        0.521       43.358       32.506        0.562      351.076       32.715      859.423
06/06/2013  15:29:00      140.069       62.691       70.966       85.727       76.106       66.451     7349.049     5792.048     4415.738        2.307        0.878      153.459       49.240        0.103      350.972       32.530      859.397
06/06/2013  15:30:00      178.388       57.299       30.640      104.953      108.790       49.049    11015.205    11835.314     2405.787        3.065        1.263      187.365       37.721        0.041      351.015       32.606      859.355
06/06/2013  15:31:00       70.591      -55.150       24.607      156.591      129.195       58.173    24520.593    16691.324     3384.078        2.660        2.230       89.580       49.397        0.304      351.419       33.310      859.343
06/06/2013  15:32:00       53.274       36.519       62.543       67.612       58.515       39.575     4571.374     3423.976     1566.153        0.882        0.478       64.589       34.192        0.280      351.110       32.774      859.397
06/06/2013  15:33:00       61.652      -21.771       62.422       54.152      116.008       49.871     2932.488    13457.833     2487.096        1.352        0.944       65.383       58.799        0.809      350.960       32.512      859.399
06/06/2013  15:34:00       20.048      -15.396       41.161       38.934       78.044       44.839     1515.889     6090.828     2010.494        0.597        0.481       25.278       48.653        3.705      351.305       33.113      859.421
06/06/2013  15:35:00       31.757      -36.916        3.941       28.905       33.551       27.376      835.503     1125.694      749.423        0.255        0.136       48.696       19.127        0.154      350.637       31.948      859.436
06/06/2013  15:36:00       80.403       75.036       18.765       62.924       70.684       52.552     3959.450     4996.180     2761.701        1.208        0.586      109.977       43.860        0.159      351.281       33.071      859.449
06/06/2013  15:37:00       12.628      161.610      -10.880       46.162       92.156       42.454     2130.965     8492.770     1802.352        1.941        0.621      162.103       50.629        0.098      351.453       33.368      859.470
06/06/2013  15:38:00     -116.792      192.751      -29.611       67.358       69.224       45.418     4537.122     4791.998     2062.820        3.153        0.570      225.374       41.310        0.034      351.088       32.732      859.471
06/06/2013  15:39:00     -156.790      127.460      -17.054       95.979      105.073       48.396     9211.909    11040.350     2342.187        3.185        1.130      202.062       47.696        0.056      351.217       32.957      859.450
06/06/2013  15:40:00      -97.287       65.690        8.117       54.641      109.278       48.442     2985.595    11941.727     2346.586        1.556        0.864      117.388       31.597        0.072      351.447       33.359      859.434
06/06/2013  15:41:00      -24.867       32.152       -5.615       66.428      106.383       48.624     4412.625    11317.334     2364.247        0.989        0.905       40.646       40.569        0.996      351.366       33.218      859.412
06/06/2013  15:42:00      -90.066      136.467       -3.772      104.108       78.631       47.802    10838.420     6182.780     2285.058        2.302        0.965      163.509       48.557        0.088      351.253       33.021      859.377
06/06/2013  15:43:00     -176.688       61.708      -17.746       93.685       75.910       54.857     8776.788     5762.367     3009.289        2.644        0.877      187.154       57.010        0.093      351.161       32.857      859.369
06/06/2013  15:44:00      -95.821       34.847      -13.748       54.354       68.879       33.246     2954.355     4744.369     1105.323        0.969        0.440      101.961       29.995        0.087      351.132       32.812      859.354
06/06/2013  15:45:00     -138.170       78.350      -24.289       77.839       74.456       40.632     6058.924     5543.705     1650.949        1.953        0.663      158.839       26.059        0.027      351.270       33.050      859.371
06/06/2013  15:46:00     -208.425      -17.476      -10.173      149.295       93.871       62.038    22288.993     8811.809     3848.742        3.939        1.747      209.156       61.348        0.086      351.337       33.166      859.352
06/06/2013  15:47:00     -255.720       64.364      -40.687      177.531      116.248       50.181    31517.139    13513.518     2518.134        5.936        2.377      263.696       66.268        0.063      351.070       32.699      859.355
06/06/2013  15:48:00     -191.142       29.552      -11.661      130.766      110.673       59.157    17099.839    12248.438     3499.492        3.519        1.642      193.413       68.634        0.126      351.311       33.121      859.359
06/06/2013  15:49:00     -154.243       28.175      -31.271       86.564      171.537       60.352     7493.262    29424.976     3642.415        3.305        2.028      156.795       43.816        0.078      351.335       33.161      859.345
06/06/2013  15:50:00     -146.343      116.713      -22.466       91.475      109.305       51.850     8367.734    11947.621     2688.387        2.927        1.150      187.185       54.729        0.085      351.050       32.667      859.359
06/06/2013  15:51:00     -161.508       36.956      -31.424      114.817      121.100       59.349    13182.910    14665.196     3522.298        2.990        1.569      165.683       57.519        0.121      351.289       33.081      859.347
06/06/2013  15:52:00     -149.903      176.746      -21.430      113.825      108.561       58.977    12956.243    11785.549     3478.305        4.119        1.411      231.754       64.318        0.077      351.092       32.739      859.364
06/06/2013  15:53:00      -82.610      272.362      -39.969       89.585      129.903       61.161     8025.473    16874.806     3740.646        5.562        1.432      284.615       64.667        0.052      350.905       32.412      859.344
06/06/2013  15:54:00      -74.732      254.742      -11.865       95.352      110.699       67.968     9092.096    12254.240     4619.673        4.829        1.298      265.478       71.575        0.073      350.955       32.500      859.334
06/06/2013  15:55:00     -102.649      115.129      -15.065       63.840       86.786       37.745     4075.592     7531.771     1424.648        1.852        0.652      154.245       26.935        0.030      351.141       32.825      859.338
06/06/2013  15:56:00      -23.705      100.538       -1.924       38.031       55.225       36.338     1446.335     3049.827     1320.423        0.824        0.291      103.295       32.040        0.096      351.175       32.885      859.325
06/06/2013  15:57:00      -35.480      131.298        7.140       87.387      107.511       61.326     7636.538    11558.575     3760.832        2.075        1.148      136.007       41.119        0.091      351.064       32.691      859.346
06/06/2013  15:58:00     -197.774      284.108      -50.178      152.706      170.352       82.057    23319.229    29019.701     6733.288        9.070        2.954      346.168      105.481        0.093      350.835       32.291      859.319
06/06/2013  15:59:00     -176.000      300.691      -19.708       99.346      178.186       86.933     9869.619    31750.098     7557.352        8.547        2.459      348.412       65.464        0.035      350.819       32.262      859.307
06/06/2013  16:00:00     -249.592      134.162      -23.771      154.002      109.015       71.651    23716.702    11884.277     5133.821        6.079        2.037      283.365       73.009        0.066      350.898       32.401      859.303
06/06/2013  16:01:00     -294.226        9.557      -21.909      171.275      169.096       80.415    29335.086    28593.521     6466.580        7.575        3.220      294.381       74.147        0.063      350.951       32.493      859.301
06/06/2013  16:02:00     -148.772      104.582      -16.466      139.940      135.474       83.774    19583.216    18353.101     7018.101        3.914        2.248      181.853       87.430        0.231      351.062       32.685      859.284
06/06/2013  16:03:00     -304.808      154.999      -55.800      141.648      133.819       73.059    20064.115    17907.449     5337.610        8.167        2.165      341.954       61.468        0.032      350.780       32.194      859.304
06/06/2013  16:04:00     -296.350       66.805       -9.893      169.853      214.301       88.956    28849.946    45924.874     7913.227        8.752        4.134      303.787       86.514        0.081      350.894       32.394      859.300
06/06/2013  16:05:00     -208.764       42.528      -34.574      122.655      144.426       61.576    15044.253    20858.929     3791.627        4.313        1.985      213.051       65.738        0.095      350.888       32.385      859.301
06/06/2013  16:06:00     -145.830      -29.648        1.348      145.872      144.930       84.343    21278.552    21004.667     7113.806        3.576        2.470      148.813       72.531        0.238      350.971       32.528      859.289
06/06/2013  16:07:00     -206.212      254.430      -34.635      120.694      161.501       81.723    14567.146    26082.529     6678.725        7.788        2.366      327.502       65.598        0.040      350.803       32.234      859.305
06/06/2013  16:08:00     -149.494      156.573      -19.327      104.577      101.007       56.465    10936.443    10202.320     3188.300        3.578        1.216      216.480       60.157        0.077      350.773       32.185      859.330
06/06/2013  16:09:00     -161.563      148.458      -10.150       81.194       73.907       54.208     6592.535     5462.284     2938.504        3.162        0.750      219.414       48.880        0.050      350.816       32.257      859.312
06/06/2013  16:10:00     -119.443      121.819       -8.704       91.437       92.944       56.059     8360.687     8638.655     3142.602        2.466        1.007      170.606       40.902        0.057      350.730       32.110      859.298
06/06/2013  16:11:00     -159.380      302.348      -31.732      112.936      135.067       75.758    12754.639    18243.127     5739.318        7.727        1.837      341.784       74.969        0.048      350.681       32.021      859.281
06/06/2013  16:12:00     -266.250      159.311      -24.230      179.687      115.837       86.603    32287.454    13418.188     7500.062        7.502        2.660      310.272       85.319        0.076      350.808       32.244      859.272
06/06/2013  16:13:00     -251.858       92.786      -43.503      119.080      101.937       57.777    14180.112    10391.231     3338.165        5.092        1.395      268.406       65.054        0.059      350.812       32.252      859.280
06/06/2013  16:14:00     -190.414       21.246       14.360      176.024      113.954       85.488    30984.362    12985.412     7308.278        4.409        2.564      191.596      108.807        0.323      350.917       32.434      859.263
06/06/2013  16:15:00     -312.396       45.164      -32.022      134.130      146.285       67.763    17990.980    21399.308     4591.877        7.231        2.199      315.644       62.422        0.039      350.858       32.328      859.274
06/06/2013  16:16:00     -114.618       64.142       -1.228      141.801      105.070       53.867    20107.458    11039.807     2901.623        2.564        1.702      131.345       65.244        0.247      350.967       32.522      859.268
06/06/2013  16:17:00     -138.140      208.782      -17.415      119.680      107.964       61.990    14323.245    11656.232     3842.783        4.639        1.491      250.345       56.599        0.051      350.958       32.505      859.277
06/06/2013  16:18:00      -79.655      180.887      -23.468       86.443      103.126       60.320     7472.411    10634.920     3638.496        3.068        1.087      197.649       43.781        0.049      350.980       32.543      859.274
06/06/2013  16:19:00     -209.999      294.535      -34.482      157.206      230.366       78.520    24713.582    53068.391     6165.345       10.798        4.197      361.732       93.644        0.067      350.929       32.454      859.266
06/06/2013  16:20:00     -192.723      115.527      -48.066      163.989      135.254       81.105    26892.318    18293.629     6578.094        5.227        2.588      224.697       85.616        0.145      350.999       32.577      859.266
06/06/2013  16:21:00     -167.954       81.902      -19.497      111.493      104.105       59.864    12430.710    10837.780     3583.730        3.107        1.343      186.860       57.393        0.094      350.898       32.400      859.262
06/06/2013  16:22:00     -215.919      123.008      -29.655      124.221      122.589       67.002    15430.810    15028.096     4489.225        4.878        1.747      248.499       68.542        0.076      350.990       32.561      859.241
06/06/2013  16:23:00     -191.526        3.766       -9.913      110.649      138.196       56.633    12243.278    19098.229     3207.300        3.566        1.727      191.563       44.350        0.054      351.027       32.624      859.252
06/06/2013  16:24:00     -127.761       -3.479       -2.078      125.991       77.785       43.951    15873.765     6050.565     1931.723        2.009        1.193      127.808       49.862        0.152      351.021       32.615      859.228
06/06/2013  16:25:00     -100.918       62.352       -4.125      107.250       54.206       63.876    11502.520     2938.332     4080.131        1.630        0.926      118.627       74.521        0.395      351.083       32.724      859.257
06/06/2013  16:26:00     -101.608        4.872        1.472       55.392       59.074       49.639     3068.225     3489.762     2464.018        0.968        0.451      101.725       30.011        0.087      351.024       32.623      859.255
06/06/2013  16:27:00     -190.794      -12.796        0.360      161.607      110.319       73.025    26116.751    12170.235     5332.711        4.008        2.181      191.223       74.773        0.153      350.989       32.561      859.252
06/06/2013  16:28:00     -295.242      -43.257      -26.929      126.457      100.210       55.951    15991.455    10042.035     3130.497        5.946        1.458      298.394       38.428        0.017      350.836       32.292      859.243
06/06/2013  16:29:00     -206.754       16.054      -18.557      102.696       75.959       51.150    10546.509     5769.837     2616.303        3.114        0.947      207.376       40.601        0.038      350.890       32.387      859.261
06/06/2013  16:30:00     -113.654       79.565       -3.005       75.870       86.568       49.109     5756.257     7493.970     2411.680        1.746        0.783      138.737       37.165        0.072      350.856       32.330      859.280
06/06/2013  16:31:00     -175.823       16.061       -1.514      104.420      104.003       63.694    10903.530    10816.552     4056.939        2.847        1.289      176.555       50.787        0.083      350.898       32.402      859.263
06/06/2013  16:32:00     -217.404       49.233        2.171      145.111       94.114       76.601    21057.215     8857.395     5867.724        4.273        1.789      222.909       75.966        0.116      350.822       32.270      859.291
06/06/2013  16:33:00     -105.723       88.489      -27.166       88.182       84.317       50.030     7776.144     7109.436     2502.989        1.856        0.869      137.868       39.630        0.083      350.800       32.231      859.293
06/06/2013  16:34:00     -335.086      106.242      -63.827      200.361      175.388       78.084    40144.455    30761.090     6097.180       10.231        3.850      351.525       75.409        0.046      350.682       32.024      859.301
06/06/2013  16:35:00     -200.440       50.122      -19.604      125.299      124.366       69.207    15699.814    15466.806     4789.643        3.951        1.798      206.612       69.141        0.112      350.735       32.115      859.305
06/06/2013  16:36:00     -265.670      -16.763      -18.602       83.925      102.292       61.605     7043.416    10463.600     3795.168        4.625        1.065      266.198       55.157        0.043      350.701       32.056      859.304
06/06/2013  16:37:00     -127.950       23.288        2.958       72.504       68.990       46.915     5256.891     4759.570     2201.005        1.457        0.611      130.052       37.223        0.082      350.807       32.244      859.315
06/06/2013  16:38:00     -172.895       44.871      -23.278      134.569      147.131       70.824    18108.738    21647.390     5016.017        3.860        2.239      178.623       69.504        0.151      350.725       32.100      859.312
06/06/2013  16:39:00     -123.034       65.996       -0.923      114.988      101.129       66.574    13222.327    10226.977     4432.117        2.368        1.394      139.616       63.348        0.206      350.706       32.066      859.298
06/06/2013  16:40:00      -84.970      -14.502       -3.570       74.684       80.977       51.955     5577.692     6557.288     2699.323        1.114        0.742       86.198       22.875        0.070      350.747       32.140      859.316
06/06/2013  16:41:00     -106.265      -24.184       -4.146       98.728       78.076       65.202     9747.311     6095.923     4251.320        1.599        1.005      108.982       56.141        0.265      350.708       32.073      859.311
06/06/2013  16:42:00     -406.075     -158.162      -21.767      169.090      111.924       68.215    28591.271    12527.010     4653.339       11.807        2.289      435.789       44.810        0.011      350.583       31.851      859.330
06/06/2013  16:43:00     -215.479      -63.288      -10.116      122.213      142.163       71.811    14936.121    20210.436     5156.829        4.541        2.015      224.580       64.064        0.081      350.564       31.818      859.329
06/06/2013  16:44:00     -267.499     -119.113      -22.231       94.096       91.004       53.355     8854.106     8281.805     2846.773        5.311        0.999      292.820       42.762        0.021      350.615       31.905      859.367
06/06/2013  16:45:00     -236.609      -37.490      -17.858      103.524       68.077       42.997    10717.174     4634.512     1848.708        3.745        0.860      239.560       45.480        0.036      350.627       31.927      859.379
06/06/2013  16:46:00     -196.572      -54.032        2.816      100.656       94.456       45.952    10131.666     8921.988     2111.575        3.136        1.058      203.863       43.023        0.045      350.686       32.032      859.374
06/06/2013  16:47:00     -225.340      -92.051        5.467      144.585       87.894       55.987    20904.957     7725.295     3134.539        4.552        1.588      243.417       66.071        0.074      350.707       32.069      859.382
06/06/2013  16:48:00     -182.999     -112.016       -9.425      120.805      150.421       66.939    14593.849    22626.445     4480.809        4.390        2.085      214.561       67.780        0.100      350.734       32.116      859.343
06/06/2013  16:49:00     -158.426      -58.772        7.601      157.552      131.019       75.242    24822.727    17165.924     5661.393        3.812        2.383      168.976       83.444        0.244      350.703       32.062      859.384
06/06/2013  16:50:00     -372.738     -147.863      -17.484      167.031      167.261       75.149    27899.430    27976.267     5647.321       11.130        3.076      400.995       76.273        0.036      350.739       32.125      859.404
06/06/2013  16:51:00     -381.076      -27.864       -6.508      190.017      185.610       83.833    36106.588    34451.254     7028.000       11.180        3.879      382.093       93.421        0.060      350.628       31.930      859.395
06/06/2013  16:52:00     -326.990     -220.798        4.606      270.778      233.240      117.777    73320.660    54400.828    13871.398       14.862        7.080      394.556      136.236        0.119      350.590       31.863      859.378
06/06/2013  16:53:00     -480.469     -214.770      -25.831      214.011      190.476       99.052    45800.711    36281.117     9811.304       18.475        4.595      526.285      107.419        0.042      350.511       31.725      859.395
06/06/2013  16:54:00     -361.865     -237.492       -4.718      228.848      171.925       94.127    52371.396    29558.350     8859.924       13.906        4.539      432.838      124.750        0.083      350.468       31.651      859.432
06/06/2013  16:55:00     -459.177     -199.576      -10.072      332.878      193.097       97.839   110807.725    37286.556     9572.536       20.419        7.883      500.673      134.685        0.072      350.294       31.348      859.438
06/06/2013  16:56:00     -365.792     -355.086      -10.982      228.633      206.768      119.009    52272.855    42753.166    14163.130       18.458        5.459      509.794      120.717        0.056      350.163       31.121      859.416
06/06/2013  16:57:00     -458.923     -198.273      -10.005      257.156      215.950      106.549    66129.352    46634.322    11352.614       18.704        6.206      499.922      116.235        0.054      350.140       31.080      859.311
06/06/2013  16:58:00     -631.451     -192.295       -6.917      331.828      259.618      135.103   110109.704    67401.448    18252.802       31.572        9.788      660.082      153.833        0.054      350.062       30.946      859.258
06/06/2013  16:59:00     -461.909     -311.674       -7.207      261.069      237.407      126.363    68156.900    56362.098    15967.597       22.549        7.024      557.226      140.907        0.064      350.122       31.048      859.284
06/06/2013  17:00:00     -513.549     -322.651      -13.032      236.059      192.036      104.216    55724.038    36877.664    10861.055       23.571        5.173      606.495      113.117        0.035      350.105       31.019      859.291
06/06/2013  17:01:00     -514.709     -187.267       -4.928      283.233      240.627      121.122    80221.061    57901.274    14670.644       22.638        7.640      547.717      136.140        0.062      350.084       30.983      859.324
06/06/2013  17:02:00     -518.527     -397.918        3.280      305.739      293.420      138.351    93476.118    86095.560    19140.976       31.293        9.936      653.613      152.627        0.055      350.018       30.869      859.342
06/06/2013  17:03:00     -663.164     -399.343      -16.704      331.208      240.830      141.005   109699.028    57999.223    19882.522       39.352        9.379      774.119      150.674        0.038      349.928       30.713      859.404
06/06/2013  17:04:00     -476.985     -292.975       -0.346      322.347      279.314      126.807   103907.515    78016.507    16080.075       25.564        9.900      559.776      159.761        0.081      349.696       30.310      859.454
06/06/2013  17:05:00     -519.279     -267.083        7.488      354.561      237.354      132.366   125713.742    56336.991    17520.873       27.027        9.979      583.938      167.911        0.083      349.569       30.090      859.458
06/06/2013  17:06:00     -521.993     -246.313       14.800      329.394      289.288      151.989   108500.391    83687.787    23100.597       27.428       10.764      577.189      166.813        0.084      349.458       29.897      859.507
06/06/2013  17:07:00     -738.234     -384.801       19.447      425.583      313.023      147.674   181120.530    97983.091    21807.581       49.712       15.046      832.503      175.035        0.044      349.213       29.473      859.454
06/06/2013  17:08:00     -601.475     -249.188      -41.147      305.213      303.366      108.461    93155.040    92030.898    11763.755       31.122        9.847      651.051      112.833        0.030      349.248       29.534      859.531
06/06/2013  17:09:00     -546.225     -363.785      -24.225      257.264      231.903      120.532    66185.014    53778.898    14527.887       28.286        6.725      656.278      127.026        0.037      349.279       29.586      859.537
06/06/2013  17:10:00     -588.370     -406.690      -28.908      238.020      214.239      104.536    56653.542    45898.430    10927.727       31.292        5.674      715.245       94.561        0.017      349.233       29.508      859.542
06/06/2013  17:11:00     -478.070     -320.709       -8.184      261.431      191.852      110.885    68346.088    36807.194    12295.466       22.444        5.872      575.678      124.903        0.047      349.298       29.621      859.539
06/06/2013  17:12:00     -421.006     -204.198       -6.992      241.601      171.933      102.598    58371.067    29560.826    10526.380       15.871        4.923      467.914      101.010        0.047      349.323       29.663      859.540
06/06/2013  17:13:00     -615.608     -298.016      -19.055      285.501      249.026      133.592    81510.754    62014.162    17846.815       31.473        8.069      683.949      145.527        0.045      349.347       29.703      859.492
06/06/2013  17:14:00     -361.744     -253.010       -4.693      222.601      186.696       97.285    49551.240    34855.477     9464.404       14.436        4.694      441.444      111.212        0.063      349.491       29.957      859.482
06/06/2013  17:15:00     -456.621     -219.007      -15.948      253.085      205.314       98.981    64051.799    42153.849     9797.202       18.634        5.800      506.426      113.662        0.050      349.536       30.031      859.499
06/06/2013  17:16:00     -371.738     -226.092       -2.916      262.693      214.522      116.279    69007.522    46019.742    13520.811       15.891        6.427      435.094      153.478        0.124      349.526       30.014      859.502
06/06/2013  17:17:00     -403.450     -285.293       -8.120      244.514      183.654      117.836    59787.157    33728.929    13885.285       17.579        5.370      494.129      135.932        0.076      349.496       29.964      859.501
06/06/2013  17:18:00     -286.998     -121.047       -6.251      159.861      103.955       74.205    25555.586    10806.576     5506.375        6.946        2.093      311.481       83.646        0.072      349.598       30.141      859.530
06/06/2013  17:19:00     -379.423     -161.067       -5.080      229.526      158.190       87.684    52682.406    25024.168     7688.426       12.765        4.270      412.195      104.175        0.064      349.664       30.253      859.493
06/06/2013  17:20:00     -393.970     -279.502      -19.870      240.483      185.699      105.552    57831.909    34484.139    11141.207       16.857        5.173      483.046      127.067        0.069      349.748       30.400      859.443
06/06/2013  17:21:00     -355.899     -233.006      -10.309      237.590      183.192      112.234    56449.002    33559.416    12596.411       14.181        5.130      425.389      130.708        0.094      349.855       30.587      859.467
06/06/2013  17:22:00     -281.065     -238.534        3.939      207.454      200.981       99.168    43037.026    40393.394     9834.336       11.457        4.663      368.641      104.739        0.081      349.899       30.663      859.482
06/06/2013  17:23:00     -333.926      -75.748        3.868      278.589      132.374       87.454    77611.587    17522.958     7648.264       11.000        5.139      342.409      128.245        0.140      349.926       30.710      859.453
06/06/2013  17:24:00     -466.552     -316.424       -7.472      212.456      189.263      105.812    45137.353    35820.437    11196.200       20.498        4.608      563.733      104.477        0.034      349.927       30.712      859.440
06/06/2013  17:25:00     -564.638     -336.259      -36.538      219.595      196.966      112.992    48221.814    38795.775    12767.156       26.648        4.989      657.181      113.133        0.030      349.914       30.688      859.416
06/06/2013  17:26:00     -469.390     -225.191      -19.999      201.316      176.825       93.645    40528.157    31266.953     8769.430       17.599        4.028      520.613      107.244        0.042      349.960       30.770      859.427
06/06/2013  17:27:00     -347.595     -185.745      -14.642      204.845      154.705       98.129    41961.568    23933.711     9629.299       11.552        3.776      394.111       93.383        0.056      349.979       30.803      859.429
06/06/2013  17:28:00     -408.683     -199.395      -19.321      195.446      163.877       93.248    38199.317    26855.614     8695.280       14.044        3.688      454.731       88.727        0.038      349.947       30.747      859.420
06/06/2013  17:29:00     -644.724     -152.649      -23.855      255.065      186.768      111.184    65058.183    34882.329    12361.808       27.590        5.615      662.548      118.175        0.032      349.965       30.778      859.382
06/06/2013  17:30:00     -508.009     -162.486      -11.712      247.117      183.762      101.552    61066.760    33768.477    10312.787       19.486        5.257      533.362      112.928        0.045      349.989       30.819      859.382
06/06/2013  17:31:00     -352.990      -87.212       -8.727      200.608      123.229       70.528    40243.377    15185.482     4974.147        9.633        3.020      363.604       72.540        0.040      350.127       31.059      859.379
06/06/2013  17:32:00     -437.026     -183.391        1.557      291.505      188.063       96.886    84975.096    35367.548     9386.929       17.715        6.486      473.945      114.561        0.058      350.163       31.121      859.370
06/06/2013  17:33:00     -396.798      -91.408      -14.246      269.275      152.533       89.526    72509.056    23266.197     8014.984       13.488        5.190      407.190      116.930        0.082      350.188       31.164      859.365
06/06/2013  17:34:00     -427.778     -267.308      -18.258      251.361      206.075      110.162    63182.132    42467.080    12135.732       18.626        5.889      504.428      131.996        0.068      350.177       31.145      859.369
06/06/2013  17:35:00     -262.560      -54.418        9.599      189.584      128.300       85.072    35941.919    16460.948     7237.260        6.580        2.982      268.140      102.543        0.146      350.220       31.220      859.365
06/06/2013  17:36:00     -279.190     -232.286      -14.522      160.920      111.998       92.161    25895.197    12543.532     8493.689        8.951        2.347      363.186       83.804        0.053      350.196       31.176      859.382
06/06/2013  17:37:00     -211.914     -102.783       29.011      183.129      162.519       91.683    33536.161    26412.477     8405.725        6.232        3.418      235.525       98.162        0.174      350.213       31.208      859.384
06/06/2013  17:38:00     -510.814     -179.520      -21.566      280.407      199.622      105.121    78628.264    39849.048    11050.476       21.155        6.476      541.441      128.497        0.056      350.075       30.965      859.368
06/06/2013  17:39:00     -574.750     -262.401       -6.494      297.583      231.418      123.111    88555.709    53554.237    15156.246       27.822        7.863      631.816      140.269        0.049      349.931       30.721      859.347
06/06/2013  17:40:00     -632.509     -278.482      -12.007      273.149      201.068      122.929    74610.335    40428.456    15111.572       30.393        6.508      691.100      140.328        0.041      349.911       30.684      859.328
06/06/2013  17:41:00     -605.671     -422.380      -29.621      237.553      255.087      125.174    56431.508    65069.313    15668.520       34.162        6.858      738.405      113.666        0.024      349.843       30.567      859.307
06/06/2013  17:42:00     -529.481     -359.366        1.554      306.735      268.566      116.176    94086.622    72127.538    13496.749       29.457        8.986      639.917      131.042        0.042      349.861       30.596      859.313
06/06/2013  17:43:00     -476.616     -276.243      -13.625      262.585      215.186      111.639    68950.718    46304.991    12463.368       21.566        6.386      550.884      102.462        0.035      349.902       30.668      859.305
06/06/2013  17:44:00     -305.595     -169.564        3.273      264.850      199.158       97.905    70145.713    39663.952     9585.432       12.075        5.970      349.486      117.402        0.113      350.043       30.913      859.358
06/06/2013  17:45:00     -551.301     -246.432      -11.632      250.916      227.985      131.902    62958.889    51977.197    17398.160       24.854        6.617      603.872      143.103        0.056      349.928       30.713      859.320
06/06/2013  17:46:00     -376.309      -88.619       -2.860      222.191      142.264       80.574    49368.700    20239.068     6492.194       11.277        3.805      386.603      101.288        0.069      350.052       30.928      859.338
06/06/2013  17:47:00     -335.291     -234.818        6.658      218.824      203.818       95.889    47884.038    41541.723     9194.634       13.309        4.931      409.341      112.914        0.076      350.065       30.950      859.328
06/06/2013  17:48:00     -414.460     -217.321      -11.308      230.019      191.514       89.894    52908.970    36677.681     8081.021       15.838        4.883      467.981      111.501        0.057      350.074       30.965      859.324
06/06/2013  17:49:00     -340.711     -288.440       11.339      230.163      185.232      106.397    52975.059    34310.910    11320.389       14.899        4.930      446.409      119.235        0.071      350.083       30.980      859.329
06/06/2013  17:50:00     -387.140     -278.037       -4.688      224.386      226.446      108.735    50349.019    51277.760    11823.250       17.030        5.673      476.636      122.554        0.066      350.122       31.051      859.322
06/06/2013  17:51:00     -304.687     -201.556      -10.127      157.661      176.178       84.785    24857.104    31038.676     7188.464        9.831        3.154      365.320       82.479        0.051      350.162       31.119      859.325
06/06/2013  17:52:00     -266.841       -8.122        9.871      172.791      148.202       77.695    29856.898    21963.860     6036.561        6.460        2.893      266.965       84.111        0.099      350.288       31.339      859.347
06/06/2013  17:53:00     -343.602      -75.005      -14.988      200.668      154.659       80.350    40267.723    23919.441     6456.083        9.726        3.532      351.693       88.402        0.063      350.252       31.276      859.329
06/06/2013  17:54:00     -545.875      -86.557      -29.187      265.471      152.819       87.197    70474.693    23353.787     7603.375       20.386        5.072      552.695      112.603        0.042      350.151       31.099      859.313
06/06/2013  17:55:00     -455.675     -159.277       -9.600      221.181      138.555       91.706    48921.124    19197.617     8410.058       15.480        3.826      482.710       94.130        0.038      350.162       31.120      859.281
06/06/2013  17:56:00     -442.173     -111.663      -29.864      200.639      131.845       82.477    40255.829    17383.107     6802.467       13.665        3.222      456.054       99.274        0.047      350.208       31.199      859.299
06/06/2013  17:57:00     -350.672      -56.299       -4.655      242.541      153.287      108.287    58826.367    23496.855    11726.157       11.009        4.702      355.163      123.268        0.120      350.233       31.244      859.277
06/06/2013  17:58:00     -510.345     -214.152      -23.233      203.896      178.912       95.409    41573.409    32009.555     9102.868       19.475        4.134      553.456      101.477        0.034      350.217       31.215      859.291
06/06/2013  17:59:00     -337.860     -233.038       16.457      273.004      237.541      132.889    74531.017    56425.564    17659.538       15.864        7.431      410.434      152.690        0.138      350.256       31.283      859.291
06/06/2013  18:00:00     -506.063     -313.801      -14.449      275.822      232.595      117.205    76077.587    54100.623    13737.114       24.932        7.196      595.459      146.368        0.060      350.165       31.124      859.324
06/06/2013  18:01:00     -496.625     -314.398      -16.141      281.793      202.038       99.340    79407.322    40819.336     9868.434       23.789        6.505      587.778      122.872        0.044      350.072       30.963      859.304
06/06/2013  18:02:00     -462.665     -246.701        0.817      311.229      264.342      117.218    96863.236    69876.667    13740.028       22.766        9.024      524.328      127.487        0.059      350.068       30.955      859.292
06/06/2013  18:03:00     -331.531     -172.329       -6.865      239.259      212.369      104.625    57244.669    45100.628    10946.441       12.645        5.665      373.645      121.490        0.106      350.055       30.933      859.300
06/06/2013  18:04:00     -428.612     -103.419      -17.545      216.496      199.191       97.741    46870.318    39677.129     9553.257       14.539        4.805      440.912      108.549        0.061      350.127       31.058      859.314
06/06/2013  18:05:00     -522.713      -42.543      -25.639      255.359      193.971       88.382    65208.417    37624.642     7811.405       19.315        5.532      524.441      111.850        0.045      350.070       30.959      859.301
06/06/2013  18:06:00     -296.452     -214.973        2.366      208.305      187.265       97.673    43391.112    35068.093     9540.001       11.103        4.400      366.193      107.753        0.087      350.064       30.948      859.309
06/06/2013  18:07:00     -220.174     -131.750       12.835      207.475      147.433       95.761    43045.788    21736.462     9170.220        6.996        3.698      256.583      116.167        0.205      350.089       30.992      859.298
06/06/2013  18:08:00     -385.406     -209.510      -10.255      203.501      132.570       79.111    41412.656    17574.709     6258.603       12.888        3.262      438.671       94.209        0.046      350.092       30.996      859.307
06/06/2013  18:09:00     -360.109      -27.538      -11.315      167.873      132.688       67.361    28181.295    17606.232     4537.475        9.043        2.516      361.160       73.553        0.041      350.124       31.053      859.323
06/06/2013  18:10:00     -313.564     -136.292       -5.936      139.725      162.956       75.927    19523.176    26554.655     5764.948        8.438        2.592      341.903       78.865        0.053      350.130       31.063      859.311
06/06/2013  18:11:00     -399.534     -180.969        6.835      201.624      122.735       88.493    40652.046    15063.826     7831.085       12.797        3.177      438.608       96.544        0.048      350.052       30.927      859.323
06/06/2013  18:12:00     -349.431      -96.182       -5.814      179.303      128.074       78.744    32149.475    16403.031     6200.541        9.306        2.738      362.427       82.207        0.051      350.123       31.050      859.334
06/06/2013  18:13:00     -365.567     -179.892        2.908      215.409      172.447       94.617    46401.069    29737.970     8952.332       12.553        4.255      407.431      104.032        0.065      350.076       30.971      859.316
06/06/2013  18:14:00     -533.320     -403.346      -32.374      268.384      200.138      122.864    72029.907    40055.174    15095.605       28.765        6.359      668.669      122.148        0.033      350.005       30.847      859.297
06/06/2013  18:15:00     -151.886     -122.019        1.204      151.040      137.760       68.437    22812.956    18977.695     4683.595        4.221        2.324      194.828       70.284        0.130      350.197       31.180      859.353
06/06/2013  18:16:00     -230.975       -5.029       -0.154      185.691      132.463       76.009    34481.292    17546.577     5777.339        5.558        2.890      231.030       64.622        0.078      350.299       31.360      859.367
06/06/2013  18:17:00     -471.524      -65.772      -44.674      176.663      145.465       84.099    31209.815    21159.989     7072.651       14.404        2.972      476.089       78.874        0.027      350.121       31.046      859.370
06/06/2013  18:18:00     -255.432       -7.049        7.744      174.335      143.375       90.006    30392.560    20556.290     8101.133        6.219        2.952      255.530       87.338        0.117      350.200       31.185      859.345
06/06/2013  18:19:00     -312.379      -44.889       16.782      197.293      174.712      103.807    38924.361    30524.225    10775.823        9.003        4.011      315.588      106.403        0.114      350.202       31.188      859.332
06/06/2013  18:20:00     -499.546     -118.028       -5.044      236.066      214.310      103.539    55726.994    45928.929    10720.249       18.792        5.619      513.300      108.739        0.045      350.078       30.974      859.348
06/06/2013  18:21:00     -525.172     -174.006      -22.495      238.149      174.523      102.530    56714.899    30458.422    10512.398       20.212        4.884      553.248      122.509        0.049      349.957       30.765      859.354
06/06/2013  18:22:00     -517.925      -80.031      -17.345      250.154      227.778      107.656    62577.164    51882.824    11589.727       20.048        6.302      524.072      111.283        0.045      349.939       30.732      859.334
06/06/2013  18:23:00     -486.540     -117.177      -27.231      226.416      212.101      103.672    51264.389    44986.858    10747.807       17.907        5.350      500.452       99.982        0.040      349.927       30.712      859.349
06/06/2013  18:24:00     -419.501     -147.492      -19.253      219.290      193.952       95.140    48088.133    37617.499     9051.571       14.641        4.738      444.674      103.198        0.054      349.989       30.819      859.380
06/06/2013  18:25:00     -648.513     -118.632      -44.984      172.539      156.044      100.738    29769.742    24349.716    10148.174       25.045        3.213      659.274       87.795        0.018      349.908       30.677      859.369
06/06/2013  18:26:00     -431.684      -24.823       -6.728      217.909      152.814       94.297    47484.454    23352.137     8891.980       13.335        3.986      432.397      106.808        0.061      349.995       30.829      859.378
06/06/2013  18:27:00     -438.396      -71.581      -28.391      187.720      127.771       73.763    35238.892    16325.354     5441.044       12.755        2.850      444.201       84.593        0.036      350.033       30.895      859.394
06/06/2013  18:28:00     -510.150     -107.268      -23.973      207.333      173.632       88.011    42986.933    30148.117     7745.941       17.659        4.044      521.305       88.300        0.029      349.968       30.783      859.406
06/06/2013  18:29:00     -300.058      -88.478       -9.494      265.040      183.951      100.561    70246.143    33837.919    10112.466       10.605        5.710      312.831      123.421        0.156      350.005       30.848      859.386
06/06/2013  18:30:00     -360.764      -31.925      -20.230      187.394      144.514       75.720    35116.446    20884.413     5733.459        9.664        3.087      362.174       93.989        0.067      350.018       30.869      859.398
06/06/2013  18:31:00     -481.142      -86.771      -27.376      202.320      164.983       86.856    40933.350    27219.340     7543.971       15.772        3.785      488.903       90.331        0.034      349.963       30.774      859.381
06/06/2013  18:32:00     -393.622     -118.139      -16.982      194.634      180.437       84.017    37882.399    32557.508     7058.936       12.333        3.875      410.968       85.043        0.043      349.950       30.751      859.325
06/06/2013  18:33:00     -416.585     -172.265      -17.094      233.169      183.529       98.759    54367.781    33683.050     9753.337       15.064        4.890      450.797      102.928        0.052      350.020       30.872      859.309
06/06/2013  18:34:00     -437.380     -129.715      -15.738      216.206      156.311       97.551    46745.213    24433.095     9516.182       14.452        4.035      456.209      101.537        0.050      350.038       30.904      859.376
06/06/2013  18:35:00     -430.996     -218.903        7.058      213.560      192.832       95.686    45607.800    37184.221     9155.803       16.282        4.597      483.401      104.335        0.047      350.028       30.886      859.385
06/06/2013  18:36:00     -247.855      -27.550        2.753      150.869      113.154       61.261    22761.492    12803.720     3752.905        5.075        1.966      249.382       64.023        0.066      350.122       31.049      859.414
06/06/2013  18:37:00     -399.112     -139.792      -20.727      189.183      129.558       72.950    35790.074    16785.270     5321.726       11.857        2.895      422.886       79.351        0.035      350.109       31.026      859.408
06/06/2013  18:38:00     -317.141      -37.285        4.029      182.707      135.858       67.547    33381.987    18457.432     4562.602        7.918        2.820      319.325       78.845        0.061      350.073       30.963      859.410
06/06/2013  18:39:00     -449.917      -94.372      -17.581      167.259      193.231       79.743    27975.575    37338.037     6358.988       14.164        3.584      459.708       71.898        0.024      350.080       30.977      859.399
06/06/2013  18:40:00     -429.801     -127.176        2.098      237.043      181.350       94.401    56189.341    32887.741     8911.591       14.943        4.899      448.221      105.217        0.055      350.019       30.871      859.415
06/06/2013  18:41:00     -439.062      -64.351      -13.079      213.003      180.271      102.102    45370.263    32497.665    10424.836       14.267        4.415      443.753       98.681        0.049      349.968       30.785      859.398
06/06/2013  18:42:00     -397.149      -89.905        1.195      222.892      164.991       78.216    49680.789    27222.121     6117.747       12.440        4.151      407.198       94.177        0.053      349.973       30.792      859.408
06/06/2013  18:43:00     -488.170      -66.062      -11.210      234.957      129.844       77.980    55204.763    16859.548     6080.950       16.046        3.907      492.619       85.016        0.030      349.979       30.803      859.419
06/06/2013  18:44:00     -555.363      -58.006      -17.210      242.803      172.046       92.431    58953.409    29599.853     8543.468       20.457        4.855      558.384      101.617        0.033      349.954       30.760      859.416
06/06/2013  18:45:00     -360.191        0.095      -32.642      157.810      115.218       74.368    24904.070    13275.137     5530.527        8.725        2.185      360.191       78.887        0.048      349.976       30.797      859.443
06/06/2013  18:46:00     -311.155      -91.452        5.468      142.026      159.666       81.540    20171.297    25493.204     6648.790        7.875        2.616      324.316       70.229        0.047      349.980       30.803      859.450
06/06/2013  18:47:00     -329.225     -351.829       -0.670      208.535      188.891      116.742    43486.861    35679.651    13628.705       16.247        4.640      481.843      124.680        0.067      349.915       30.690      859.424
06/06/2013  18:48:00     -284.540     -117.897       -5.875      175.420      146.808       81.861    30772.213    21552.483     6701.278        7.695        2.951      307.998       85.067        0.076      349.942       30.739      859.440
06/06/2013  18:49:00     -354.818     -222.124       -5.038      241.259      208.211       95.411    58205.874    43351.825     9103.251       14.294        5.533      418.611      107.729        0.066      349.913       30.688      859.431
06/06/2013  18:50:00     -310.272      -92.666       -4.593      205.515      164.386       83.206    42236.315    27022.819     6923.298        9.051        3.809      323.815       95.953        0.088      349.938       30.732      859.433
06/06/2013  18:51:00     -301.496      -41.228      -18.480      206.506      165.064       74.805    42644.794    27246.178     5595.752        8.420        3.774      304.302       83.759        0.076      349.987       30.815      859.432
06/06/2013  18:52:00     -367.720     -131.449        1.531      210.225      196.272       90.775    44194.613    38522.876     8240.153       12.171        4.548      390.508      108.855        0.078      349.935       30.726      859.441
06/06/2013  18:53:00     -362.335      -53.179       -6.195      153.735      142.545       77.708    23634.567    20319.019     6038.583        9.206        2.500      366.217       79.162        0.047      349.997       30.833      859.469
06/06/2013  18:54:00     -348.323      -75.493      -10.690      148.706      114.549       67.802    22113.498    13121.458     4597.086        8.348        1.992      356.410       72.757        0.042      349.946       30.744      859.494
06/06/2013  18:55:00     -175.867      -35.060       -3.126       88.337       85.764       49.326     7803.441     7355.435     2433.040        2.488        0.880      179.327       41.387        0.053      350.015       30.865      859.502
06/06/2013  18:56:00     -203.572      -61.312      -14.935      159.019       97.087       55.545    25287.100     9425.940     3085.284        4.160        1.890      212.604       63.236        0.088      349.931       30.722      859.502
06/06/2013  18:57:00     -184.974      -53.298        4.617      128.991      101.546       58.216    16638.794    10311.687     3389.077        3.370        1.517      192.499       54.948        0.081      349.926       30.711      859.519
06/06/2013  18:58:00     -204.694      -76.228        4.888      166.165      119.165       56.167    27610.691    14200.315     3154.734        4.634        2.248      218.427       81.227        0.138      349.931       30.719      859.531
06/06/2013  18:59:00     -333.699     -111.515       -0.277      185.196      183.334       84.055    34297.407    33611.325     7065.199        9.937        3.749      351.839       82.968        0.056      349.870       30.613      859.520
06/06/2013  19:00:00     -349.571      -73.092      -20.495      233.420      168.737       89.976    54484.757    28472.184     8095.663       10.949        4.553      357.130      115.343        0.104      349.847       30.574      859.531
06/06/2013  19:01:00     -453.794     -120.238      -20.795      152.238      181.498       75.723    23176.420    32941.427     5734.003       14.132        3.093      469.453       47.783        0.010      349.797       30.483      859.530
06/06/2013  19:02:00     -509.325     -109.362      -24.345      196.791      132.420       86.750    38726.681    17535.124     7525.518       16.786        3.189      520.934       87.573        0.028      349.760       30.420      859.543
06/06/2013  19:03:00     -316.086      -53.599       10.977      190.669      151.359       86.872    36354.580    22909.408     7546.752        8.484        3.341      320.599       96.236        0.090      349.722       30.354      859.547
06/06/2013  19:04:00     -414.526      -90.274      -27.039      159.322      167.877       72.850    25383.477    28182.792     5307.137       11.978        2.944      424.242       89.499        0.045      349.731       30.370      859.556
06/06/2013  19:05:00     -320.753     -149.194        1.518      175.299      142.873       74.729    30729.849    20412.566     5584.366        9.092        2.836      353.753       75.789        0.046      349.737       30.380      859.573
06/06/2013  19:06:00     -358.741     -185.894       -7.472      178.275      127.105       67.970    31782.050    16155.591     4619.858       10.792        2.628      404.044       78.389        0.038      349.751       30.405      859.580
06/06/2013  19:07:00     -296.602     -134.253       -5.383      178.369      167.694       77.484    31815.390    28121.224     6003.754        8.597        3.297      325.571       81.462        0.063      349.740       30.385      859.598
06/06/2013  19:08:00     -398.572     -179.974      -15.820      196.047      173.309       81.720    38434.422    30036.129     6678.216       13.331        3.757      437.322       94.659        0.047      349.741       30.387      859.596
06/06/2013  19:09:00     -275.789      -47.034      -16.356      137.739      100.639       54.718    18972.143    10128.217     2994.069        5.531        1.605      279.770       57.866        0.043      349.773       30.444      859.622
06/06/2013  19:10:00     -152.840       34.656        1.660      124.956       96.977       56.772    15614.108     9404.480     3223.062        2.640        1.412      156.720       63.858        0.166      349.633       30.203      859.640
06/06/2013  19:11:00     -263.918      -59.889       -5.398      121.125      105.419       55.189    14671.249    11113.141     3045.807        5.104        1.442      270.628       54.668        0.041      349.757       30.416      859.659
06/06/2013  19:12:00     -313.597      -80.232      -21.491      182.700       91.079       58.477    33379.355     8295.405     3419.607        7.516        2.255      323.698       70.878        0.048      349.776       30.449      859.681
06/06/2013  19:13:00     -338.462     -108.621      -30.164      104.908      143.979       66.633    11005.636    20730.079     4439.892        8.171        1.809      355.465       58.606        0.027      349.749       30.399      859.695
06/06/2013  19:14:00     -384.239      -81.193      -26.551      114.064      130.371       52.981    13010.616    16996.639     2806.973        9.387        1.641      392.724       57.072        0.021      349.760       30.419      859.710
06/06/2013  19:15:00     -410.182     -104.648      -24.617      185.935      172.212       70.958    34571.868    29657.108     5035.065       12.452        3.463      423.321       77.843        0.034      349.713       30.338      859.719
06/06/2013  19:16:00     -324.733      -56.922      -33.974      128.132       98.511       65.365    16417.792     9704.474     4272.630        7.011        1.520      329.684       57.786        0.031      349.717       30.343      859.750
06/06/2013  19:17:00     -455.999      -72.966      -58.472      122.962      105.144       68.380    15119.549    11055.363     4675.788       12.376        1.543      461.800       53.848        0.014      349.690       30.298      859.780
06/06/2013  19:18:00     -176.588      -44.972       14.127      158.766      131.574       79.765    25206.509    17311.601     6362.446        4.113        2.444      182.225       77.343        0.180      349.642       30.217      859.783
06/06/2013  19:19:00     -314.513      -84.391      -26.266      158.406      104.755       69.947    25092.519    10973.714     4892.539        7.384        2.048      325.638       63.742        0.038      349.650       30.229      859.797
06/06/2013  19:20:00     -236.391      -64.572       -9.338       98.740       70.149       48.572     9749.572     4920.870     2359.223        3.858        0.851      245.052       46.495        0.036      349.643       30.216      859.822
06/06/2013  19:21:00     -178.711        1.822       -6.820       68.983       84.665       45.825     4758.700     7168.227     2099.889        2.300        0.701      178.720       39.080        0.048      349.619       30.177      859.840
06/06/2013  19:22:00     -241.844      -65.692      -13.378      136.071       89.642       57.450    18515.187     8035.599     3300.540        4.641        1.493      250.607       54.765        0.048      349.556       30.068      859.855
06/06/2013  19:23:00     -305.891      -73.954      -23.184      106.234      108.778       63.306    11285.619    11832.748     4007.702        6.335        1.356      314.704       57.571        0.033      349.529       30.020      859.865
06/06/2013  19:24:00     -362.706      -43.567      -29.736      141.210      138.865       62.510    19940.294    19283.369     3907.457        8.873        2.157      365.313       63.779        0.030      349.577       30.106      859.863
06/06/2013  19:25:00     -249.353      -22.248       -3.259      114.835       95.122       56.645    13187.166     9048.101     3208.615        4.406        1.272      250.344       53.476        0.046      349.583       30.113      859.877
06/06/2013  19:26:00     -401.167      -89.248      -30.438      151.168      159.202       72.161    22851.789    25345.131     5207.229       11.160        2.670      410.975       69.650        0.029      349.614       30.167      859.860
06/06/2013  19:27:00     -299.653     -101.538      -12.951      133.056      152.397       69.056    17703.811    23224.920     4768.772        7.297        2.285      316.389       73.167        0.053      349.641       30.213      859.851
06/06/2013  19:28:00     -378.825      -21.563      -21.339      169.287      101.675       70.058    28657.979    10337.751     4908.180        9.416        2.195      379.438       72.936        0.037      349.634       30.200      859.868
06/06/2013  19:29:00     -309.925      -72.279       -7.214      140.530      115.731       70.299    19748.727    13393.645     4941.998        6.970        1.904      318.242       66.199        0.043      349.635       30.205      859.878
06/06/2013  19:30:00     -282.095      -61.971      -13.934       92.925       97.574       48.581     8635.126     9520.676     2360.137        5.206        1.026      288.822       43.936        0.023      349.645       30.220      859.886
06/06/2013  19:31:00     -225.585      -97.884       17.207      147.528      100.230       56.619    21764.509    10046.030     3205.697        4.788        1.751      245.906       73.652        0.090      349.575       30.101      859.890
06/06/2013  19:32:00     -198.403      -23.385       -1.070      137.661       74.320       51.350    18950.456     5523.430     2636.814        3.351        1.356      199.777       58.941        0.087      349.610       30.162      859.893
06/06/2013  19:33:00     -325.544      -37.657      -19.201      104.722       73.319       42.144    10966.778     5375.686     1776.148        6.294        0.906      327.715       38.036        0.013      349.606       30.154      859.898
06/06/2013  19:34:00     -189.273      -65.335        7.881      129.078       95.779       58.469    16661.124     9173.625     3418.650        3.470        1.463      200.233       68.464        0.117      349.508       29.986      859.905
06/06/2013  19:35:00     -192.804      -76.007        7.960      133.426       85.102       52.265    17802.560     7242.354     2731.676        3.539        1.389      207.245       59.832        0.083      349.600       30.145      859.914
06/06/2013  19:36:00     -227.563      -77.513       -9.665      151.443      101.229       59.110    22935.044    10247.252     3493.991        4.727        1.834      240.402       65.289        0.074      349.621       30.181      859.914
06/06/2013  19:37:00     -345.456      -85.146        2.165      125.962       96.876       60.288    15866.397     9385.005     3634.646        7.773        1.444      355.794       57.076        0.026      349.574       30.099      859.919
06/06/2013  19:38:00     -412.442      -51.932       -7.251      208.154      112.904       74.301    43328.172    12747.295     5520.679       11.721        3.080      415.699       80.690        0.038      349.572       30.096      859.911
06/06/2013  19:39:00     -161.138       -1.762        1.784       99.784       66.976       51.442     9956.916     4485.732     2646.329        2.153        0.854      161.148       38.088        0.056      349.535       30.034      859.931
06/06/2013  19:40:00     -180.574      -12.261       15.311      110.927       97.014       54.263    12304.793     9411.769     2944.481        2.882        1.233      180.990       56.660        0.098      349.544       30.047      859.943
06/06/2013  19:41:00      -94.143       -0.275       26.335       87.029       65.125       53.166     7574.121     4241.297     2826.622        1.210        0.732       94.143       45.392        0.232      349.536       30.036      859.953
06/06/2013  19:42:00     -219.953      -53.416       -2.825      140.110       91.446       56.166    19630.837     8362.378     3154.631        4.119        1.557      226.346       54.304        0.058      349.554       30.064      859.966
06/06/2013  19:43:00     -302.175       18.864      -21.587      184.873       89.124       65.610    34177.844     7943.012     4304.627        6.927        2.321      302.763       90.595        0.090      349.515       29.996      859.980
06/06/2013  19:44:00     -324.006      -98.723      -10.869      138.936       89.714       53.136    19303.276     8048.678     2823.484        7.250        1.509      338.712       66.764        0.039      349.479       29.933      859.996
06/06/2013  19:45:00     -155.119       -4.424        0.010      110.668       84.258       43.556    12247.367     7099.439     1897.144        2.266        1.062      155.182       54.754        0.124      349.443       29.873      860.008
06/06/2013  19:46:00     -222.756      -62.445        0.026      116.567       83.361       51.057    13587.833     6948.986     2606.780        3.833        1.157      231.343       61.592        0.071      349.454       29.891      860.021
06/06/2013  19:47:00     -278.562      -38.996      -13.719      138.299       96.397       51.274    19126.746     9292.404     2629.060        5.517        1.552      281.278       58.863        0.044      349.447       29.878      860.036
06/06/2013  19:48:00     -219.727      -28.607      -12.813      129.405       66.645       45.904    16745.698     4441.594     2107.172        3.627        1.165      221.582       60.200        0.074      349.417       29.826      860.048
06/06/2013  19:49:00     -299.326      -21.400      -11.557       93.813      113.805       45.233     8800.934    12951.637     2046.049        5.699        1.190      300.090       40.423        0.018      349.411       29.813      860.056
06/06/2013  19:50:00     -456.594       -6.626      -34.286      167.720       95.555       58.882    28130.162     9130.805     3467.142       12.520        2.036      456.642       61.484        0.018      349.416       29.822      860.070
06/06/2013  19:51:00     -277.701      -92.519       -3.870       86.848       87.253       45.779     7542.501     7613.041     2095.697        5.147        0.863      292.708       39.563        0.018      349.367       29.737      860.089
06/06/2013  19:52:00     -224.659      -91.233      -15.677       82.687       62.678       49.105     6837.197     3928.594     2411.260        3.611        0.659      242.478       37.428        0.024      349.368       29.741      860.081
06/06/2013  19:53:00     -294.559      -63.748      -31.137       94.020       97.025       47.260     8839.833     9413.902     2233.523        5.614        1.024      301.378       25.794        0.007      349.363       29.730      860.090
06/06/2013  19:54:00     -272.483      -54.138      -16.603      100.071       79.713       50.321    10014.107     6354.162     2532.246        4.817        0.945      277.809       49.493        0.032      349.345       29.699      860.096
06/06/2013  19:55:00     -255.093      -73.160      -16.075       67.608       73.203       42.168     4570.900     5358.741     1778.147        4.119        0.585      265.377       30.405        0.013      349.328       29.671      860.113
06/06/2013  19:56:00     -311.956      -19.261      -18.224      102.742       91.319       51.016    10555.994     8339.213     2602.644        5.975        1.075      312.550       53.009        0.029      349.329       29.672      860.123
06/06/2013  19:57:00     -309.820      -69.345       -6.201      120.718       87.155       59.548    14572.952     7595.995     3545.983        6.327        1.286      317.486       61.184        0.037      349.300       29.624      860.130
06/06/2013  19:58:00     -252.697       17.473      -24.090      101.228       67.675       48.322    10247.033     4579.958     2335.023        4.095        0.858      253.300       48.904        0.037      349.270       29.573      860.148
06/06/2013  19:59:00     -218.399      -75.676      -14.199       79.725       89.007       41.813     6356.147     7922.213     1748.341        3.482        0.801      231.139       27.613        0.014      349.287       29.601      860.154
06/06/2013  20:00:00     -252.522     -105.998      -12.217       95.932       88.139       53.548     9202.983     7768.431     2867.433        4.749        0.992      273.867       45.050        0.027      349.255       29.546      860.163
06/06/2013  20:01:00     -208.262      -92.677      -15.565      113.538       72.605       56.598    12890.879     5271.490     3203.365        3.678        1.068      227.952       63.315        0.077      349.220       29.486      860.174
06/06/2013  20:02:00     -257.678      -70.023      -12.608       85.019       88.334       45.601     7228.303     7802.884     2079.406        4.428        0.856      267.022       41.293        0.024      349.224       29.491      860.194
06/06/2013  20:03:00     -254.579      -38.948      -14.618       94.777       85.141       42.844     8982.774     7249.074     1835.601        4.230        0.903      257.541       41.435        0.026      349.185       29.424      860.214
06/06/2013  20:04:00     -196.859      -32.399       -8.699       84.216       92.362       45.000     7092.266     8530.709     2025.023        2.876        0.882      199.508       36.238        0.033      349.168       29.395      860.214
06/06/2013  20:05:00     -187.236      -62.232       -9.752       67.380       66.547       36.326     4540.090     4428.494     1319.565        2.465        0.514      197.308       27.463        0.019      349.151       29.365      860.228
06/06/2013  20:06:00     -245.858      -47.741      -13.562       62.020       61.018       42.906     3846.507     3723.186     1840.897        3.616        0.471      250.450       34.403        0.019      349.120       29.310      860.250
06/06/2013  20:07:00     -216.894       -2.344      -18.326       78.376       75.887       48.671     6142.820     5758.846     2368.874        3.082        0.714      216.907       42.970        0.039      349.107       29.289      860.266
06/06/2013  20:08:00     -198.221      -67.972      -11.059       61.838       76.579       43.114     3823.890     5864.321     1858.830        2.779        0.577      209.552       38.531        0.034      349.046       29.185      860.272
06/06/2013  20:09:00     -307.581      -20.446      -32.543       63.503       78.153       39.413     4032.621     6107.903     1553.356        5.389        0.585      308.260       27.130        0.008      349.054       29.195      860.276
06/06/2013  20:10:00     -211.806      -21.488       -9.678       96.155       91.315       44.845     9245.867     8338.360     2011.088        3.250        0.980      212.893       48.806        0.053      349.005       29.112      860.291
06/06/2013  20:11:00     -194.615      -42.317      -22.314       65.539       56.117       27.179     4295.303     3149.078      738.685        2.417        0.409      199.162       27.535        0.019      349.038       29.169      860.295
06/06/2013  20:12:00     -191.288      -16.310      -15.182       86.223       77.716       36.753     7434.440     6039.739     1350.796        2.595        0.741      191.982       39.253        0.042      348.993       29.091      860.305
06/06/2013  20:13:00     -218.427      -91.646       -7.903       73.131       49.719       38.574     5348.140     2472.001     1487.938        3.274        0.465      236.874       24.961        0.011      348.986       29.077      860.314
06/06/2013  20:14:00     -221.973      -53.269       -2.499       83.882       76.561       48.899     7036.135     5861.614     2391.125        3.370        0.764      228.275       44.506        0.038      349.037       29.167      860.327
06/06/2013  20:15:00     -235.551      -88.675      -10.103       73.050       66.370       45.342     5336.234     4404.920     2055.925        3.762        0.590      251.689       35.156        0.020      348.975       29.060      860.334
06/06/2013  20:16:00     -268.211      -77.683       -7.783       72.315       66.947       43.133     5229.469     4481.882     1860.449        4.480        0.579      279.234       40.957        0.022      348.923       28.970      860.341
06/06/2013  20:17:00     -242.381      -84.909       -7.403       70.641       61.196       39.744     4990.214     3744.956     1579.580        3.816        0.516      256.823       35.918        0.020      348.922       28.966      860.346
06/06/2013  20:18:00     -291.513      -51.370      -19.788      102.080       78.094       50.561    10420.269     6098.749     2556.404        5.354        0.954      296.004       49.381        0.028      348.947       29.012      860.352
06/06/2013  20:19:00     -287.158      -90.648      -23.790       79.262       83.150       43.516     6282.472     6913.850     1893.618        5.316        0.754      301.126       40.523        0.018      348.940       28.999      860.339
06/06/2013  20:20:00     -280.963      -24.241      -23.023       97.365       68.427       41.013     9479.943     4682.241     1682.053        4.795        0.792      282.006       37.817        0.018      348.927       28.977      860.338
06/06/2013  20:21:00     -316.533      -91.377      -21.775       63.692       64.163       41.133     4056.706     4116.943     1691.896        5.944        0.493      329.459       34.978        0.011      348.924       28.972      860.347
06/06/2013  20:22:00     -241.713       -0.021      -24.148       69.537       57.905       41.084     4835.381     3352.967     1687.913        3.444        0.494      241.713       39.738        0.027      348.885       28.903      860.357
06/06/2013  20:23:00     -198.372      -34.532      -16.178       91.484       70.268       39.815     8369.280     4937.585     1585.208        2.785        0.745      201.355       45.235        0.050      348.875       28.887      860.349
06/06/2013  20:24:00     -222.133      -71.001       -7.339       84.483       63.485       44.917     7137.355     4030.296     2017.499        3.381        0.659      233.204       44.411        0.036      348.810       28.774      860.348
06/06/2013  20:25:00     -252.785        0.024      -20.769       78.620       84.349       44.594     6181.175     7114.819     1988.633        3.980        0.764      252.785       37.904        0.022      348.840       28.825      860.350
06/06/2013  20:26:00     -256.181        5.126      -23.728       97.603       78.529       39.496     9526.362     6166.744     1559.972        4.173        0.863      256.232       34.894        0.019      348.799       28.756      860.354
06/06/2013  20:27:00     -177.851      -26.823       -1.289      107.286       61.391       41.045    11510.306     3768.912     1684.658        2.465        0.848      179.862       52.436        0.085      348.719       28.618      860.357
06/06/2013  20:28:00     -134.816      -32.962        0.565       84.251       65.790       34.616     7098.215     4328.374     1198.276        1.594        0.631      138.787       40.795        0.086      348.644       28.489      860.352
06/06/2013  20:29:00     -322.999        3.196      -28.294       89.408       94.400       43.817     7993.863     8911.393     1919.947        6.198        0.941      323.015       37.515        0.013      348.817       28.787      860.338
06/06/2013  20:30:00     -255.831      -78.357      -15.208       74.538       80.316       39.847     5555.932     6450.697     1587.746        4.270        0.680      267.562       37.598        0.020      348.771       28.705      860.357
06/06/2013  20:31:00     -282.662      -99.681      -10.272       88.669       99.411       50.286     7862.249     9882.639     2528.686        5.510        1.014      299.724       42.659        0.020      348.757       28.684      860.348
06/06/2013  20:32:00     -243.691      -95.431       -9.215       69.612       67.300       39.334     4845.843     4529.307     1547.128        3.975        0.546      261.711       35.535        0.018      348.721       28.619      860.356
06/06/2013  20:33:00     -143.900      -41.982       -1.680       85.499       81.470       47.685     7310.043     6637.364     2273.879        1.934        0.811      149.899       54.106        0.130      348.617       28.440      860.370
06/06/2013  20:34:00     -203.038      -44.209      -10.909       59.019       75.217       34.656     3483.203     5657.613     1201.038        2.682        0.517      207.796       22.686        0.012      348.659       28.514      860.367
06/06/2013  20:35:00     -227.110      -30.144      -30.916       64.459       56.102       34.172     4154.938     3147.457     1167.732        3.095        0.424      229.101       25.291        0.012      348.709       28.599      860.382
06/06/2013  20:36:00     -190.583      -38.669      -17.119       69.127       62.699       37.887     4778.515     3931.168     1435.396        2.413        0.507      194.467       31.860        0.027      348.643       28.486      860.384
06/06/2013  20:37:00     -234.725      -50.944      -18.337       65.353       54.969       35.607     4271.060     3021.592     1267.887        3.329        0.428      240.190       30.979        0.017      348.666       28.524      860.382
06/06/2013  20:38:00     -212.288      -39.909      -11.393       87.534       75.440       41.301     7662.185     5691.188     1705.735        3.092        0.753      216.007       41.374        0.037      348.591       28.396      860.390
06/06/2013  20:39:00     -202.263      -56.116       -4.731       70.904       64.905       35.275     5027.335     4212.629     1244.342        2.728        0.524      209.903       31.795        0.023      348.571       28.360      860.377
06/06/2013  20:40:00     -186.525      -25.696      -20.006       68.944       50.527       29.203     4753.243     2552.940      852.792        2.200        0.408      188.286       29.257        0.024      348.586       28.387      860.365
06/06/2013  20:41:00     -242.419      -50.518       -7.393       73.515       58.151       36.130     5404.421     3381.554     1305.369        3.573        0.505      247.627       37.357        0.023      348.566       28.350      860.365
06/06/2013  20:42:00     -181.287      -48.892       -0.279      133.567       90.545       49.243    17840.243     8198.467     2424.921        3.185        1.423      187.765       49.636        0.070      348.507       28.251      860.342
06/06/2013  20:43:00     -237.957      -72.358       -9.293       72.383       92.242       41.740     5239.244     8508.608     1742.221        3.871        0.775      248.715       36.776        0.022      348.580       28.376      860.338
06/06/2013  20:44:00     -244.118      -28.329       -6.103      112.802       98.607       56.883    12724.185     9723.388     3235.676        4.305        1.284      245.756       60.439        0.060      348.588       28.390      860.354
06/06/2013  20:45:00     -329.626     -111.034       -5.069       87.724       86.742       43.469     7695.477     7524.208     1889.529        6.906        0.855      347.825       38.159        0.012      348.630       28.462      860.358
06/06/2013  20:46:00     -302.102      -63.877       -2.675      122.263      125.227       58.497    14948.122    15681.699     3421.920        6.470        1.703      308.781       58.785        0.036      348.611       28.432      860.393
06/06/2013  20:47:00     -258.611     -103.404       -9.225      131.747      111.021       58.438    17357.159    12325.638     3414.963        5.537        1.655      278.517       52.779        0.036      348.596       28.405      860.401
06/06/2013  20:48:00     -221.067      -28.191      -21.202      103.844       93.410       54.340    10783.603     8725.400     2952.816        3.628        1.123      222.857       51.327        0.053      348.529       28.288      860.420
06/06/2013  20:49:00     -245.994      -49.469       -8.791      101.837       88.560       57.169    10370.677     7842.822     3268.336        4.226        1.074      250.919       52.695        0.044      348.528       28.285      860.430
06/06/2013  20:50:00     -217.487      -71.656        1.367      110.644       92.803       54.427    12242.061     8612.450     2962.321        3.812        1.191      228.987       56.847        0.062      348.471       28.187      860.432
06/06/2013  20:51:00     -207.278      -23.660       -0.032       86.699       81.743       47.374     7516.787     6681.839     2244.324        2.998        0.822      208.624       48.332        0.054      348.457       28.163      860.424
06/06/2013  20:52:00     -180.168      -52.404        5.764      100.269       77.745       45.958    10053.922     6044.335     2112.160        2.672        0.911      187.635       53.981        0.083      348.417       28.095      860.438
06/06/2013  20:53:00     -275.629      -37.071       -6.588      100.375      108.140       49.656    10075.189    11694.266     2465.700        5.081        1.212      278.111       45.181        0.026      348.535       28.297      860.427
06/06/2013  20:54:00     -354.592      -19.018      -30.971      116.062      101.129       51.871    13470.500    10227.062     2690.582        7.672        1.319      355.102       61.475        0.030      348.517       28.267      860.423
06/06/2013  20:55:00     -269.924      -74.366       -4.236       94.591       73.392       47.184     8947.392     5386.421     2226.289        4.748        0.828      279.980       49.061        0.031      348.487       28.212      860.442
06/06/2013  20:56:00     -263.198      -96.392      -14.125       76.368       77.798       45.905     5832.076     6052.570     2107.260        4.638        0.700      280.294       37.578        0.018      348.460       28.169      860.457
06/06/2013  20:57:00     -237.523      -27.233       -7.995       86.339       74.638       38.615     7454.501     5570.856     1491.149        3.587        0.726      239.079       29.021        0.015      348.407       28.078      860.477
06/06/2013  20:58:00     -252.994       -6.078      -19.016       90.738       80.023       46.069     8233.318     6403.634     2122.388        4.058        0.838      253.067       44.309        0.031      348.413       28.087      860.486
06/06/2013  20:59:00     -253.611      -78.778      -23.841       65.246       78.580       44.760     4257.065     6174.789     2003.438        4.176        0.622      265.565       38.884        0.021      348.428       28.113      860.505
06/06/2013  21:00:00     -271.197      -75.300      -10.732       75.751       78.674       45.671     5738.260     6189.587     2085.869        4.667        0.701      281.457       41.196        0.021      348.412       28.086      860.520
06/06/2013  21:01:00     -206.294      -87.169       -8.676       61.390       61.784       38.173     3768.691     3817.288     1457.191        2.964        0.452      223.955       24.711        0.012      348.377       28.025      860.547
06/06/2013  21:02:00     -265.898       28.871      -16.284       76.707       88.891       40.729     5884.022     7901.543     1658.852        4.362        0.772      267.461       37.337        0.019      348.345       27.970      860.554
06/06/2013  21:03:00     -235.214      -19.835      -20.617       92.875       75.407       44.169     8625.782     5686.150     1950.885        3.620        0.813      236.049       39.983        0.029      348.281       27.858      860.575
06/06/2013  21:04:00     -214.017      -25.712       -9.534       79.992       74.310       43.955     6398.790     5521.954     1932.016        3.020        0.693      215.556       42.465        0.039      348.287       27.869      860.590
06/06/2013  21:05:00     -221.874      -63.516      -25.740       71.246       76.900       32.225     5075.983     5913.584     1038.475        3.297        0.601      230.787       26.573        0.013      348.285       27.864      860.590
06/06/2013  21:06:00     -197.204      -28.049       -9.627       81.126       59.651       37.475     6581.462     3558.244     1404.392        2.565        0.577      199.189       44.377        0.050      348.257       27.818      860.598
06/06/2013  21:07:00     -153.800       -6.568       -9.350       63.419       52.619       34.057     4021.963     2768.757     1159.850        1.587        0.398      153.941       32.561        0.045      348.219       27.755      860.613
06/06/2013  21:08:00     -132.766      -14.908      -18.251       43.330       34.499       26.808     1877.482     1190.148      718.649        1.098        0.189      133.601       22.772        0.029      348.199       27.720      860.616
06/06/2013  21:09:00      -98.968      -22.480      -17.118       67.426       72.190       43.373     4546.299     5211.348     1881.216        1.111        0.582      101.489       33.055        0.106      348.125       27.593      860.640
06/06/2013  21:10:00     -155.103      -22.099      -17.706       72.307       76.362       45.490     5228.293     5831.187     2069.324        1.899        0.656      156.669       36.818        0.055      348.148       27.632      860.654
06/06/2013  21:11:00     -148.672      -47.930      -15.732       69.044       55.658       35.407     4767.020     3097.842     1253.683        1.688        0.456      156.207       16.021        0.011      348.080       27.514      860.671
06/06/2013  21:12:00     -247.299      -69.271      -32.845       66.421       75.727       41.209     4411.794     5734.626     1698.215        3.944        0.592      256.818       29.452        0.013      348.102       27.549      860.698
06/06/2013  21:13:00     -227.612      -46.486      -18.399       96.941       85.925       36.458     9397.570     7383.174     1329.191        3.620        0.905      232.310       38.174        0.027      348.045       27.451      860.711
06/06/2013  21:14:00     -184.681      -58.173      -14.600       79.601       87.293       45.933     6336.309     7620.083     2109.809        2.688        0.803      193.626       40.789        0.044      348.039       27.442      860.727
06/06/2013  21:15:00     -206.550      -65.193      -22.125       87.977       83.388       41.906     7739.981     6953.518     1756.153        3.192        0.822      216.594       31.616        0.021      348.041       27.443      860.749
06/06/2013  21:16:00     -337.304      -26.980      -19.886      139.878       85.366       61.441    19565.848     7287.355     3775.019        7.276        1.531      338.381       72.758        0.046      348.087       27.525      860.767
06/06/2013  21:17:00     -285.632      -56.407      -22.241      102.892       94.294       49.979    10586.828     8891.436     2497.942        5.361        1.099      291.149       41.204        0.020      348.119       27.578      860.780
06/06/2013  21:18:00     -263.299     -102.283      -21.998       76.286       58.425       43.529     5819.561     3413.451     1894.792        4.570        0.556      282.468       28.027        0.010      348.146       27.626      860.787
06/06/2013  21:19:00     -213.302      -80.235        2.717      110.347       88.191       49.286    12176.367     7777.738     2429.126        3.716        1.119      227.894       53.087        0.054      348.083       27.518      860.787
06/06/2013  21:20:00     -267.559      -93.075      -10.846       75.868       82.126       51.116     5756.016     6744.610     2612.838        4.774        0.756      283.286       46.795        0.027      348.141       27.615      860.810
06/06/2013  21:21:00     -211.178      -68.544      -20.624       73.668       60.169       36.061     5426.933     3620.368     1300.394        3.003        0.517      222.024       37.897        0.029      348.097       27.540      860.824
06/06/2013  21:22:00     -288.282      -24.337      -17.582       64.041       81.845       37.894     4101.292     6698.562     1435.955        4.812        0.612      289.307       35.042        0.015      348.141       27.616      860.834
06/06/2013  21:23:00     -273.685      -22.937      -15.843       84.649       63.906       50.304     7165.419     4084.022     2530.504        4.473        0.689      274.644       49.671        0.033      348.077       27.507      860.850
06/06/2013  21:24:00     -221.361      -35.990      -12.819       94.934       56.643       42.232     9012.476     3208.403     1783.541        3.223        0.700      224.268       47.437        0.045      348.087       27.521      860.846
06/06/2013  21:25:00     -206.024      -28.627      -14.328      119.292       70.256       52.000    14230.495     4935.881     2703.957        3.267        1.094      208.003       64.225        0.095      348.121       27.585      860.838
06/06/2013  21:26:00     -220.613      -65.255       -1.821      133.975       89.270       51.086    17949.347     7969.148     2609.808        4.072        1.426      230.062       62.199        0.073      348.136       27.609      860.856
06/06/2013  21:27:00     -356.484      -64.838       -8.360      127.469       82.891       57.168    16248.291     6870.862     3268.229        7.887        1.319      362.333       63.927        0.031      348.162       27.655      860.848
06/06/2013  21:28:00     -252.475      -38.648      -10.447      143.527      107.930       59.859    20600.126    11648.898     3583.151        5.058        1.792      255.415       65.678        0.066      348.121       27.581      860.853
06/06/2013  21:29:00     -200.198      -52.708        5.213      141.024       95.845       69.135    19887.642     9186.241     4779.658        3.836        1.693      207.020       75.574        0.133      348.077       27.507      860.874
06/06/2013  21:30:00     -375.079      -75.117      -19.849      108.893       99.289       60.501    11857.791     9858.210     3660.319        8.604        1.269      382.527       60.091        0.025      348.181       27.686      860.884
06/06/2013  21:31:00     -233.306      -60.576       -3.014      129.716      105.308       56.472    16826.176    11089.674     3189.106        4.460        1.555      241.042       55.061        0.052      348.098       27.543      860.885
06/06/2013  21:32:00     -282.655      -27.995      -14.679      124.030       86.373       54.856    15383.467     7460.328     3009.137        5.337        1.293      284.038       51.994        0.034      348.184       27.690      860.905
06/06/2013  21:33:00     -361.452      -54.586      -26.471      100.070       88.470       51.866    10014.097     7826.860     2690.040        7.743        1.027      365.550       47.113        0.017      348.185       27.692      860.907
06/06/2013  21:34:00     -240.768      -22.197      -26.199       78.867       70.770       52.625     6220.061     5008.445     2769.383        3.657        0.700      241.789       46.150        0.036      348.194       27.709      860.907
06/06/2013  21:35:00     -201.170      -79.654        4.211      110.011       71.922       50.171    12102.327     5172.711     2517.161        3.331        0.990      216.366       54.053        0.062      348.083       27.518      860.920
06/06/2013  21:36:00     -269.838      -24.571      -26.405       82.454       75.204       42.832     6798.626     5655.667     1834.542        4.420        0.714      270.954       37.159        0.019      348.158       27.646      860.911
06/06/2013  21:37:00     -199.682      -56.775       -6.297      103.049       77.711       41.203    10619.186     6038.995     1697.699        3.074        0.918      207.596       43.833        0.045      348.112       27.568      860.920
06/06/2013  21:38:00     -256.757     -134.886      -15.205      126.886       95.347       47.263    16100.171     9090.977     2233.837        5.588        1.371      290.032       51.066        0.031      348.127       27.592      860.917
06/06/2013  21:39:00     -323.450      -96.390      -15.550      126.410       83.229       48.888    15979.603     6927.034     2390.054        6.972        1.265      337.507       53.939        0.026      348.119       27.579      860.918
06/06/2013  21:40:00     -246.130      -85.422        4.758      108.959       97.328       57.313    11872.026     9472.691     3284.755        4.626        1.231      260.532       56.478        0.047      348.132       27.601      860.932
06/06/2013  21:41:00     -191.751      -25.444       -8.339       85.389       77.511       42.096     7291.281     6007.994     1772.055        2.628        0.754      193.432       40.713        0.044      348.066       27.487      860.947
06/06/2013  21:42:00     -177.527      -46.151       -0.060      108.313       83.596       52.221    11731.606     6988.327     2727.023        2.754        1.072      183.428       59.848        0.106      348.041       27.446      860.943
06/06/2013  21:43:00     -220.142      -16.095      -15.578      126.160       71.038       48.380    15916.376     5046.387     2340.654        3.613        1.165      220.730       52.811        0.057      348.086       27.524      860.939
06/06/2013  21:44:00     -196.447      -94.380      -10.261       63.429       73.579       40.646     4023.194     5413.867     1652.125        2.934        0.554      217.943       27.238        0.016      348.043       27.446      860.940
06/06/2013  21:45:00     -239.307     -109.464      -14.030      136.026       80.902       50.931    18503.191     6545.100     2593.917        4.854        1.382      263.155       54.791        0.043      348.049       27.458      860.949
06/06/2013  21:46:00     -208.064     -114.334      -10.741      130.519       70.672       49.174    17035.310     4994.517     2418.042        4.046        1.222      237.408       57.567        0.059      348.160       27.651      860.944
06/06/2013  21:47:00     -234.470      -92.028       -6.940      112.560      107.435       53.931    12669.747    11542.245     2908.552        4.530        1.356      251.884       55.132        0.048      348.122       27.585      860.969
06/06/2013  21:48:00     -159.070     -114.387       16.316      155.862      116.844       69.683    24293.012    13652.548     4855.677        4.072        2.140      195.928       91.591        0.219      348.083       27.519      860.970
06/06/2013  21:49:00     -312.774      -48.642       -4.467      139.933      104.758       59.728    19581.281    10974.149     3567.433        6.716        1.706      316.534       75.611        0.057      348.134       27.605      860.983
06/06/2013  21:50:00     -320.088      -98.745      -23.409      115.893      105.195       56.110    13431.116    11066.002     3148.290        7.019        1.382      334.973       57.894        0.030      348.159       27.648      861.019
06/06/2013  21:51:00     -354.336      -61.494      -16.398      141.721       93.770       52.682    20084.779     8792.871     2775.355        8.062        1.583      359.632       64.179        0.032      348.088       27.526      861.039
06/06/2013  21:52:00     -236.315      -51.153       -9.783      100.612      121.819       49.895    10122.676    14839.761     2489.551        4.300        1.373      241.788       41.369        0.029      348.060       27.476      861.044
06/06/2013  21:53:00     -221.465      -18.271       -6.090      136.280       89.590       54.413    18572.365     8026.311     2960.734        3.948        1.478      222.218       61.022        0.075      348.075       27.504      861.042
06/06/2013  21:54:00     -260.901     -107.664       -1.184      113.976       95.077       56.471    12990.586     9039.545     3188.918        5.244        1.261      282.242       61.171        0.047      348.101       27.549      861.061
06/06/2013  21:55:00     -213.331      -24.585       -4.708      158.182       93.377       60.273    25021.536     8719.175     3632.783        4.175        1.869      214.743       68.919        0.103      348.057       27.474      861.072
06/06/2013  21:56:00     -318.709      -44.853       -7.767      168.323       96.725       63.249    28332.723     9355.731     4000.405        7.266        2.084      321.849       66.753        0.043      348.114       27.571      861.085
06/06/2013  21:57:00     -281.967     -119.190       -3.032      122.545      118.183       71.653    15017.375    13967.196     5134.182        6.391        1.706      306.123       68.817        0.051      348.140       27.616      861.091
06/06/2013  21:58:00     -184.331     -109.711       -9.865      115.303       89.251       57.981    13294.669     7965.761     3361.816        3.536        1.231      214.509       58.521        0.074      348.122       27.585      861.075
06/06/2013  21:59:00     -273.856     -185.581       -0.999      138.842      113.302       60.427    19277.195    12837.357     3651.474        7.259        1.788      330.813       57.684        0.030      348.134       27.605      861.078
06/06/2013  22:00:00     -222.386      -79.366        8.926      193.962      102.637       67.663    37621.244    10534.345     4578.294        5.427        2.637      236.124       81.603        0.119      348.097       27.543      861.078
06/06/2013  22:01:00     -305.382     -151.711       -8.231      118.507      105.527       58.808    14043.954    11135.936     3458.343        7.248        1.432      340.990       55.399        0.026      348.120       27.580      861.105
06/06/2013  22:02:00     -234.869     -117.234        8.274      172.944      121.439       79.739    29909.610    14747.336     6358.280        5.999        2.551      262.502       95.969        0.134      348.072       27.499      861.122
06/06/2013  22:03:00     -219.204      -85.822       -9.624      115.243       86.367       59.231    13280.907     7459.249     3508.365        3.987        1.212      235.406       62.945        0.071      348.107       27.559      861.142
06/06/2013  22:04:00     -261.070     -137.680       -0.379      221.330      112.198       72.933    48987.184    12588.330     5319.251        7.699        3.345      295.150       94.862        0.103      348.141       27.619      861.136
06/06/2013  22:05:00     -238.170     -157.951       -2.332      168.731      104.589       70.397    28470.264    10938.769     4955.721        6.301        2.218      285.786       76.069        0.071      348.208       27.734      861.147
06/06/2013  22:06:00     -276.092     -135.472       -1.253      128.686      118.615       56.090    16560.146    14069.590     3146.114        6.417        1.689      307.538       54.047        0.031      348.230       27.772      861.167
06/06/2013  22:07:00     -144.489      -63.259        3.238      106.806       61.621       40.760    11407.439     3797.096     1661.392        2.087        0.843      157.730       50.816        0.104      348.100       27.548      861.184
06/06/2013  22:08:00     -133.463       -9.695       -4.807       83.334       50.912       30.989     6944.546     2591.990      960.297        1.421        0.525      133.814       26.045        0.038      348.123       27.588      861.190
06/06/2013  22:09:00     -212.297      -21.584      -14.475       76.171       64.314       35.768     5801.947     4136.353     1279.356        2.848        0.561      213.391       26.190        0.015      348.051       27.460      861.200
06/06/2013  22:10:00     -174.278      -16.292       -1.145       77.839       71.908       45.102     6058.931     5170.698     2034.182        2.195        0.663      175.038       39.439        0.051      347.985       27.349      861.203
06/06/2013  22:11:00     -107.113      -53.053        1.237       90.949       61.858       41.367     8271.706     3826.439     1711.221        1.405        0.690      119.531       43.467        0.132      347.956       27.300      861.178
06/06/2013  22:12:00     -109.575      -62.287        9.205       78.024       52.738       42.882     6087.711     2781.334     1838.830        1.334        0.535      126.041       47.580        0.143      347.939       27.269      861.160
06/06/2013  22:13:00     -209.941      -91.745      -13.182       88.494       81.835       49.656     7831.156     6696.981     2465.706        3.483        0.850      229.112       50.634        0.049      348.032       27.431      861.168
06/06/2013  22:14:00     -173.718       -8.188        0.600      102.995       65.292       52.323    10607.899     4263.038     2737.710        2.392        0.880      173.911       59.445        0.117      347.963       27.311      861.165
06/06/2013  22:15:00     -180.676      -37.497      -12.134       91.614       65.135       44.301     8393.178     4242.602     1962.616        2.439        0.730      184.526       47.777        0.067      347.945       27.280      861.161
06/06/2013  22:16:00     -173.388      -33.731       -0.755      113.158       74.203       54.109    12804.654     5506.118     2927.775        2.622        1.062      176.639       50.180        0.081      347.917       27.230      861.162
06/06/2013  22:17:00     -137.013      -29.936       17.112       98.006       90.526       49.911     9605.205     8194.920     2491.097        2.012        1.015      140.245       48.177        0.118      347.827       27.076      861.172
06/06/2013  22:18:00     -221.265     -125.402       -9.471      113.358       72.552       51.750    12850.038     5263.734     2678.046        4.278        1.040      254.330       56.125        0.049      347.983       27.344      861.177
06/06/2013  22:19:00     -202.714      -46.422        1.445      139.982      123.438       64.599    19594.832    15236.822     4173.064        4.112        1.950      207.962       61.916        0.089      348.000       27.374      861.172
06/06/2013  22:20:00     -136.661       -6.065        1.269      100.843       63.844       41.491    10169.301     4076.109     1721.486        1.734        0.798      136.795       45.687        0.112      347.865       27.142      861.189
06/06/2013  22:21:00     -102.473       -2.688       -1.405       69.155       48.832       29.347     4782.363     2384.597      861.253        0.927        0.401      102.508       28.125        0.075      347.772       26.983      861.213
06/06/2013  22:22:00      -59.864       22.034      -10.485       31.075       45.331       20.067      965.637     2054.870      402.680        0.380        0.171       63.791       21.451        0.113      347.655       26.780      861.230
06/06/2013  22:23:00      -94.835        4.861        5.221       40.613       55.590       23.849     1649.442     3090.258      568.788        0.718        0.265       94.959       19.778        0.043      347.714       26.883      861.232
06/06/2013  22:24:00      -89.665      -39.335       -5.704       49.907       33.253       23.584     2490.685     1105.731      556.200        0.689        0.208       97.914       23.780        0.059      347.726       26.903      861.245
06/06/2013  22:25:00      -76.549       16.920       -9.031       61.423       41.072       19.806     3772.842     1686.906      392.286        0.604        0.293       78.396       26.444        0.114      347.585       26.660      861.257
06/06/2013  22:26:00     -125.727      104.481      -23.051       60.741       88.709       30.233     3689.460     7869.270      914.035        1.986        0.624      163.473       38.022        0.054      347.691       26.842      861.291
06/06/2013  22:27:00     -181.203       31.752      -30.349       48.238       73.870       24.031     2326.878     5456.797      577.509        2.156        0.418      183.964       26.606        0.021      347.690       26.842      861.311
06/06/2013  22:28:00      -98.996       21.556       -4.098       58.610       36.766       23.532     3435.147     1351.703      553.752        0.781        0.267      101.315       17.442        0.030      347.714       26.884      861.308
06/06/2013  22:29:00     -141.890      -37.729      -12.718       47.015       50.080       26.679     2210.407     2507.977      711.786        1.357        0.272      146.820       15.198        0.011      347.669       26.806      861.314
06/06/2013  22:30:00      -94.430      -23.001       -2.485       55.434       39.887       25.219     3072.930     1590.956      636.017        0.738        0.265       97.191       26.705        0.075      347.537       26.578      861.319
06/06/2013  22:31:00      -86.259       26.941       -4.056       45.192       37.807       25.256     2042.315     1429.335      637.857        0.615        0.205       90.368       24.146        0.071      347.577       26.648      861.329
06/06/2013  22:32:00      -61.309       46.559      -14.430       33.312       41.100       16.010     1109.689     1689.222      256.324        0.459        0.153       76.984        8.523        0.012      347.563       26.623      861.335
06/06/2013  22:33:00      -54.481       14.894      -11.643       38.654       26.841       17.030     1494.118      720.447      290.006        0.291        0.125       56.480       11.216        0.039      347.472       26.467      861.344
06/06/2013  22:34:00      -55.270      -18.930       -4.996       22.707       19.232       20.402      515.609      369.851      416.250        0.237        0.065       58.422        9.949        0.029      347.609       26.703      861.339
06/06/2013  22:35:00      -34.763       -2.517        0.972       31.774       30.588       16.243     1009.606      935.612      263.834        0.171        0.110       34.854       14.592        0.175      347.464       26.452      861.331
06/06/2013  22:36:00      -82.602      -27.485      -11.937       25.006       14.705       11.984      625.289      216.247      143.608        0.435        0.049       87.054        9.164        0.011      347.472       26.468      861.341
06/06/2013  22:37:00      -62.198       -0.926       -7.476       14.735       20.424        9.932      217.112      417.153       98.637        0.233        0.037       62.205        7.495        0.015      347.428       26.390      861.346
06/06/2013  22:38:00      -54.661        4.194       -8.671       13.113       13.997       11.798      171.938      195.920      139.183        0.179        0.025       54.822        7.455        0.018      347.420       26.376      861.351
06/06/2013  22:39:00      -72.533      -17.277       -8.904       25.950       20.762       13.832      673.378      431.040      191.312        0.347        0.065       74.562       14.942        0.040      347.418       26.372      861.359
06/06/2013  22:40:00        2.595       15.086       11.535       27.873       28.057       13.270      776.899      787.215      176.087        0.105        0.087       15.307        9.344        0.373      347.288       26.147      861.365
06/06/2013  22:41:00      -39.209       36.821       -4.169       29.618       13.837       14.038      877.244      191.469      197.072        0.209        0.063       53.788       16.616        0.095      347.473       26.467      861.395
06/06/2013  22:42:00       18.452       67.124       -6.896       30.078       51.330       19.740      904.694     2634.803      389.672        0.441        0.196       69.614       23.300        0.112      347.212       26.016      861.402
06/06/2013  22:43:00      -15.582       74.274      -13.258       20.970       35.136       14.421      439.750     1234.568      207.973        0.391        0.094       75.890       11.888        0.025      347.091       25.808      861.385
06/06/2013  22:44:00      -28.304      112.820      -16.602       18.646       38.991       15.588      347.684     1520.277      242.984        0.796        0.106      116.316       13.002        0.012      347.169       25.943      861.370
06/06/2013  22:45:00      -21.806       91.010      -10.604       18.235       18.822       12.163      332.508      354.250      147.944        0.485        0.042       93.586        8.065        0.007      347.297       26.162      861.361
06/06/2013  22:46:00      -69.705       15.475      -12.590       17.294       35.913       11.043      299.095     1289.762      121.952        0.348        0.086       71.402        7.756        0.012      347.053       25.744      861.352
06/06/2013  22:47:00      -64.094      -43.708       -8.689       31.734       18.394       15.112     1007.024      338.337      228.384        0.383        0.079       77.578        6.463        0.007      347.129       25.875      861.339
06/06/2013  22:48:00      -41.889      -41.398        4.202       41.498       25.985       18.640     1722.109      675.209      347.466        0.311        0.137       58.894       19.413        0.109      347.190       25.979      861.318
06/06/2013  22:49:00      -14.445      -75.420       -5.749       55.972       39.088       28.437     3132.848     1527.859      808.647        0.570        0.273       76.791       10.746        0.020      347.495       26.504      861.278
06/06/2013  22:50:00      -51.824      -37.674        8.096       53.303       54.896       31.669     2841.194     3013.568     1002.903        0.551        0.343       64.071       35.986        0.315      347.541       26.586      861.266
06/06/2013  22:51:00      -41.458       82.610       -8.652       29.347       45.488       16.299      861.239     2069.137      265.671        0.591        0.160       92.430       14.406        0.024      347.032       25.707      861.294
06/06/2013  22:52:00        4.899       82.577      -12.815       21.945       15.297       13.170      481.577      233.986      173.460        0.395        0.044       82.722        6.712        0.007      347.107       25.837      861.316
06/06/2013  22:53:00      -24.240       61.550       -4.331       16.599       19.674       16.531      275.536      387.078      273.267        0.267        0.047       66.151        9.204        0.019      346.982       25.621      861.321
06/06/2013  22:54:00       26.413       38.289       -3.790       17.357       13.154       10.928      301.258      173.033      119.428        0.139        0.030       46.515        7.161        0.024      346.933       25.537      861.306
06/06/2013  22:55:00        6.731       42.410      -10.853       13.341       15.704        6.767      177.986      246.601       45.795        0.122        0.024       42.941        4.886        0.013      346.918       25.511      861.299
06/06/2013  22:56:00        9.366       55.703      -11.040       11.242       15.621        8.359      126.380      244.006       69.873        0.188        0.022       56.485        6.763        0.014      347.066       25.767      861.296
06/06/2013  22:57:00        7.416       18.306       -3.857       21.741       11.380       11.845      472.663      129.511      140.314        0.057        0.037       19.751        9.665        0.239      346.738       25.201      861.296
06/06/2013  22:58:00       -9.749      140.040      -18.904       26.749       31.521       14.289      715.502      993.572      204.186        1.099        0.096      140.379       13.051        0.009      346.976       25.612      861.306
06/06/2013  22:59:00      -44.414      115.434      -22.370       25.164       39.544       11.915      633.243     1563.740      141.971        0.907        0.117      123.683        5.255        0.002      346.845       25.386      861.310
06/06/2013  23:00:00      -35.632       84.820       -9.486       25.968       49.192       17.078      674.356     2419.826      291.668        0.597        0.169       92.000        9.520        0.011      346.810       25.325      861.324
06/06/2013  23:01:00      -88.085       14.929       -3.308       55.500       48.434       20.272     3080.227     2345.817      410.955        0.691        0.292       89.342       23.647        0.070      347.012       25.674      861.317
06/06/2013  23:02:00      -76.622      -37.643       -2.753       42.217       29.013       25.042     1782.236      841.772      627.113        0.527        0.163       85.370       24.331        0.081      347.380       26.307      861.318
06/06/2013  23:03:00      -77.641       31.505      -12.397       32.150       41.194       14.697     1033.638     1696.920      216.009        0.506        0.147       83.789       16.778        0.040      347.291       26.154      861.326
06/06/2013  23:04:00      -47.957       76.091      -16.394       34.550       25.273       13.282     1193.719      638.734      176.418        0.518        0.100       89.943       15.363        0.029      347.202       26.001      861.348
06/06/2013  23:05:00      -24.047       69.635      -11.898       22.860       20.972       16.209      522.560      439.829      262.738        0.340        0.061       73.670       16.781        0.052      347.141       25.895      861.342
06/06/2013  23:06:00      -63.437       15.920      -11.185       25.234       19.250        8.845      636.733      370.547       78.232        0.274        0.054       65.405        7.437        0.013      347.376       26.300      861.343
06/06/2013  23:07:00      -78.621       -7.036       -5.299       23.903       23.171       14.370      571.337      536.904      206.510        0.379        0.066       78.935       10.711        0.018      347.603       26.692      861.351
06/06/2013  23:08:00      -58.926       60.885       -6.807       17.480       23.443       11.698      305.541      549.577      136.833        0.411        0.050       84.730        9.101        0.012      347.564       26.626      861.339
06/06/2013  23:09:00      -46.122       17.738        1.436       38.702       28.170       11.371     1497.825      793.543      129.302        0.243        0.121       49.416       14.274        0.083      347.645       26.767      861.326
06/06/2013  23:10:00      -41.376      -16.571        4.962       31.099       18.892       16.723      967.118      356.909      279.660        0.181        0.080       44.571       19.145        0.184      347.144       25.901      861.353
06/06/2013  23:11:00      -38.680       21.484       -1.178       21.509       14.728       10.821      462.639      216.917      117.100        0.138        0.040       44.246        8.142        0.034      346.781       25.274      861.391
06/06/2013  23:12:00      -53.727       67.591       -4.301       56.888       37.593       32.081     3236.301     1413.227     1029.191        0.658        0.284       86.343       30.682        0.126      347.114       25.850      861.396
06/06/2013  23:13:00      -94.650       94.699      -17.786       32.920       48.510       22.692     1083.733     2353.232      514.935        1.110        0.198      133.890       13.801        0.011      347.642       26.760      861.377
06/06/2013  23:14:00      -60.236       49.880       -2.051       49.707       45.872       26.619     2470.739     2104.218      708.575        0.570        0.264       78.207       29.016        0.138      347.673       26.812      861.367
06/06/2013  23:15:00      -83.405       89.724      -14.650       44.328       51.628       27.787     1964.928     2665.471      772.136        1.031        0.270      122.502       27.271        0.050      347.574       26.642      861.353
06/06/2013  23:16:00      -34.284       37.455       -2.564       25.838       29.597       14.176      667.603      875.972      200.955        0.216        0.087       50.777        7.515        0.022      347.319       26.203      861.373
06/06/2013  23:17:00      -11.798        3.273      -13.512       15.236       11.758        7.123      232.123      138.251       50.731        0.038        0.021       12.244        4.831        0.156      346.897       25.476      861.397
06/06/2013  23:18:00        2.326       45.203        2.754        8.901       17.616       10.380       79.219      310.320      107.750        0.128        0.025       45.263        9.472        0.044      347.111       25.844      861.385
06/06/2013  23:19:00       16.301       63.378       -4.746       23.053       45.127       14.909      531.439     2036.488      222.277        0.355        0.140       65.440       17.609        0.072      347.165       25.937      861.390
06/06/2013  23:20:00       -0.434       69.761       -8.420       32.964       24.581       17.104     1086.605      604.229      292.557        0.346        0.099       69.762       16.421        0.055      347.455       26.436      861.416
06/06/2013  23:21:00      -29.180       65.447       -8.932       16.585       20.033       12.851      275.075      401.311      165.146        0.303        0.042       71.657        9.720        0.018      347.247       26.077      861.445
06/06/2013  23:22:00      -33.940       41.114       -4.946       25.835       27.414       17.451      667.445      751.527      304.521        0.229        0.086       53.313       18.778        0.124      347.437       26.405      861.457
06/06/2013  23:23:00      -48.606       36.576       -6.869       29.922       25.440       11.713      895.301      647.208      137.206        0.271        0.084       60.830       17.231        0.080      347.473       26.469      861.463
06/06/2013  23:24:00      -48.808       22.890       -4.364       28.484       24.447       13.981      811.324      597.637      195.456        0.226        0.080       53.909       17.667        0.107      347.576       26.646      861.465
06/06/2013  23:25:00      -52.705      -41.714       -7.686       22.167       19.315       12.289      491.385      373.068      151.016        0.280        0.051       67.215       11.670        0.030      347.164       25.934      861.471
06/06/2013  23:26:00      -30.555      -57.894        0.709       34.729       14.804       12.639     1206.124      219.148      159.753        0.294        0.079       65.462       11.344        0.030      347.457       26.442      861.465
06/06/2013  23:27:00      -27.054      -57.929       -1.651       40.322       24.423       11.662     1625.867      596.473      136.003        0.322        0.118       63.935        8.558        0.018      347.662       26.792      861.459
06/06/2013  23:28:00       11.648      -82.590        8.299       24.537       20.362       15.265      602.073      414.608      233.016        0.414        0.062       83.407        4.425        0.003      347.621       26.722      861.461
06/06/2013  23:29:00       -1.852      -70.846       -4.193       26.644       29.788       14.595      709.889      887.334      213.028        0.342        0.091       70.870       12.137        0.029      347.620       26.720      861.470
06/06/2013  23:30:00       -9.462      -53.991        2.269       19.788       27.394       15.272      391.581      750.453      233.234        0.219        0.069       54.813       14.809        0.073      347.526       26.558      861.468
06/06/2013  23:31:00       -7.904      -38.559        3.852       22.601       19.428       15.598      510.810      377.446      243.308        0.135        0.057       39.361        6.916        0.031      347.526       26.560      861.463
06/06/2013  23:32:00       -5.858       -1.925        0.313        7.875        6.849        7.092       62.011       46.913       50.297        0.010        0.008        6.166        2.651        0.185      347.330       26.222      861.481
06/06/2013  23:33:00      -19.393      -13.983       -0.897       21.099       13.763        4.418      445.182      189.416       19.515        0.061        0.033       23.908        6.230        0.068      347.465       26.451      861.494
06/06/2013  23:34:00      -60.947       -7.131      -11.943       13.642        9.861        8.471      186.099       97.247       71.755        0.213        0.018       61.363        7.460        0.015      346.560       24.896      861.518
06/06/2013  23:35:00      -23.815        4.537       -7.689        7.608        5.852        4.820       57.879       34.246       23.233        0.038        0.006       24.243        3.545        0.021      346.808       25.323      861.530
06/06/2013  23:36:00      -57.902        3.385       -6.104       22.255        7.667       12.130      495.301       58.784      147.131        0.205        0.035       58.000       11.039        0.036      347.357       26.268      861.545
06/06/2013  23:37:00      -28.337       -7.607       -2.332       26.419       28.800       13.939      697.940      829.464      194.292        0.129        0.086       29.340        9.556        0.106      347.525       26.559      861.552
06/06/2013  23:38:00      -14.993       22.301       -0.576       18.279       21.296        9.431      334.134      453.500       88.953        0.080        0.044       26.873       12.099        0.203      347.130       25.876      861.550
06/06/2013  23:39:00        4.866       11.721        6.092       28.133       10.420       14.977      791.438      108.580      224.308        0.066        0.056       12.691       17.759        1.958      347.077       25.787      861.565
06/06/2013  23:40:00       29.464       58.833       -5.370       15.573       33.442       18.772      242.530     1118.377      352.401        0.304        0.086       65.799       23.010        0.122      346.778       25.270      861.580
06/06/2013  23:41:00       42.518       78.612       -6.729       36.753       29.573       23.172     1350.770      874.538      536.946        0.540        0.138       89.374       13.386        0.022      346.413       24.642      861.605
06/06/2013  23:42:00       39.982       70.055       -8.935       37.237       35.089       25.167     1386.565     1231.204      633.399        0.492        0.163       80.662       19.033        0.056      346.330       24.499      861.611
06/06/2013  23:43:00      117.030       78.463        9.396       52.802       27.373       26.684     2788.053      749.276      712.024        1.209        0.212      140.899       22.462        0.025      346.714       25.161      861.603
06/06/2013  23:44:00      127.154       47.408       11.025       57.514       42.806       36.670     3307.890     1832.375     1344.702        1.251        0.324      135.705       16.738        0.015      346.631       25.016      861.580
06/06/2013  23:45:00      130.592       83.680       11.823       37.254       30.603       19.916     1387.824      936.526      396.667        1.346        0.136      155.102       11.142        0.005      346.859       25.410      861.606
06/06/2013  23:46:00       27.245       41.145       -0.543       47.341       50.127       27.656     2241.147     2512.737      764.872        0.398        0.276       49.348       20.783        0.177      346.545       24.869      861.668
06/06/2013  23:47:00       29.796      192.154      -34.458       28.221       29.688       19.745      796.437      881.365      389.864        2.053        0.103      194.450       14.356        0.005      346.621       24.998      861.716
06/06/2013  23:48:00       31.793      119.739      -10.588       39.714       46.746       31.440     1577.166     2185.158      988.473        1.010        0.238      123.888       27.494        0.049      346.471       24.742      861.730
06/06/2013  23:49:00       30.097       53.293        1.265       34.768       39.017       29.503     1208.830     1522.298      870.440        0.367        0.180       61.205       18.428        0.091      346.466       24.734      861.727
06/06/2013  23:50:00       95.406       57.181       17.012       30.245       26.660       20.267      914.761      710.781      410.742        0.735        0.102      111.229       17.297        0.024      346.507       24.804      861.742
06/06/2013  23:51:00       60.840       28.471       16.212       26.148       24.673       18.776      683.694      608.754      352.529        0.321        0.082       67.173       13.987        0.043      346.375       24.577      861.756
06/06/2013  23:52:00       43.561       36.073        0.767       25.119       21.219       14.678      630.953      450.238      215.456        0.225        0.065       56.558       12.114        0.046      346.374       24.576      861.775
06/06/2013  23:53:00       46.937       39.021        5.949       27.712       20.612       18.115      767.978      424.874      328.151        0.264        0.076       61.039       13.329        0.048      346.485       24.766      861.784
06/06/2013  23:54:00       39.347       40.573        8.461       37.425       22.372       31.737     1400.598      500.510     1007.234        0.309        0.145       56.518       22.922        0.164      346.493       24.780      861.804
06/06/2013  23:55:00        6.639       98.827      -15.713       28.215       31.621       13.994      796.077      999.870      195.842        0.602        0.100       99.050       13.783        0.019      346.384       24.593      861.830
06/06/2013  23:56:00       -9.831      145.078      -22.358       32.454       28.487       15.045     1053.279      811.482      226.355        1.187        0.105      145.411       12.209        0.007      346.361       24.555      861.841
06/06/2013  23:57:00      -30.538      106.470      -12.190       23.246       33.657       19.803      540.387     1132.806      392.171        0.724        0.103      110.763       15.003        0.018      346.327       24.496      861.853
06/06/2013  23:58:00      -39.441       59.671      -17.862       21.147       36.721       14.136      447.177     1348.416      199.817        0.371        0.100       71.527       15.634        0.048      346.361       24.554      861.862
06/06/2013  23:59:00      -44.899       98.650      -17.307       22.206       19.869       12.136      493.118      394.758      147.288        0.654        0.052      108.387        6.426        0.004      346.607       24.976      861.855
